     2.10           OBSERVATION DATA    G (GPS)             RINEX VERSION / TYPE
teqc 2000Jul20 Karen Wendt 20040727 23:16:09UTC             PGM / RUN BY / DATE
Linux 2.0.36|Pentium II|gcc -static|Linux|486/DX+           COMMENT
teqc 2000Jul20 Karen Wendt 20040727 23:16:09UTC             COMMENT
BIT 2 OF LLI FLAGS DATA COLLECTED UNDER A/S CONDITION       COMMENT
east                                                        MARKER NAME
CHS USGS                                                    OBSERVER / AGENCY
LP019992809 ASHTECH Z-XII3 CD00                             REC # / TYPE / VERS
CR520031626 ASH701945E_M NONE                               ANT # / TYPE
 -2740450.0000 -4050606.0000  4080522.0000                  APPROX POSITION XYZ
        1.3864        0.0000        0.0000                  ANTENNA: DELTA H/E/N
     1     1                                                WAVELENGTH FACT L1/2
     5    C1    L1    L2    P1    P2                        # / TYPES OF OBSERV
    30.0000                                                 INTERVAL
                                                            COMMENT
National Earthquake Hazard Reduction Program                COMMENT
Crustal Strain Project                                      COMMENT
345 Middlefield Road, MS/977                                COMMENT
U.S. Geological Survey, Menlo Park, California 94025        COMMENT
Contact: kwendt@usgs.gov (Ph: 650-329-4866)                 COMMENT
Antenna height is vertical to base of antenna               COMMENT
                                                            COMMENT
SNR is mapped to RINEX snr flag value [1-9]                 COMMENT
L1: 1 -> 1; 90 -> 5; 210 -> 9                               COMMENT
L2: 1 -> 1; 150 -> 5; 250 -> 9                              COMMENT
  2004     7    15    15    38    0.0000000     GPS         TIME OF FIRST OBS
                                                            END OF HEADER
 04  7 15 15 38  0.0000000  0  9G22G16G 3G26G21G19G18G15G14
  20647310.348      -90914.50149    -65545.32048  20647309.865
  20647313.282      180288.37849    124348.99643
  21886507.682     -178611.31749   -126086.75447  21886507.356
  21886513.871      239608.88449    167707.56945                  24113858.989
  21091250.853      115687.45749     83781.17947  21091250.111
  21091254.935     -333341.08349   -240299.73645                  24797491.304
  20693860.563       86619.93449     62775.17348  20693860.109    20693865.177
  20517936.869     -138657.44849   -100690.85548  20517936.188
  20517942.551     -355210.00049   -261604.94043
 04  7 15 15 38 30.0000000  0  9G22G16G 3G26G21G19G18G15G14
  20561333.119     -542726.15149   -417606.33748  20561332.985
  20561336.397     -172627.50549   -150650.41945                  24393231.779
  21796146.871     -653459.90949   -496098.63447  21796146.681    21796153.145
  24051401.353      -88564.38449    -88012.01245  24051399.643    24051409.375
  21017921.964     -269657.11849   -216487.33847  21017921.476    21017926.322
  24696589.300     -863562.38849   -653459.16045  24696587.398    24696593.312
  20618756.403     -308055.71749   -244764.29748  20618755.872    20618760.923
  20428936.928     -606353.08649   -465129.01048  20428936.651
  20428943.085     -894827.28149   -403089.01543
 04  7 15 15 39  0.0000000  0  9G22G16G 3G26G21G19G18G15G14
  20557059.503     -565184.53649   -435106.37848  20557059.344    20557062.738
  24407725.337      -96419.16649    -91267.46145  24407723.874    24407732.783
  21787513.495     -698829.60049   -531451.63747  21787513.159    21787519.584
  24070645.176       12562.03849     -9212.36145  24070644.649    24070652.855
  21026282.358     -225723.33349   -182253.25047  21026281.838    21026286.710
  24677352.229     -964650.01149   -732228.67745  24677350.855    24677356.316
  20625344.856     -273433.42949   -217785.90248  20625344.321    20625349.349
  20421621.187     -644798.86349   -495086.76148  20421620.716
  20421627.132    -1005332.28549   -489196.81645                  23458976.146
 04  7 15 15 39 30.0000000  0  9G22G16G 3G26G21G19G18G15G14
  20552858.742     -587259.95349   -452307.99848  20552858.552    20552861.952
  24422256.426      -20058.75749    -31765.98745  24422257.113    24422263.902
  21778977.246     -743688.62149   -566406.71447  21778976.858    21778983.240
  24089951.101      114016.47149     69842.92945  24089950.485    24089959.164
  21034701.543     -181480.36149   -147778.23747  21034701.009    21034705.915
  24658147.195    -1065572.01349   -810869.22845  24658146.011    24658151.451
  20631995.491     -238484.26149   -190552.79348  20631994.967    20631999.972
  20414358.812     -682963.68649   -524825.58348  20414358.224    20414364.633
  23437968.298    -1115693.06849   -575192.15845  23437967.792    23437975.410
 04  7 15 15 40  0.0000000  0  9G22G16G 3G26G21G19G18G15G14
  20548730.380     -608954.60049   -469212.91148  20548730.190    20548733.609
  24436815.508       56449.32849     27850.60145  24436815.785    24436823.265
  21770538.072     -788036.84749   -600963.76847  21770537.690    21770544.058
  24109318.818      215794.29749    149150.18745  24109318.506    24109326.931
  21043179.263     -136929.65149   -113063.42747  21043178.730    21043183.670
  24638973.977    -1166327.30049   -889379.78845  24638972.774    24638978.406
  20638707.766     -203211.15249   -163067.26048  20638707.250    20638712.232
  20407149.770     -720847.66749   -554345.57048  20407149.154    20407155.594
  23416995.031    -1225908.07249   -661073.91645  23416994.542    23417002.271
 04  7 15 15 40 30.0000000  0  9G22G16G 3G26G21G19G18G15G14
  20544674.781     -630267.09649   -485820.04948  20544674.568    20544677.993
  24451402.423      133103.93649     87581.34145  24451402.306    24451409.921
  21762196.767     -831870.86649   -635120.15047  21762196.405    21762202.708
  24128747.761      317894.18649    228708.44845  24128747.545    24128755.985
  21051715.978      -92069.06149    -78107.15247  21051715.431    21051720.409
  24619833.220    -1266911.65149   -967757.17945  24619832.175    24619837.949
  20645481.862     -167613.21149   -135328.61248  20645481.331    20645486.313
  20399994.700     -758447.90049   -583644.45548  20399994.058    20400000.528
  23396050.476    -1335972.64049   -746838.45346  23396050.002    23396057.665
 04  7 15 15 41  0.0000000  0  9G22G16G 3G26G21G19G18G15G14
  20540691.381     -651200.01149   -502131.41248  20540691.185    20540694.597
  24466016.355      209899.95449    147422.32445  24466016.140    24466023.605
  21753953.205     -875191.08549   -668876.15247  21753952.832    21753959.225
  24148237.118      420311.08349    308513.71245  24148236.923    24148245.182
  21060311.262      -46900.68749    -42911.05247  21060310.720    21060315.726
  24600725.270    -1367324.62749  -1046001.02045  24600724.263    24600730.045
  20652317.047     -131694.21549   -107339.79348  20652316.519    20652321.498
  20392893.490     -795765.29249   -612722.94648  20392892.834    20392899.302
  23375134.624    -1445886.37549   -832485.44946  23375134.151    23375141.782
 04  7 15 15 41 30.0000000  0  9G22G16G 3G26G21G19G18G15G14
  20536780.393     -671752.48949   -518146.32648  20536780.193    20536783.592
  24480656.758      286836.05749    207372.39045  24480656.464    24480664.347
  21745808.035     -917994.48549   -702229.45247  21745807.651    21745814.009
  24167786.581      523043.11849    388564.64545  24167786.409    24167793.907
  21068965.437       -1423.04849     -7473.95747  21068964.899    21068969.883
  24581650.511    -1467562.21849  -1124108.19445  24581649.578    24581655.594
  20659213.287      -95454.12049    -79100.76848  20659212.785    20659217.803
  20385846.703     -832796.68449   -641578.57848  20385846.013    20385852.492
  23354248.272    -1555644.79549   -918011.42646  23354247.831    23354255.390
 04  7 15 15 42  0.0000000  0  9G22G16G 3G26G21G19G18G15G14
  20532941.401     -691926.68049   -533866.47848  20532941.201    20532944.626
  24495323.159      363907.18149    267427.68745  24495322.910    24495330.671
  21737761.102     -960281.18849   -735180.13247  21737760.762    21737767.136
  24187395.087      626085.74549    468857.50645  24187395.024    24187402.605
  21077678.198       44362.53849     28203.08947  21077677.667    21077682.639
  24562609.493    -1567623.37649  -1202077.93245  24562608.650    24562614.590
  20666170.037      -58896.03649    -50613.96848  20666169.568    20666174.634
  20378854.194     -869542.58249   -670211.75148  20378853.513    20378859.992
  23333391.782    -1665246.73649  -1003415.45746  23333391.279    23333398.834
 04  7 15 15 42 30.0000000  0  9G22G16G 3G26G21G19G18G15G14
  20529174.652     -711721.16849   -549290.75348  20529174.458    20529177.899
  24510014.924      441112.11749    327587.26945  24510014.649    24510022.283
  21729813.181    -1002047.90549   -767725.62547  21729812.844    21729819.183
  24207062.410      729437.59149    549391.42445  24207062.229    24207069.538
  21086449.897       90457.62549     64121.31047  21086449.365    21086454.307
  24543602.859    -1667503.69749  -1279906.69845  24543602.048    24543608.032
  20673187.332      -22019.83549    -21879.28048  20673186.890    20673191.958
  20371916.586     -906000.09849   -698620.20848  20371915.896    20371922.389
  23312565.915    -1774687.81249  -1088694.14346  23312565.387    23312572.890
 04  7 15 15 43  0.0000000  0  9G22G16G 3G26G21G19G18G15G14
  20525479.899     -731137.31749   -564420.21748  20525479.716    20525483.138
  24524731.445      518447.30349    387848.32545  24524731.122    24524738.928
  21721964.400    -1043293.74349   -799865.23347  21721964.037    21721970.416
                    833094.80649    630163.15445
  21095280.393      136861.84949    100280.40747  21095279.852    21095284.786
  24524631.006    -1767201.51649  -1357593.28645  24524630.132    24524636.137
  20680264.876       15172.59849      7101.82448  20680264.421    20680269.461
  20365033.980     -942168.60749   -726803.45748  20365033.291    20365039.784
  23291771.073    -1883965.79449  -1173845.73146  23291770.463    23291777.966
 04  7 15 15 43 30.0000000  0  9G22G16G 3G26G21G19G18G15G14
  20521857.102     -750175.29149   -579255.00048  20521856.924    20521860.331
  24539472.086      595910.06749    448208.82345  24539471.907    24539479.303
  21714215.114    -1084016.58649   -831597.31947  21714214.762    21714221.129
                    937054.67249    711170.79545                  24246578.192
  21104169.781      183575.68049    136680.76347  21104169.238    21104174.186
  24505694.264    -1866713.87049  -1435135.35445  24505693.481    24505699.516
  20687402.393       52680.19649     36328.51048  20687401.940    20687406.978
  20358206.654     -978046.44449   -754760.21448  20358205.967    20358212.445
  23271007.770    -1993077.60349  -1258867.84146  23271007.187    23271014.609
 04  7 15 15 44  0.0000000  0  9G22G16G 3G26G21G19G18G15G14
  20518306.151     -768835.77349   -593795.64048  20518305.962    20518309.395
  24554236.674      673497.40749    508666.36945  24554236.485    24554243.932
  21706565.614    -1124215.06949   -862920.81647  21706565.228    21706571.671
  24266410.898     1041314.14149    792411.82345  24266410.803    24266418.450
  21113118.098      230599.26749    173322.48547  21113117.563    21113122.526
  24486793.632    -1966038.09849  -1512530.81745  24486792.776    24486798.752
  20694599.514       90501.32049     65799.50248  20694599.067    20694604.129
  20351434.916    -1013632.39249   -782489.52348  20351434.215    20351440.704
  23250276.637    -2102020.21749  -1343758.11846  23250276.119    23250283.464
 04  7 15 15 44 30.0000000  0  9G22G16G 3G26G21G19G18G15G14
  20514826.783     -787120.10149   -608043.17548  20514826.591    20514830.038
  24569024.134      751205.68249    569218.13945  24569023.948    24569031.479
  21699015.988    -1163888.37649   -893835.08447  21699015.634    21699022.148
  24286307.202     1145869.34249    873883.32445  24286307.199    24286314.972
  21122125.277      277931.91049    210205.02847  21122124.717    21122129.721
  24467928.981    -2065172.55749  -1589778.43245  24467928.056    24467933.994
  20701855.925      128633.83149     95513.13048  20701855.464    20701860.541
  20344718.787    -1048926.04149   -809991.07148  20344718.095    20344724.598
  23229578.147    -2210791.76049  -1428515.09246  23229577.569    23229584.812
 04  7 15 15 45  0.0000000  0  9G22G16G 3G26G21G19G18G15G14
  20511419.041     -805027.98449   -621997.37248  20511418.850    20511422.316
  24583834.237      829032.29549    629862.14145  24583833.986    24583841.577
  21691566.719    -1203034.60849   -924338.65247  21691566.361    21691572.844
  24306259.267     1250717.77049    955583.27445  24306259.227    24306267.164
  21131191.341      325574.10349    247328.78747  21131190.781    21131195.799
  24449101.109    -2164114.11349  -1666875.72145  24449100.210    24449106.138
  20709171.436      167076.94149    125468.78548  20709170.959    20709176.074
  20338058.661    -1083925.41949   -837263.31348  20338057.975    20338064.486
  23208912.757    -2319388.86049  -1513136.11946  23208912.175    23208919.396
 04  7 15 15 45 30.0000000  0  9G22G16G 3G26G21G19G18G15G14
  20508082.774     -822560.20449   -635658.84148  20508082.580    20508086.037
  24598665.939      906974.42349    690596.07845  24598665.628    24598673.664
  21684217.985    -1241652.40149   -954430.44047  21684217.629    21684224.129
  24326266.512     1355856.34349   1037509.35045  24326266.586    24326274.404
  21140316.298      373525.91449    284693.80147  21140315.744    21140320.780
  24430310.453    -2262860.15349  -1743820.67245  24430309.589    24430315.352
  20716545.777      205829.15349    155665.29748  20716545.304    20716550.416
  20331454.740    -1118629.45849   -864305.42448  20331454.037    20331460.521
  23188281.092    -2427808.80549  -1597619.10546  23188280.548    23188287.740
 04  7 15 15 46  0.0000000  0  9G22G16G 3G26G21G19G18G15G14
  20504817.983     -839717.04049   -649027.80648  20504817.780    20504821.267
  24613519.550      985029.10349    751417.84045  24613519.185    24613526.739
  21676970.200    -1279740.07849   -984109.15247  21676969.816    21676976.303
  24346328.555     1461282.19049   1119659.21445  24346328.517    24346336.426
  21149500.264      421787.70849    322300.36447  21149499.706    21149504.759
  24411557.532    -2361408.00649  -1820611.18145  24411556.571    24411562.410
  20723978.744      244889.30449    186101.76248  20723978.248    20723983.347
  20324907.323    -1153036.49149   -891116.10048  20324906.630    20324913.070
  23167683.765    -2536048.48649  -1681961.63846  23167683.197    23167690.359
 04  7 15 15 46 30.0000000  0  9G22G16G 3G26G21G19G18G15G14
  20501624.260     -856499.97949   -662105.42548  20501624.081    20501627.571
  24628393.641     1063192.64849    812324.41245  24628393.158    24628400.929
  21669823.401    -1317296.86549  -1013374.19247  21669823.043    21669829.489
  24366444.242     1566991.12649   1202029.69645  24366444.132    24366452.389
  21158743.092      470358.75749    360147.90247  21158742.537    21158747.595
  24392842.601    -2459755.83349  -1897245.83645  24392841.687    24392847.391
  20731469.850      284255.10449    216776.39448  20731469.352    20731474.456
  20318416.510    -1187146.12749   -917695.04048  20318415.823    20318422.231
  23147121.019    -2644106.00949  -1766162.23346  23147120.462    23147127.601
 04  7 15 15 47  0.0000000  0  9G22G16G 3G26G21G19G18G15G14
  20498501.686     -872909.41749   -674892.00348  20498501.483    20498505.003
  24643288.120     1141462.04349    873313.40745  24643287.566    24643295.358
  21662777.929    -1354321.21249  -1042224.33647  21662777.551    21662783.985
  24386613.531     1672980.48249   1284618.71145  24386613.438    24386621.460
  21168044.783      519239.31749    398236.62047  21168044.228    21168049.283
  24374166.291    -2557900.77349  -1973722.37845  24374165.387    24374171.017
  20739018.843      323925.34749    247688.25748  20739018.376    20739023.493
  20311982.558    -1220957.01049   -944041.18248  20311981.858    20311988.236
  23126593.478    -2751978.49249  -1850218.62446  23126592.933    23126600.103
 04  7 15 15 47 30.0000000  0  9G22G16G 3G26G21G19G18G15G14
  20495450.131     -888945.61749   -687387.74648  20495449.925    20495453.455
  24658201.854     1219834.79049    934382.90245  24658201.513    24658209.389
  21655834.130    -1390811.20949  -1070658.10747  21655833.788    21655840.217
  24406835.439     1779247.65649   1367424.18345  24406835.439    24406843.673
  21177405.499      568430.03649    436567.01247  21177404.938    21177410.002
  24355529.016    -2655839.92749  -2050038.58445  24355528.129    24355533.766
  20746625.590      363899.01549    278836.54848  20746625.130    20746630.263
  20305605.843    -1254467.08649   -970152.93748  20305605.152    20305611.527
  23106101.756    -2859662.60949  -1934128.23746  23106101.199    23106108.409
 04  7 15 15 48  0.0000000  0  9G22G16G 3G26G21G19G18G15G14
  20492469.432     -904609.24849   -699593.17848  20492469.249    20492472.771
  24673134.960     1298307.98249    995530.70545  24673134.484    24673142.653
  21648992.264    -1426765.61049  -1098674.53347  21648991.905    21648998.344
  24427109.653     1885789.32849   1450443.58545  24427109.664    24427118.143
  21186825.230      617930.64649    475138.88447  21186824.646    21186829.737
  24336931.427    -2753570.97649  -2126192.60545  24336930.454    24336936.291
  20754289.855      404174.65149    310220.14648  20754289.394    20754294.525
  20299286.556    -1287675.20949   -996029.39848  20299285.867    20299292.217
  23085646.385    -2967155.66649  -2017888.96146  23085645.860    23085653.099
 04  7 15 15 48 30.0000000  0  9G22G16G 3G26G21G19G18G15G14
  20489559.452     -919901.55749   -711509.27248  20489559.263    20489562.790
  24688086.487     1376878.16149   1056754.13245  24688086.043    24688093.902
  21642252.429    -1462183.49949  -1126272.89747  21642252.091    21642258.527
  24447435.572     1992602.02649   1533674.14545  24447435.603    24447444.006
  21196303.800      667740.77249    513951.93347  21196303.235    21196308.364
  24318373.807    -2851091.55049  -2202182.64045  24318372.811    24318378.650
  20762011.146      444749.97549    341837.26348  20762010.669    20762015.781
  20293024.866    -1320580.90549  -1021670.20448  20293024.162    20293030.535
  23065227.849    -3074455.40149  -2101499.04846  23065227.336    23065234.520
 04  7 15 15 49  0.0000000  0  8G22G16G 3G21G19G18G15G14
  20486720.506     -934820.44749   -723134.39148  20486720.329    20486723.825
  24703056.390     1455544.46749   1118052.51045  24703056.030    24703063.521
  21635615.518    -1497061.10449  -1153450.26147  21635615.155    21635621.593
  21205841.784      717863.10149    553008.26147  21205841.211    21205846.382
  24299857.275    -2948396.63349  -2278004.76245  24299856.319    24299862.062
  20769789.678      485626.19349    373688.84748  20769789.204    20769794.300
  20286821.414    -1353180.28649  -1047072.32648  20286820.736    20286827.120
  23044847.078    -3181556.69049  -2184954.51346  23044846.555    23044853.764
 04  7 15 15 49 30.0000000  0  7G22G 3G21G19G18G15G14
  20483953.045     -949363.72649   -734466.82448  20483952.864    20483956.325
  21629082.249    -1531393.97149  -1180203.15547  21629081.868    21629088.318
  21215439.710      768300.40149    592310.01447  21215439.137    21215444.351
  24281382.808    -3045480.61849  -2353654.56745  24281381.809    24281387.689
  20777625.772      526805.02149    405776.23248  20777625.319    20777630.416
  20280677.092    -1385469.05849  -1072232.41348  20280676.400    20280682.816
  23024505.183    -3288453.66549  -2268250.75846  23024504.727    23024511.892
 04  7 15 15 50  0.0000000  0  7G22G 3G21G19G18G15G14
  20481255.403     -963540.11149   -745513.36548  20481255.212    20481258.693
  21622651.158    -1565189.31949  -1206537.19947  21622650.780    21622657.287
  21225096.029      819044.68549    631850.97547  21225095.482    21225100.743
  24262949.346    -3142348.94649  -2429136.36245  24262948.400    24262954.205
  20785517.632      568276.83649    438091.91648  20785517.176    20785522.272
  20274590.557    -1417454.04549  -1097155.78648  20274589.873    20274596.285
  23004201.169    -3395151.61949  -2351391.93646  23004200.753    23004207.839
 04  7 15 15 50 30.0000000  0  7G22G 3G21G19G18G15G14
  20478627.533     -977349.64149   -756274.04548  20478627.341    20478630.859
  21616322.781    -1598445.40449  -1232451.04347  21616322.411    21616328.900
  21234810.865      870096.26649    671631.38847  21234810.297    21234815.557
  24244557.634    -3238998.66449  -2504447.81745  24244556.653    24244562.318
  20793465.092      610040.63149    470635.11648  20793464.594    20793469.682
  20268562.198    -1449133.40049  -1121841.00848  20268561.507    20268567.926
  22983935.724    -3501647.16149  -2434375.37346  22983935.323    22983942.373
 04  7 15 15 51  0.0000000  0  7G22G 3G21G19G18G15G14
  20476069.615     -990791.74649   -766748.42048  20476069.422    20476072.941
  21610097.469    -1631159.57949  -1257942.61747  21610097.101    21610103.636
  21244584.433      921456.44149    711652.26547  21244583.851    21244589.096
  24226208.034    -3335425.99249  -2579585.96845  24226207.116    24226212.815
  20801467.965      652096.00349    503405.52548  20801467.484    20801472.561
  20262592.448    -1480504.67749  -1146286.16248  20262591.740    20262598.196
  22963709.613    -3607936.33149  -2517198.01246  22963709.185    22963716.098
 04  7 15 15 51 30.0000000  0  7G22G 3G21G19G18G15G14
  20473581.501    -1003867.16949   -776937.06948  20473581.305    20473584.796
  21603975.613    -1663330.25149  -1283010.68147  21603975.229    21603981.778
  21254416.843      973125.90849    751914.15147  21254416.264    21254421.510
  24207901.356    -3431627.94149  -2654548.48045  24207900.459    24207906.260
  20809526.131      694441.96149    536402.36048  20809525.695    20809530.751
  20256681.653    -1511566.20649  -1170489.96148  20256680.952    20256687.409
  22943523.243    -3714016.11849  -2599857.50146  22943522.839    22943529.719
 04  7 15 15 52  0.0000000  0  7G22G 3G21G19G18G15G14
  20471163.148    -1016575.98849   -786840.05748  20471162.929    20471166.427
  21597957.456    -1694955.81249  -1307653.98447  21597957.115    21597963.710
  21264308.187     1025105.01549    792417.31347  21264307.616    21264312.838
  24189638.148    -3527601.52649  -2729333.09645  24189637.282    24189643.027
  20817639.465      737077.51249    569624.85448  20817638.998    20817644.041
  20250830.087    -1542316.38749  -1194451.14548  20250829.383    20250835.856
  22923377.251    -3819883.45849  -2682351.43846  22923376.897    22923383.753
 04  7 15 15 52 30.0000000  0  7G22G 3G21G19G18G15G14
  20468814.388    -1028918.73549   -796457.78648  20468814.175    20468817.675
  21592043.314    -1726035.12249  -1331871.63447  21592042.970    21592049.504
  21274258.450     1077393.67149    833161.68347  21274257.878    21274263.070
  24171418.880    -3623344.07449  -2803937.63345  24171418.076    24171423.914
  20825807.549      780001.16949    603071.84348  20825807.104    20825812.151
  20245038.088    -1572753.71049  -1218168.54648  20245037.392    20245043.849
  22903272.238    -3925535.67949  -2764677.75246  22903271.855    22903278.727
 04  7 15 15 53  0.0000000  0  7G22G 3G21G19G18G15G14
  20466535.240    -1040895.90749   -805790.65348  20466535.043    20466538.561
  21586233.374    -1756566.67149  -1355662.46647  21586233.042    21586239.582
  21284267.645     1129992.14649    874147.47347  21284267.078    21284272.275
  24153244.083    -3718852.66249  -2878359.88645  24153243.317    24153249.108
  20834030.282      823211.98549    636742.59248  20834029.861    20834034.924
  20239305.903    -1602876.54349  -1241640.89048  20239305.211    20239311.671
  22883208.837    -4030969.39849  -2846833.79646  22883208.375    22883215.371
 04  7 15 15 53 30.0000000  0  7G22G 3G21G19G18G15G14
  20464325.363    -1052508.84249   -814839.70548  20464325.182    20464328.691
  21580527.819    -1786549.63449  -1379025.82447  21580527.472    21580534.037
  21294335.627     1182899.58249    915374.00547  21294335.059    21294340.257
  24135114.443    -3814125.11149  -2952598.13245  24135113.509    24135119.419
  20842307.297      866707.84149    670635.44748  20842306.861    20842311.929
  20233633.672    -1632684.34949  -1264867.76148  20233633.007    20233639.489
  22863187.347    -4136182.46449  -2928817.90546  22863186.895    22863193.928
 04  7 15 15 54  0.0000000  0  8G22G 3G21G19G 9G18G15G14
  20462183.690    -1063763.54649   -823609.60848  20462183.495    20462187.010
  21574925.779    -1815988.41449  -1401965.14347  21574925.450    21574932.042
  21304461.486     1236111.13849    956837.51547  21304460.918    21304466.104
  24117029.023    -3909164.36349  -3026654.67845  24117028.138    24117034.083
  24396696.784     -964926.29049   -740928.20245  24396696.449    24396706.248
  20850637.272      910481.94849    704745.12148  20850636.844    20850641.908
  20228020.601    -1662181.22649  -1287852.34948  20228019.933    20228026.463
  22843207.378    -4241177.63649  -3010632.24346  22843206.907    22843213.916
 04  7 15 15 54 30.0000000  0  8G22G 3G21G19G 9G18G15G14
  20460111.244    -1074654.43549   -832096.01648  20460111.030    20460114.566
  21569428.751    -1844875.57549  -1424474.62647  21569428.425    21569435.048
  21314646.350     1289632.89149    998542.73447  21314645.818    21314651.004
  24098989.700    -4003961.65549  -3100522.66345  24098988.757    24098994.782
  24384285.132    -1030150.06549   -791751.87645  24384284.811    24384294.552
  20859021.164      954539.48449    739075.65048  20859020.740    20859025.813
  20222468.186    -1691359.53349  -1310588.70148  20222467.507    20222474.061
  22823270.571    -4345945.91049  -3092269.77046  22823270.069    22823277.068
 04  7 15 15 55  0.0000000  0  8G22G 3G21G19G 9G18G15G14
  20458108.131    -1085180.65849   -840298.27248  20458107.937    20458111.478
  21564037.230    -1873208.44449  -1446552.19647  21564036.888    21564043.481
  21324890.578     1343466.36849   1040490.86247  21324890.046    21324895.244
  24080997.186    -4098512.41049  -3174198.57345  24080996.333    24081002.373
  24371936.100    -1095044.58749   -842319.06245  24371935.840    24371945.509
  20867458.886      998880.09949    773626.76048  20867458.459    20867463.574
  20216976.902    -1720216.50249  -1333074.66048  20216976.218    20216982.745
  22803377.732    -4450482.87649  -3173727.07346  22803377.320    22803384.263
 04  7 15 15 55 30.0000000  0  8G22G 3G21G19G 9G18G15G14
  20456174.066    -1095344.22249   -848217.93748  20456173.876    20456177.420
  21558751.136    -1900987.30049  -1468198.06647  21558750.787    21558757.324
  21335193.778     1397609.98849   1082680.66147  21335193.253    21335198.452
  24063051.870    -4192815.75449  -3247681.65745  24063050.966    24063057.000
  24359650.071    -1159608.12749   -892628.21445  24359649.725    24359659.494
  20875950.057     1043501.38549    808396.57348  20875949.631    20875954.784
  20211546.784    -1748752.09049  -1355310.19148  20211546.098    20211552.617
  22783529.267    -4554787.19549  -3255003.08446  22783528.801    22783535.669
 04  7 15 15 56  0.0000000  0  8G22G 3G21G19G 9G18G15G14
  20454308.774    -1105146.32949   -855855.94348  20454308.607    20454312.166
  21553570.575    -1928211.54249  -1489411.77047  21553570.224    21553576.762
  21345555.973     1452063.49749   1125111.92447  21345555.459    21345560.653
  24045154.181    -4286869.29049  -3320970.12545  24045153.296    24045159.119
  24347427.491    -1223837.76949   -942677.20045  24347427.227    24347436.960
  20884494.234     1088401.32649    843383.52348  20884493.816    20884498.968
  20206177.988    -1776965.34249  -1377294.55348  20206177.324    20206183.794
  22763725.472    -4658856.43949  -3336095.92946  22763725.031    22763731.845
 04  7 15 15 56 30.0000000  0  8G22G 3G21G19G 9G18G15G14
  20452512.025    -1114588.28549   -863213.31248  20452511.871    20452515.414
  21548495.670    -1954880.63349  -1510192.89247  21548495.347    21548501.876
  21355977.011     1506826.10949   1167784.05147  21355976.485    21355981.681
  24027304.406    -4380670.95749  -3394062.30545  24027303.444    24027309.264
  24335268.971    -1287730.64249   -992463.74445  24335268.894    24335278.481
  20893091.100     1133577.88649    878586.01748  20893090.664    20893095.819
  20200870.679    -1804855.67649  -1399027.28648  20200870.009    20200876.449
  22743966.894    -4762688.49649  -3417003.94646  22743966.440    22743973.215
 04  7 15 15 57  0.0000000  0  8G22G 3G21G19G 9G18G15G14
  20450783.786    -1123670.45349   -870290.33148  20450783.607    20450787.140
  21543526.665    -1980993.08349  -1530540.26947  21543526.327    21543532.815
  21366456.967     1561898.49849   1210697.55647  21366456.470    21366461.673
  24009503.016    -4474217.65149  -3466955.82646  24009502.107    24009507.846
  24323175.264    -1351283.29349  -1041985.15245  24323175.127    24323184.661
  20901740.443     1179030.19849    914003.38148  20901739.976    20901745.131
  20195625.163    -1832421.10449  -1420506.85048  20195624.490    20195630.942
  22724254.044    -4866280.06649  -3497724.57546  22724253.577    22724260.340
 04  7 15 15 57 30.0000000  0  8G22G 3G21G19G 9G18G15G14
  20449123.717    -1132394.29149   -877088.13048  20449123.536    20449127.072
  21538663.549    -2006548.82349  -1550453.84947  21538663.244    21538669.760
  21376995.698     1617279.71549   1253851.70847  21376995.204    21377000.430
  23991750.619    -4567507.58949  -3539649.24046  23991749.687    23991755.474
  24311146.734    -1414493.40949  -1091239.72345  24311146.494    24311155.993
  20910441.818     1224756.01349    949633.86648  20910441.343    20910446.465
  20190441.561    -1859661.30349  -1441732.98948  20190440.879    20190447.334
  22704587.326    -4969629.12049  -3578256.23746  22704586.922    22704593.591
 04  7 15 15 58  0.0000000  0  8G22G 3G21G19G 9G18G15G14
  20447531.716    -1140760.40549   -883607.18448  20447531.538    20447535.079
  21533906.699    -2031546.58549  -1569932.64047  21533906.357    21533912.859
  21387593.308     1672970.10949   1297246.77147  21387592.807    21387598.048
  23974047.607    -4660537.56649  -3612140.12545  23974046.703    23974052.325
  24299183.998    -1477357.62449  -1140224.74045  24299183.695    24299193.376
  20919194.968     1270754.13549    985476.53848  20919194.523    20919199.626
  20185320.121    -1886574.58249  -1462704.38448  20185319.454    20185325.895
  22684967.276    -5072732.91149  -3658596.79246  22684966.905    22684973.509
 04  7 15 15 58 30.0000000  0  8G22G 3G21G19G 9G18G15G14
  20446007.610    -1148769.77349   -889848.25548  20446007.434    20446010.969
  21529256.117    -2055985.65849  -1588976.08747  21529255.766    21529262.237
  21398249.617     1728969.08749   1340882.29047  21398249.110    21398254.367
  23956394.551    -4753305.40749  -3684426.72745  23956393.584    23956399.195
  24287287.731    -1539872.94649  -1188937.89345  24287287.420    24287297.160
  20927999.677     1317022.93749   1021530.13448  20927999.228    20928004.304
  20180261.120    -1913159.97549  -1483420.27848  20180260.426    20180266.877
  22665394.413    -5175588.88349  -3738744.24246  22665394.024    22665400.607
 04  7 15 15 59  0.0000000  0  8G22G 3G21G19G 9G18G15G14
  20444551.274    -1156422.90449   -895811.73848  20444551.102    20444554.661
  21524711.997    -2079865.19849  -1607583.53547  21524711.652    21524718.139
  21408964.684     1785276.76849   1384758.35947  21408964.172    21408969.428
  23938791.629    -4845808.71349  -3756507.18645  23938790.680    23938796.372
  24275458.456    -1602036.32049  -1237376.78145  24275458.100    24275467.782
  20936855.637     1363560.93949   1057793.49548  20936855.157    20936860.226
  20175264.761    -1939416.04049  -1503879.55448  20175264.075    20175270.535
  22645869.192    -5278194.47049  -3818696.57946  22645868.731    22645875.354
 04  7 15 15 59 30.0000000  0  8G22G 3G21G19G 9G18G15G14
  20443162.594    -1163720.61349   -901498.26648  20443162.413    20443165.944
  21520274.535    -2103184.09349  -1625754.11647  21520274.204    21520280.701
  21419738.461     1841892.96449   1428874.82247  21419737.904    21419743.201
  23921239.754    -4938044.55849  -3828379.23345  23921238.741    23921244.494
  24263696.670    -1663844.37149  -1285538.78645  24263696.393    24263706.060
  20945762.488     1410366.84349   1094265.60948  20945762.001    20945767.104
  20170331.333    -1965341.53749  -1524081.24248  20170330.641    20170337.073
  22626392.127    -5380546.58349  -3898451.42146  22626391.735    22626398.351
 04  7 15 16  0  0.0000000  0  8G22G 3G21G19G 9G18G15G14
  20441841.432    -1170663.32749   -906908.17648  20441841.258    20441844.803
  21515944.041    -2125940.96049  -1643486.75347  21515943.732    21515950.202
  21430570.933     1898817.99949   1473231.94447  21430570.395    21430575.725
  23903739.229    -5030010.04049  -3900040.60246  23903738.306    23903743.960
  24252003.252    -1725293.64849  -1333421.24345  24252002.938    24252012.468
  20954720.118     1457439.69349   1130945.72848  20954719.689    20954724.817
  20165461.097    -1990934.94549  -1544024.15948  20165460.412    20165466.826
  22606963.910    -5482642.11049  -3978006.31746  22606963.515    22606970.164
 04  7 15 16  0 30.0000000  0  8G22G 3G21G19G 9G18G15G14
  20440587.598    -1177252.23249   -912042.38648  20440587.446    20440590.955
  21511720.622    -2148135.22749  -1660781.00247  21511720.296    21511726.799
  21441462.141     1956051.75149   1517829.62247  21441461.645    21441467.015
  23886290.702    -5121702.65049  -3971489.35646  23886289.796    23886295.389
  24240378.573    -1786381.23149  -1381021.88245  24240378.276    24240387.763
  20963728.269     1504777.77849   1167832.52948  20963727.833    20963732.998
  20160654.323    -2016194.93949  -1563707.27248  20160653.620    20160660.037
  22587584.926    -5584478.62949  -4057359.39346  22587584.621    22587591.261
 04  7 15 16  1  0.0000000  0  8G22G 3G21G19G 9G18G15G14
  20439400.645    -1183489.88549   -916902.89748  20439400.477    20439403.958
  21507604.119    -2169767.90749  -1677637.65147  21507603.796    21507610.243
  21452411.735     2013592.07849   1562666.18947  21452411.245    21452416.659
  23868894.333    -5213121.61049  -4042724.86546  23868893.389    23868899.005
  24228822.879    -1847105.90549  -1428339.70245  24228822.666    24228832.051
  20972786.319     1552378.13449   1204923.69247  20972785.912    20972791.070
  20155910.858    -2041122.01649  -1583130.97848  20155910.184    20155916.604
  22568255.583    -5686055.29249  -4136510.00746  22568255.212    22568261.808
 04  7 15 16  1 30.0000000  0  8G22G 3G21G19G 9G18G15G14
  20438280.787    -1189374.95549   -921488.67648  20438280.603    20438284.094
  21503594.953    -2190836.44949  -1694054.70647  21503594.611    21503601.074
  21463420.068     2071441.01649   1607743.23147  21463419.554    21463424.985
  23851550.758    -5304262.40649  -4113743.61946  23851549.766    23851555.381
  24217337.297    -1907462.82049  -1475371.00145  24217337.087    24217346.482
  20981894.281     1600240.68049   1242219.16447  20981893.877    20981899.029
  20151231.328    -2065713.18349  -1602292.92848  20151230.633    20151237.048
  22548976.495    -5787367.49349  -4215454.53746  22548976.119    22548982.665
 04  7 15 16  2  0.0000000  0  8G22G 3G21G19G 9G18G15G14
  20437227.734    -1194908.65849   -925800.65748  20437227.582    20437231.061
  21499693.273    -2211339.93549  -1710031.46747  21499692.952    21499699.417
  21474487.020     2129598.15749   1653060.42547  21474486.522    21474491.962
  23834260.724    -5395122.49549  -4184543.65346  23834259.705    23834265.277
  24205922.295    -1967448.92549  -1522113.35445  24205922.109    24205931.512
  20991051.936     1648364.19549   1279717.99147  20991051.507    20991056.668
  20146615.946    -2089967.30649  -1621192.24848  20146615.258    20146621.662
  22529748.075    -5888412.93149  -4294191.19846  22529747.731    22529754.283
 04  7 15 16  2 30.0000000  0  8G22G 3G21G19G 9G18G15G14
  20436241.443    -1200091.94249   -929839.58148  20436241.264    20436244.720
  21495899.173    -2231278.14449  -1725567.74547  21495898.849    21495905.323
  21485612.578     2188063.05349   1698617.43447  21485612.080    21485617.512
  23817024.338    -5485699.79149  -4255123.33646  23817023.418    23817028.910
  24194578.401    -2027061.39349  -1568564.54345  24194578.152    24194587.547
  21000258.890     1696746.91549   1317418.78947  21000258.454    21000263.637
  20142064.853    -2113883.47649  -1639828.22948  20142064.149    20142070.560
  22510571.017    -5989189.09649  -4372718.03746  22510570.626    22510577.136
 04  7 15 16  3  0.0000000  0  8G22G 3G21G19G 9G18G15G14
  20435321.445    -1204926.52749   -933606.79348  20435321.261    20435324.723
  21492212.662    -2250650.88349  -1740663.40247  21492212.361    21492218.864
  21496796.523     2246834.89349   1744413.61147  21496796.008    21496801.453
  23799842.216    -5575992.25949  -4325481.06946  23799841.363    23799846.785
  24183306.071    -2086297.80649  -1614722.70945  24183305.816    24183315.195
  21009514.738     1745386.81849   1355319.99047  21009514.316    21009519.510
  20137578.198    -2137461.04749  -1658200.37048  20137577.515    20137583.934
  22491445.590    -6089693.98249  -4451033.48946  22491445.176    22491451.664
 04  7 15 16  3 30.0000000  0  8G22G 3G21G19G 9G18G15G14
  20434467.954    -1209411.49749   -937101.58148  20434467.802    20434471.276
  21488634.226    -2269455.77549  -1755316.57747  21488633.908    21488640.448
  21508039.128     2305914.92549   1790449.93547  21508038.594    21508044.042
  23782715.129    -5665995.62349  -4395613.51346  23782714.250    23782719.711
  24172106.186    -2145153.43149  -1660584.16345  24172105.870    24172115.312
  21018819.606     1794284.29849   1393421.89847  21018819.204    21018824.448
  20133156.521    -2160697.01349  -1676306.32148  20133155.836    20133162.286
  22472372.625    -6189923.20149  -4529134.14046  22472372.171    22472378.659
 04  7 15 16  4  0.0000000  0  8G22G 3G21G19G 9G18G15G14
  20433680.683    -1213548.79349   -940325.45348  20433680.517    20433684.025
  21485163.727    -2287693.53249  -1769527.82947  21485163.431    21485169.903
  21519340.190     2365302.20749   1836725.68447  21519339.661    21519345.070
  23765643.349    -5755708.23149  -4465519.41946  23765642.448    23765647.892
  24160979.066    -2203626.54649  -1706147.55545  24160978.823    24160988.081
  21028172.985     1843436.51949   1431722.31047  21028172.589    21028177.845
  20128799.892    -2183591.20549  -1694145.95648  20128799.222    20128805.674
  22453352.355    -6289875.22649  -4607018.79446  22453351.888    22453358.382
 04  7 15 16  4 30.0000000  0  8G22G 3G21G19G 9G18G15G14
  20432959.379    -1217339.28649   -943279.08948  20432959.207    20432962.736
  21481801.317    -2305363.41149  -1783296.57747  21481800.999    21481807.472
  21530699.740     2424996.44449   1883240.62147  21530699.177    21530704.562
  23748627.420    -5845127.78249  -4535196.94346  23748626.488    23748631.992
  24149925.308    -2261714.04349  -1751410.47645  24149925.055    24149934.313
  21037574.556     1892841.87149   1470219.96447  21037574.160    21037579.405
  20124508.520    -2206142.50749  -1711718.40048  20124507.833    20124514.306
  22434385.292    -6389547.45049  -4684685.42746  22434384.858    22434391.338
 04  7 15 16  5  0.0000000  0  8G22G 3G21G19G 9G18G15G14
  20432303.958    -1220783.75349   -945963.09248  20432303.800    20432307.317
  21478547.032    -2322464.50949  -1796622.12347  21478546.751    21478553.241
  21542117.578     2484997.42649   1929994.59247  21542117.053    21542122.409
  23731667.786    -5934251.60449  -4604644.06546  23731666.819    23731672.184
  24138945.480    -2319412.99949  -1796370.61345  24138945.166    24138954.519
  21047024.143     1942499.41549   1508914.13347  21047023.739    21047028.935
  20120282.669    -2228349.48449  -1729022.54248  20120281.999    20120288.459
  22415471.988    -6488937.27949  -4762132.00946  22415471.552    22415478.099
 04  7 15 16  5 30.0000000  0  8G22G 3G21G19G 9G18G15G14
  20431714.266    -1223882.71149   -948377.86648  20431714.109    20431717.605
  21475401.194    -2338995.97649  -1809503.79747  21475400.889    21475407.415
  21553593.930     2545305.60949   1976987.93847  21553593.378    21553598.705
  23714764.797    -6023076.62249  -4673858.33546  23714763.911    23714769.353
  24128040.302    -2376719.92549  -1841025.25745  24128040.045    24128049.203
  21056521.512     1992408.11849   1547804.01247  21056521.074    21056526.233
  20116122.640    -2250210.58449  -1746057.16748  20116121.969    20116128.448
  22396613.020    -6588041.62449  -4839356.14146  22396612.588    22396619.150
 04  7 15 16  6  0.0000000  0  8G22G 3G21G19G 9G18G15G14
  20431190.070    -1226637.54549   -950524.49548  20431189.902    20431193.386
  21472363.812    -2354957.65049  -1821941.48147  21472363.502    21472370.052
  21565128.503     2605919.79049   2024219.72247  21565127.953    21565133.248
  23697919.271    -6111600.67549  -4742838.10246  23697918.332    23697923.766
  24117210.218    -2433632.32249  -1885372.49645  24117209.983    24117219.117
  21066066.231     2042565.80949   1586887.90647  21066065.816    21066070.935
  20112028.560    -2271725.09349  -1762821.72448  20112027.883    20112034.387
  22377808.884    -6686858.23349  -4916356.06346  22377808.406    22377814.933
 04  7 15 16  6 30.0000000  0  8G22G 3G21G19G 9G18G15G14
  20430731.233    -1229048.80849   -952403.40948  20430731.069    20430734.543
  21469435.011    -2370348.85549  -1833934.64147  21469434.689    21469441.238
  21576721.337     2666840.41349   2071690.29347  21576720.797    21576726.114
  23681131.449    -6199820.94049  -4811581.14346  23681130.505    23681136.063
  24106455.796    -2490146.81349  -1929409.66845  24106455.579    24106464.673
  21075658.182     2092971.63749   1626165.14847  21075657.736    21075662.870
  20108000.745    -2292891.35549  -1779314.92248  20108000.071    20108006.583
  22359059.879    -6785384.36749  -4993129.62646  22359059.416    22359066.027
 04  7 15 16  7  0.0000000  0  8G22G 3G21G19G 9G18G15G14
  20430337.513    -1231117.81149   -954015.63148  20430337.352    20430340.809
  21466614.838    -2385169.08849  -1845482.89547  21466614.522    21466621.062
  21588372.406     2728067.15849   2119399.39647  21588371.911    21588377.261
  23664401.883    -6287735.23849  -4880085.78446  23664401.006    23664406.483
  24095777.661    -2546260.67449  -1973134.65945  24095777.481    24095786.385
  21085296.982     2143623.72949   1665634.29047  21085296.533    21085301.683
  20104039.408    -2313708.35249  -1795535.95948  20104038.744    20104045.257
  22340366.648    -6883617.56449  -5069674.93546  22340366.276    22340372.879
 04  7 15 16  7 30.0000000  0  8G22G 3G21G19G 9G18G15G14
  20430008.818    -1232845.25849   -955361.69648  20430008.649    20430012.112
  21463903.407    -2399417.88549  -1856585.86647  21463903.059    21463909.635
  21600081.699     2789599.50549   2167346.63347  21600081.185    21600086.555
  23647731.109    -6375340.80349  -4948349.84546  23647730.187    23647735.709
  24085176.221    -2601971.15649  -2016545.34745  24085175.970    24085185.014
  21094982.440     2194520.95449   1705294.44547  21094981.988    21094987.152
  20100144.755    -2334175.04349  -1811484.03248  20100144.080    20100150.578
  22321729.756    -6981555.34049  -5145990.05246  22321729.328    22321735.902
 04  7 15 16  8  0.0000000  0  8G22G 3G21G19G 9G18G15G14
  20429744.981    -1234231.81449   -956442.13748  20429744.812    20429748.277
  21461300.787    -2413094.49949  -1867242.98447  21461300.461    21461307.063
  21611849.132     2851437.56549   2215532.07747  21611848.609    21611853.983
  23631119.565    -6462634.86649  -5016371.15046  23631118.597    23631124.301
  24074652.222    -2657275.07149  -2059639.21445  24074651.935    24074660.973
  21104714.264     2245661.70849   1745144.36447  21104713.781    21104718.950
  20096317.056    -2354289.95649  -1827157.99348  20096316.370    20096322.850
  22303149.567    -7079194.94049  -5222072.81546  22303149.111    22303155.690
 04  7 15 16  8 30.0000000  0  8G22G 3G21G19G 9G18G15G14
  20429545.780    -1235278.60049   -957257.82348  20429545.620    20429549.098
  21458807.106    -2426198.78049  -1877454.12947  21458806.797    21458813.427
  21623674.699     2913581.05749   2263955.53047  21623674.172    21623679.583
  23614567.819    -6549614.89249  -5084147.79946  23614566.905    23614572.411
  24064205.994    -2712169.84649  -2102414.26445  24064205.797    24064214.744
  21114492.116     2297044.73949   1785183.06947  21114491.662    21114496.826
  20092556.472    -2374051.93049  -1842556.94148  20092555.793    20092562.259
  22284626.613    -7176533.72249  -5297921.17746  22284626.145    22284632.741
 04  7 15 16  9  0.0000000  0  8G22G 3G21G19G 9G18G15G14
  20429411.070    -1235986.63349   -957809.53948  20429410.903    20429414.402
  21456422.427    -2438730.25349  -1887218.92747  21456422.128    21456428.836
  21635558.249     2976029.54149   2312616.62947  21635557.725    21635563.214
  23598076.354    -6636278.50349  -5151677.87546  23598075.322    23598080.906
  24053838.270    -2766652.28449  -2144868.01945  24053838.005    24053846.961
  21124315.882     2348668.65449   1825409.48147  21124315.431    21124320.567
  20088863.321    -2393459.74549  -1857679.91948  20088862.640    20088869.088
  22266161.282    -7273569.20149  -5373533.20246  22266160.828    22266167.461
 04  7 15 16  9 30.0000000  0  8G22G 3G21G19G 9G18G15G14
  20429340.650    -1236356.55549   -958097.79948  20429340.482    20429344.005
  21454146.890    -2450688.44349  -1896537.00647  21454146.593    21454153.281
  21647499.809     3038782.83049   2361515.24447  21647499.298    21647504.830
  23581645.535    -6722622.89849  -5218959.22146  23581644.597    23581650.079
  24043549.498    -2820719.60849  -2186998.27945  24043549.148    24043558.219
  21134185.237     2400532.15849   1865822.58647  21134184.758    21134189.857
  20085237.797    -2412512.04849  -1872525.87148  20085237.110    20085243.566
  22247754.190    -7370298.75449  -5448906.84446  22247753.800    22247760.406
 04  7 15 16 10  0.0000000  0  8G22G 3G21G19G 9G18G15G14
  20429334.359    -1236389.61649   -958123.56348  20429334.186    20429337.738
  21451980.505    -2462073.03749  -1905408.13847  21451980.203    21451986.877
  21659499.339     3101840.59449   2410651.11147  21659498.821    21659504.378
  23565275.995    -6808645.58649  -5285989.88146  23565275.020    23565280.482
  24033340.167    -2874369.10549  -2228802.99245  24033339.805    24033348.916
  21144099.851     2452633.78949   1906421.24947  21144099.395    21144104.481
  20081680.116    -2431207.78249  -1887093.97448  20081679.443    20081685.876
  22229405.934    -7466719.87949  -5524040.15046  22229405.493    22229412.083
 04  7 15 16 10 30.0000000  0  8G22G 3G21G19G 9G18G15G14
  20429391.986    -1236086.64649   -957887.48748  20429391.836    20429395.364
  21449923.298    -2472883.77249  -1913832.10247  21449923.007    21449929.661
  21671556.753     3165202.44649   2460023.93647  21671556.214    21671561.804
  23548968.104    -6894344.02849  -5352767.85646  23548967.060    23548972.692
  24023211.010    -2927598.15749  -2270280.08345  24023210.717    24023219.695
  21154059.474     2504971.90749   1947204.18047  21154059.040    21154064.112
  20078190.493    -2449546.01949  -1901383.51248  20078189.818    20078196.211
  22211116.740    -7562830.18449  -5598931.26046  22211116.294    22211122.842
 04  7 15 16 11  0.0000000  0  8G22G 3G21G19G 9G18G15G14
  20429513.553    -1235448.07649   -957389.90848  20429513.392    20429516.878
  21447975.539    -2483119.73349  -1921808.19147  21447975.226    21447981.796
  21683672.003     3228868.30149   2509633.64547  21683671.477    21683677.083
  23532722.437    -6979715.56449  -5419291.13046  23532721.465    23532726.911
  24013162.458    -2980403.27549  -2311426.84045  24013162.114    24013171.044
  21164063.903     2557545.47549   1988170.58347  21164063.484    21164068.568
  20074769.228    -2467524.86749  -1915393.01148  20074768.557    20074774.935
  22192887.323    -7658626.45949  -5673577.67846  22192886.825    22192893.352
 04  7 15 16 11 30.0000000  0  8G22G 3G21G19G 9G18G15G14
  20429698.779    -1234475.06849   -956631.72448  20429698.574    20429702.050
  21446137.094    -2492780.90149  -1929336.38747  21446136.788    21446143.332
  21695845.137     3292838.13049   2559480.21247  21695844.599    21695850.203
  23516539.453    -7064757.54549  -5485557.58646  23516538.469    23516544.020
  24003195.076    -3032781.97949  -2352241.30845  24003194.784    24003203.763
  21174112.857     2610352.96749   2029319.25647  21174112.387    21174117.503
  20071416.602    -2485143.26249  -1929121.63648  20071415.918    20071422.302
  22174718.010    -7754106.67449  -5747977.81346  22174717.513    22174724.032
 04  7 15 16 12  0.0000000  0  8G22G 3G21G19G 9G18G15G14
  20429947.377    -1233168.62849   -955613.72748  20429947.192    20429950.665
  21444408.095    -2501866.85449  -1936416.36747  21444407.805    21444414.342
  21708076.078     3357111.62149   2609563.40247  21708075.502    21708081.121
  23500419.708    -7149467.47649  -5551565.32346  23500418.679    23500424.222
  23993309.565    -3084731.15649  -2392721.12245  23993309.247    23993318.140
  21184206.060     2663393.02849   2070649.15247  21184205.590    21184210.720
  20068132.773    -2502400.00349  -1942568.45448  20068132.081    20068138.489
  22156609.348    -7849268.13249  -5822129.57146  22156608.869    22156615.392
 04  7 15 16 12 30.0000000  0  8G22G 3G21G19G 9G18G15G14
  20430259.165    -1231530.26449   -954337.08548  20430258.966    20430262.474
  21442788.534    -2510377.86049  -1943048.34247  21442788.237    21442794.782
  21720364.522     3421687.60249   2659882.29247  21720363.985    21720369.577
  23484363.489    -7233843.48549  -5617312.83546  23484362.454    23484368.040
  23983505.988    -3136248.87649  -2432864.73445  23983505.734    23983514.581
  21194343.210     2716664.04549   2112159.01747  21194342.752    21194347.906
  20064917.846    -2519294.46749  -1955732.97648  20064917.157    20064923.586
  22138561.645    -7944109.00449  -5896031.51847  22138561.203    22138567.732
 04  7 15 16 13  0.0000000  0  8G22G 3G21G19G 9G18G15G14
  20430634.113    -1229559.69449   -952801.58348  20430633.936    20430637.463
  21441278.602    -2518312.56649  -1949231.24947  21441278.342    21441284.912
  21732710.746     3486567.15849   2710437.73747  21732710.208    21732715.798
  23468371.425    -7317881.88649  -5682797.29146  23468370.395    23468375.915
  23973785.362    -3187330.83449  -2472668.78345  23973785.114    23973793.936
  21204524.171     2770165.45549   2153848.40847  21204523.724    21204528.897
  20061772.317    -2535824.36049  -1968613.41548  20061771.644    20061778.074
  22120575.790    -8038625.46649  -5969680.67747  22120575.304    22120581.833
 04  7 15 16 13 30.0000000  0  8G22G 3G21G19G 9G18G15G14
  20431072.045    -1227258.55549   -951008.49448  20431071.873    20431075.392
  21439878.310    -2525671.36349  -1954965.39647  21439878.021    21439884.592
  21745114.545     3551749.12849   2761228.82447  21745113.981    21745119.562
  23452444.083    -7401580.78949  -5748017.21446  23452443.061    23452448.576
  23964148.031    -3237975.16649  -2512131.84245  23964147.786    23964156.635
  21214748.547     2823895.05849   2195715.61447  21214748.135    21214753.308
  20058696.265    -2551989.24449  -1981209.43348  20058695.584    20058701.995
  22102651.974    -8132815.75549  -6043075.68047  22102651.503    22102657.995
 04  7 15 16 14  0.0000000  0  8G22G 3G21G19G 9G18G15G14
  20431572.780    -1224627.33649   -948958.19748  20431572.597    20431576.114
  21438587.709    -2532453.53849  -1960250.23047  21438587.425    21438593.991
  21757575.918     3617233.92649   2812255.87947  21757575.354    21757580.980
  23436581.842    -7484937.06349  -5812970.13046  23436580.882    23436586.461
  23954594.541    -3288178.44849  -2551251.20645  23954594.360    23954603.129
  21225016.322     2877852.36249   2237760.24847  21225015.897    21225021.055
  20055690.019    -2567787.15749  -1993519.49748  20055689.315    20055695.776
  22084790.808    -8226676.70749  -6116214.05547  22084790.308    22084796.790
 04  7 15 16 14 30.0000000  0  8G22G 3G21G19G 9G18G15G14
  20432135.991    -1221667.67949   -946651.97548  20432135.817    20432139.318
  21437406.744    -2538659.83349  -1965086.32247  21437406.432    21437412.998
  21770094.701     3683020.45649   2863518.06447  21770094.157    21770099.786
  23420785.215    -7567948.85449  -5877654.63246  23420784.308    23420789.814
  23945125.337    -3337938.64249  -2590025.37345  23945125.215    23945133.932
  21235327.009     2932035.32149   2279980.71947  21235326.579    21235331.753
  20052753.661    -2583217.79249  -2005543.37048  20052752.988    20052759.444
  22066992.541    -8320206.61949  -6189094.47147  22066992.129    22066998.643
 04  7 15 16 15  0.0000000  0  8G22G 3G21G19G 9G18G15G14
  20432761.465    -1218380.65449   -944090.66648  20432761.304    20432764.817
  21436335.399    -2544289.87849  -1969473.39147  21436335.114    21436341.655
  21782670.905     3749108.57449   2915015.24947  21782670.351    21782675.996
  23405054.611    -7650613.68149  -5942068.76246  23405053.708    23405059.235
  23935741.135    -3387253.16649  -2628452.20845  23935740.951    23935749.561
  21245680.324     2986442.28349   2322375.72947  21245679.882    21245685.047
  20049887.425    -2598280.04649  -2017280.19748  20049886.752    20049893.200
  22049257.837    -8413402.94949  -6261714.95647  22049257.417    22049263.990
 04  7 15 16 15 30.0000000  0  8G22G 3G21G19G 9G18G15G14
  20433449.181    -1214766.70049   -941274.60548  20433449.028    20433452.551
  21435373.743    -2549343.61449  -1973411.39147  21435373.440    21435379.999
  21795304.385     3815497.88449   2966747.12547  21795303.865    21795309.488
  23389390.638    -7732928.73649  -6006210.36146  23389389.652    23389395.127
  23926442.173    -3436119.12349  -2666529.53345  23926442.019    23926450.771
  21256076.086     3041072.27149   2364944.53147  21256075.645    21256080.835
  20047091.568    -2612972.39049  -2028728.78048  20047090.878    20047097.333
  22031587.155    -8506262.95749  -6334073.37047  22031586.750    22031593.289
 04  7 15 16 16  0.0000000  0  8G22G 3G21G19G 9G18G15G14
  20434198.898    -1210826.94749   -938204.67548  20434198.739    20434202.257
  21434521.792    -2553820.62249  -1976899.98347  21434521.519    21434528.117
  21807995.158     3882188.15349   3018713.51847  21807994.629    21808000.248
  23373793.686    -7814891.31049  -6070077.27246  23373792.680    23373798.213
  23917229.132    -3484533.43649  -2704254.90745  23917228.976    23917237.752
  21266514.096     3095924.20349   2407686.27547  21266513.659    21266518.834
  20044366.371    -2627293.51649  -2039888.10448  20044365.684    20044372.133
  22013981.024    -8598784.07649  -6406167.72247  22013980.568    22013987.097
 04  7 15 16 16 30.0000000  0  8G22G 3G21G19G 9G18G15G14
  20435010.362    -1206562.64449   -934881.85248  20435010.207    20435013.715
  21433779.632    -2557720.97349  -1979939.23647  21433779.333    21433785.904
  21820743.066     3949178.36149   3070913.63847  21820742.514    21820748.111
  23358264.192    -7896499.38349  -6133667.96646  23358263.171    23358268.621
  23908102.547    -3532493.99649  -2741626.74945  23908102.405    23908111.165
  21276993.980     3150996.16749   2450599.47447  21276993.554    21276998.725
  20041711.921    -2641242.78849  -2050757.66848  20041711.222    20041717.674
  21996439.729    -8690964.45549  -6477996.55847  21996439.272    21996445.727
 04  7 15 16 17  0.0000000  0  8G22G 3G21G19G 9G18G15G14
  20435883.416    -1201974.56749   -931306.74148  20435883.252    20435886.788
  21433147.217    -2561044.55149  -1982529.05847  21433146.911    21433153.463
  21833547.987     4016468.51549   3123347.46347  21833547.459    21833553.049
  23342802.661    -7977750.28349  -6196980.33546  23342801.664    23342807.165
  23899062.860    -3579997.98949  -2778642.83045  23899062.633    23899071.258
  21287515.542     3206287.18049   2493683.35347  21287515.100    21287520.303
  20039128.483    -2654818.72349  -2061336.31948  20039127.791    20039134.271
  21978963.744    -8782801.42649  -6549557.80447  21978963.270    21978969.707
 04  7 15 16 17 30.0000000  0  8G22G 3G21G19G 9G18G15G14
  20436817.970    -1197063.59949   -927480.02048  20436817.805    20436821.332
  21432624.522    -2563791.55949  -1984669.60447  21432624.203    21432630.756
  21846409.980     4084058.62549   3176015.02647  21846409.455    21846414.996
  23327409.590    -8058641.50549  -6260012.43046  23327408.562    23327414.143
  23890110.553    -3627042.72249  -2815301.01945  23890110.301    23890118.819
  21298078.412     3261795.52649   2536936.58147  21298077.997    21298083.238
  20036616.332    -2668020.13049  -2071623.12848  20036615.640    20036622.151
  21961553.551    -8874292.43849  -6620849.47347  21961553.103    21961559.513
 04  7 15 16 18  0.0000000  0  8G22G 3G21G19G 9G18G15G14
  20437813.965    -1191829.70149   -923401.66248  20437813.806    20437817.319
  21432211.707    -2565960.74649  -1986359.89747  21432211.429    21432217.975
  21859329.145     4151949.01449   3228916.58347  21859328.632    21859334.130
  23312085.570    -8139169.40349  -6322761.42846  23312084.640    23312090.096
  23881246.270    -3673624.36549  -2851598.37545  23881246.077    23881254.630
  21308682.619     3317521.10249   2580359.08047  21308682.206    21308687.495
  20034175.883    -2680844.73349  -2081616.32748  20034175.209    20034181.724
  21944209.808    -8965434.04349  -6691868.86647  21944209.390    21944215.814
 04  7 15 16 18 30.0000000  0  8G22G 3G21G19G 9G18G15G14
  20438871.037    -1186275.04449   -919073.37048  20438870.874    20438874.380
  21431908.698    -2567553.17549  -1987600.76847  21431908.438    21431914.979
  21872305.181     4220138.16349   3282050.93747  21872304.579    21872310.131
  23296830.966    -8219332.56049  -6385226.19846  23296830.040    23296835.531
  23872470.517    -3719741.51849  -2887533.78145  23872470.234    23872478.869
  21319327.764     3373461.47849   2623948.95047  21319327.337    21319332.643
  20031807.145    -2693292.60649  -2091315.97548  20031806.469    20031812.985
  21926932.851    -9056224.71849  -6762614.81747  21926932.470    21926938.862
 04  7 15 16 19  0.0000000  0  8G22G 3G21G19G 9G18G15G14
  20439989.034    -1180400.03249   -914495.44448  20439988.870    20439992.366
  21431715.588    -2568568.40449  -1988391.87647  21431715.292    21431721.815
  21885338.041     4288626.32749   3335418.27247  21885337.436    21885343.114
  23281646.304    -8299128.09749  -6447404.51346  23281645.412    23281650.898
  23863783.544    -3765391.13649  -2923104.88645  23863783.337    23863792.000
  21330013.622     3429615.98749   2667705.67947  21330013.209    21330018.526
  20029510.406    -2705362.10249  -2100720.78348  20029509.729    20029516.240
  21909723.219    -9146661.72149  -6833085.17747  21909722.815    21909729.198
 04  7 15 16 19 30.0000000  0  8G22G 3G21G19G 9G18G15G14
  20441167.677    -1174206.28549   -909669.15748  20441167.504    20441170.995
  21431632.067    -2569007.44449  -1988734.00247  21431631.770    21431638.221
  21898427.594     4357412.46249   3389017.77947  21898427.015    21898432.764
  23266532.089    -8378554.07549  -6509294.86246  23266531.126    23266536.687
  23855186.049    -3810571.14549  -2958310.07745  23855185.899    23855194.413
  21340739.910     3485982.68749   2711627.74947  21340739.493    21340744.822
  20027285.791    -2717052.57449  -2109830.24348  20027285.119    20027291.610
  21892581.245    -9236743.22849  -6903278.52947  21892580.852    21892587.245
 04  7 15 16 20  0.0000000  0  8G22G 3G21G19G 9G18G15G14
  20442406.972    -1167693.98149   -904594.64548  20442406.796    20442410.275
  21431658.388    -2568869.30249  -1988626.38247  21431658.062    21431664.525
  21911573.914     4426497.00949   3442849.82846  21911573.363    21911579.222
  23251488.691    -8457607.30749  -6570894.76646  23251487.770    23251493.303
  23846678.411    -3855278.27149  -2993146.78445  23846678.278    23846686.965
  21351506.433     3542561.00749   2755714.71747  21351505.980    21351511.335
  20025133.630    -2728362.28149  -2118643.00648  20025132.949    20025139.455
  21875507.572    -9326466.06949  -6973192.39547  21875507.132    21875513.557
 04  7 15 16 20 30.0000000  0  8G22G 3G21G19G 9G18G15G14
  20443706.554    -1160864.77249   -899273.18948  20443706.376    20443709.819
  21431794.388    -2568154.80649  -1988069.65247  21431794.038    21431800.497
  21924776.827     4495878.59349   3496913.33947  21924776.303    21924782.186
  23236516.710    -8536285.84849  -6632202.69946  23236515.765    23236521.269
  23838261.281    -3899510.69349  -3027613.55245  23838261.095    23838269.952
  21362312.773     3599348.62649   2799964.78247  21362312.339    21362317.700
  20023053.996    -2739290.78349  -2127158.72748  20023053.309    20023059.817
  21858502.449    -9415828.58949  -7042825.49647  21858502.004    21858508.416
 04  7 15 16 21  0.0000000  0  8G22G 3G21G19G 9G18G15G14
  20445066.275    -1153719.44349   -893705.41048  20445066.095    20445069.541
  21432040.056    -2566863.70849  -1987063.62347  21432039.728    21432046.218
  21938036.298     4565557.11949   3551208.23747  21938035.754    21938041.677
  23221616.403    -8614587.03649  -6693216.60046  23221615.520    23221620.957
  23829935.061    -3943265.62349  -3061708.28845  23829934.839    23829943.555
  21373158.847     3656345.01849   2844377.52447  21373158.410    21373163.781
  20021047.203    -2749836.55549  -2135376.21648  20021046.518    20021053.057
  21841566.335    -9504828.21849  -7112175.82247  21841565.918    21841572.316
 04  7 15 16 21 30.0000000  0  8G22G 3G21G19G 9G18G15G14
  20446485.975    -1146258.86849   -887891.98348  20446485.802    20446489.254
  21432395.489    -2564995.98449  -1985608.27647  21432395.152    21432401.679
  21951352.192     4635532.31249   3605734.30647  21951351.665    21951357.584
  23206788.483    -8692508.38549  -6753934.52046  23206787.605    23206793.064
  23821700.229    -3986540.38049  -3095428.85245  23821699.990    23821708.482
  21384044.438     3713549.07149   2888952.07847  21384043.994    21384049.362
  20019113.485    -2759998.23749  -2143294.41248  20019112.817    20019119.320
  21824699.855    -9593462.19849  -7181241.23247  21824699.435    21824705.800
 04  7 15 16 22  0.0000000  0  8G22G 3G21G19G 9G18G15G14
  20447965.406    -1138484.48649   -881834.02948  20447965.228    20447968.678
  21432860.478    -2562552.42649  -1983704.22347  21432860.150    21432866.690
  21964724.514     4705803.46149   3660490.97847  21964723.928    21964729.871
  23192033.173    -8770047.83249  -6814354.84046  23192032.310    23192037.830
  23813556.924    -4029332.71949  -3128773.49145  23813556.758    23813565.371
  21394969.149     3770958.56649   2933686.72047  21394968.691    21394974.033
  20017253.054    -2769774.98049  -2150912.65648  20017252.384    20017258.868
  21807903.289    -9681728.65849  -7250020.25447  21807902.873    21807909.215
 04  7 15 16 22 30.0000000  0  8G22G 3G21G19G 9G18G15G14
  20449504.527    -1130396.47249   -875531.68748  20449504.353    20449507.797
  21433435.172    -2559532.52149  -1981351.07447  21433434.832    21433441.413
  21978153.014     4776370.59649   3715478.29147  21978152.432    21978158.374
  23177351.198    -8847202.11949  -6874475.05446  23177350.274    23177355.786
  23805506.210    -4071639.55849  -3161739.82245  23805506.001    23805514.645
  21405932.801     3828572.97849   2978581.03347  21405932.381    21405937.690
  20015466.139    -2779165.39449  -2158229.87148  20015465.452    20015471.941
  21791177.179    -9769624.81749  -7318510.72947  21791176.752    21791183.147
 04  7 15 16 23  0.0000000  0  8G22G 3G21G19G 9G18G15G14
  20451103.036    -1121996.19349   -868986.02348  20451102.856    20451106.327
  21434119.353    -2555936.91549  -1978549.32547  21434119.038    21434125.671
  21991637.789     4847232.90449   3770695.61747  21991637.167    21991643.086
  23162742.889    -8923969.07349  -6934293.44846  23162741.977    23162747.443
  23797548.368    -4113458.89449  -3194326.26745  23797548.061    23797556.694
  21416935.195     3886390.92349   3023633.95347  21416934.765    21416940.072
  20013752.913    -2788168.60349  -2165245.36548  20013752.228    20013758.680
  21774522.016    -9857148.38549  -7386710.88447  21774521.582    21774527.908
 04  7 15 16 23 30.0000000  0  8G22G 3G21G19G 9G18G15G14
  20452760.766    -1113284.65049   -862197.81248  20452760.608    20452764.059
  21434913.121    -2551765.74149  -1975299.08447  21434912.809    21434919.420
  22005178.569     4918390.19049   3826142.78447  22005178.003    22005183.881
  23148208.689    -9000346.40749  -6993808.24146  23148207.789    23148213.184
  23789683.587    -4154788.28649  -3226530.95945  23789683.305    23789691.862
  21427976.122     3944411.24749   3068844.56047  21427975.701    21427981.002
  20012113.629    -2796783.29149  -2171958.11548  20012112.942    20012119.390
  21757938.144    -9944297.09149  -7454618.93147  21757937.713    21757944.030
 04  7 15 16 24  0.0000000  0  8G22G 3G21G19G 9G18G15G14
  20454477.595    -1104262.60449   -855167.65348  20454477.440    20454480.912
  21435816.390    -2547019.17449  -1971600.48047  21435816.083    21435822.693
  22018775.473     4989841.96849   3881819.43346  22018774.909    22018780.767
  23133749.278    -9076331.44949  -7053017.34646  23133748.339    23133753.827
  23781912.568    -4195625.15449  -3258351.86145  23781912.235    23781920.823
  21439055.331     4002632.74949   3114211.92847  21439054.911    21439060.213
  20010548.488    -2805008.32249  -2178367.24248  20010547.806    20010554.250
  21741426.082   -10031068.46549  -7522232.96347  21741425.664    21741431.963
 04  7 15 16 24 30.0000000  0  8G22G 3G21G19G 9G18G15G14
  20456253.287    -1094931.51949   -847896.68448  20456253.121    20456256.594
  21436829.000    -2541697.93549  -1967454.08347  21436828.692    21436835.314
  22032428.179     5061587.57449   3937725.04146  22032427.628    22032433.477
  23119364.826    -9151922.14949  -7111919.16446  23119363.847    23119369.356
  23774235.541    -4235967.44749  -3289787.38345  23774235.318    23774243.959
  21450172.426     4061053.40649   3159734.48647  21450172.005    21450177.313
  20009057.577    -2812843.09849  -2184472.27048  20009056.878    20009063.351
  21724986.209   -10117460.65049  -7589551.50947  21724985.775    21724992.015
 04  7 15 16 25  0.0000000  0  8G22G 3G21G19G 9G18G15G14
  20458087.599    -1085292.00349   -840385.38448  20458087.411    20458090.916
  21437951.048    -2535801.69549  -1962859.63347  21437950.716    21437957.365
  22046136.754     5133626.57549   3993859.27146  22046136.217    22046142.093
  23105056.020    -9227115.63149  -7170511.50046  23105055.073    23105060.454
  23766653.478    -4275812.07549  -3320835.11645  23766653.159    23766661.859
  21461327.341     4119672.70049   3205411.82647  21461326.923    21461332.228
  20007641.217    -2820285.89249  -2190271.85948  20007640.539    20007647.026
  21708618.965   -10203470.83949  -7656572.40047  21708618.536    21708624.794
 04  7 15 16 25 30.0000000  0  8G22G 3G21G19G 9G18G15G14
  20459980.495    -1075344.83749   -832634.34848  20459980.310    20459983.815
  21439182.506    -2529330.58549  -1957817.22847  21439182.183    21439188.846
  22059901.258     5205958.92749   4050222.09646  22059900.659    22059906.542
  23090823.255    -9301909.29249  -7228792.25546  23090822.237    23090827.668
  23759166.450    -4315156.57049  -3351493.13745  23759166.172    23759174.862
  21472519.825     4178489.51049   3251243.07247  21472519.414    21472524.740
  20006299.781    -2827335.42349  -2195765.00548  20006299.107    20006305.572
  21692324.862   -10289096.64449  -7723293.76447  21692324.416    21692330.704
 04  7 15 16 26  0.0000000  0  8G22G 3G21G19G 9G18G15G14
  20461931.433    -1065092.70449   -824645.68248  20461931.240    20461934.745
  21440523.009    -2522286.61849  -1952328.44947  21440522.675    21440529.302
  22073720.990     5278582.64249   4106811.93846  22073720.481    22073726.444
  23076666.704    -9376302.45049  -7286760.95546  23076665.687    23076671.040
  23751774.699    -4354000.37649  -3381761.01545  23751774.509    23751783.303
  21483749.362     4237500.83349   3297225.87847  21483748.950    21483754.266
  20005033.090    -2833992.16949  -2200952.09348  20005032.384    20005038.865
  21676104.033   -10374337.30449  -7789715.02047  21676103.606    21676109.895
 04  7 15 16 26 30.0000000  0  8G22G 3G21G19G 9G18G15G14
  20463940.521    -1054534.78849   -816418.74348  20463940.349    20463943.826
  21441972.662    -2514668.82549  -1946392.52947  21441972.321    21441978.941
  22087596.530     5351498.65949   4163629.55246  22087596.015    22087601.982
  23062587.106    -9450290.99549  -7344414.33646  23062586.153    23062591.593
  23744479.037    -4392339.44049  -3411635.60145  23744478.879    23744487.580
  21495016.067     4296707.31549   3343360.76347  21495015.630    21495020.930
  20003841.518    -2840253.64049  -2205831.16848  20003840.839    20003847.322
  21659957.306   -10459189.08249  -7855833.26047  21659956.864    21659963.067
 04  7 15 16 27  0.0000000  0  8G22G 3G21G19G 9G18G15G14
  20466007.665    -1043672.14249   -807954.35348  20466007.488    20466010.925
  21443531.449    -2506477.59449  -1940009.77547  21443531.122    21443537.716
  22101527.555     5424706.49849   4220674.56846  22101527.031    22101533.006
  23048585.016    -9523872.50949  -7401750.56946  23048584.067    23048589.513
  23737279.906    -4430171.45449  -3441115.04945  23737279.744    23737288.413
  21506319.663     4356107.63449   3389646.69247  21506319.205    21506324.511
  20002725.476    -2846118.60349  -2210401.27848  20002724.802    20002731.274
  21643885.000   -10543649.45849  -7921646.49847  21643884.571    21643890.743
 04  7 15 16 27 30.0000000  0  8G22G 3G21G19G 9G18G15G14
  20468132.461    -1032506.53549   -799253.89048  20468132.267    20468135.711
  21445199.144    -2497713.83249  -1933180.89847  21445198.838    21445205.363
  22115513.893     5498204.91549   4277945.99746  22115513.339    22115519.353
  23034660.749    -9597045.40949  -7458768.40546  23034659.787    23034665.181
  23730177.395    -4467494.65949  -3470198.03745  23730177.141    23730185.880
  21517659.745     4415700.05549   3436082.30047  21517659.294    21517664.615
  20001684.986    -2851586.65049  -2214662.10148  20001684.302    20001690.749
  21627887.513   -10627716.88749  -7987153.53847  21627887.065    21627893.237
 04  7 15 16 28  0.0000000  0  8G22G 3G21G19G 9G18G15G14
  20470314.953    -1021037.46549   -790316.96148  20470314.756    20470318.225
  21446976.014    -2488376.57149  -1925905.13947  21446975.688    21446982.221
  22129555.666     5571994.87649   4335444.60246  22129555.167    22129561.221
  23020814.805    -9669805.83749  -7515464.81646  23020813.862    23020819.380
  23723172.354    -4504305.61449  -3498881.87445  23723172.170    23723180.951
  21529036.392     4475484.46449   3482667.51447  21529035.939    21529041.224
  20000720.439    -2856655.46949  -2218611.84048  20000719.750    20000726.208
  21611965.452   -10711387.81149  -8052351.62447  21611965.008    21611971.118
 04  7 15 16 28 30.0000000  0  8G22G 3G21G19G 9G18G15G14
  20472554.594    -1009268.02549   -781145.97448  20472554.396    20472557.888
  21448861.448    -2478468.44549  -1918184.54947  21448861.122    21448867.693
  22143652.541     5646073.65549   4393168.26946  22143652.008    22143657.986
  23007047.577    -9742153.37049  -7571839.50346  23007046.623    23007052.090
  23716265.053    -4540604.03449  -3527166.33345  23716264.841    23716273.644
  21540448.980     4535457.91249   3529400.03847  21540448.548    21540453.810
  19999831.642    -2861326.03149  -2222251.24748  19999830.955    19999837.440
  21596118.881   -10794662.11549  -8117240.64947  21596118.448    21596124.516
 04  7 15 16 29  0.0000000  0  8G22G 3G21G19G 9G18G15G14
  20474851.312     -997198.64549   -771741.27148  20474851.135    20474854.604
  21450855.512    -2467989.65349  -1910019.28047  21450855.182    21450861.776
  22157804.313     5720441.42149   4451117.11146  22157803.802    22157809.775
  22993359.340    -9814085.13149  -7627890.19346  22993358.379    22993363.918
  23709455.850    -4576387.16049  -3555049.29045  23709455.626    23709464.278
  21551897.419     4595619.52749   3576279.16747  21551896.972    21551902.237
  19999019.019    -2865596.42749  -2225578.83748  19999018.358    19999024.855
  21580348.312   -10877536.87949  -8181818.34947  21580347.876    21580353.887
 04  7 15 16 29 30.0000000  0  8G22G 3G21G19G 9G18G15G14
  20477205.164     -984829.20049   -762102.74448  20477204.976    20477208.440
  21452958.299    -2456939.37649  -1901408.70047  21452957.966    21452964.602
  22172011.147     5795098.69249   4509291.55046  22172010.646    22172016.630
  22979750.890    -9885597.77449  -7683614.31746  22979749.980    22979755.488
  23702745.220    -4611651.66249  -3582528.09945  23702744.991    23702753.663
  21563381.597     4655969.14949   3623304.81047  21563381.132    21563386.419
  19998282.975    -2869464.70449  -2228593.08748  19998282.287    19998288.775
  21564654.378   -10960009.05449  -8246082.33947  21564653.931    21564659.909
 04  7 15 16 30  0.0000000  0  8G22G 3G21G19G 9G18G15G14
  20479615.845     -972161.05849   -752231.46748  20479615.627    20479619.099
  21455169.735    -2445318.38249  -1892353.40147  21455169.395    21455176.056
  22186272.920     5870044.69649   4567690.95546  22186272.423    22186278.485
  22966222.739    -9956689.03149  -7739010.07946  22966221.795    22966227.287
  23696133.547    -4646395.50249  -3609601.23145  23696133.378    23696142.128
  21574901.257     4716505.46249   3670475.92547  21574900.837    21574906.110
  19997623.576    -2872929.90549  -2231293.25648  19997622.894    19997629.351
  21549037.468   -11042076.34049  -8310030.83447  21549037.022    21549043.023
 04  7 15 16 30 30.0000000  0  8G22G 3G21G19G 9G18G15G14
  20482083.181     -959195.07349   -742128.11248  20482082.989    20482086.455
  21457489.619    -2433127.51249  -1882854.05447  21457489.299    21457495.920
  22200589.529     5945278.56449   4626314.66946  22200589.052    22200595.115
  22952775.033   -10027356.69749  -7794075.76146  22952774.075    22952779.669
  23689621.554    -4680616.47949  -3636266.92345  23689621.357    23689630.033
  21586456.213     4777227.15749   3717791.49047  21586455.778    21586461.112
  19997041.000    -2875991.38849  -2233678.84048  19997040.317    19997046.761
  21533497.876   -11123736.98149  -8373662.45947  21533497.450    21533503.457
 04  7 15 16 31  0.0000000  0  8G22G 3G21G19G 9G18G15G14
  20484606.850     -945933.26149   -731794.23748  20484606.642    20484610.114
  21459917.676    -2420368.14449  -1872911.71547  21459917.348    21459923.980
  22214960.686     6020798.99249   4685161.70146  22214960.173    22214966.231
  22939408.353   -10097599.43849  -7848810.34946  22939407.438    22939412.899
  23683209.310    -4714313.59149  -3662524.43245  23683209.115    23683217.653
  21598046.063     4838132.11449   3765249.85747  21598045.624    21598050.969
  19996535.303    -2878648.93449  -2235749.66748  19996534.607    19996541.071
  21518036.037   -11204989.49549  -8436976.06347  21518035.584    21518041.572
 04  7 15 16 31 30.0000000  0  8G22G 3G21G19G 9G18G15G14
  20487186.611     -932376.52849   -721230.55348  20487186.416    20487189.925
  21462453.830    -2407040.60849  -1862526.64247  21462453.503    21462460.169
  22229386.230     6096605.62949   4744231.73946  22229385.706    22229391.832
  22926122.934   -10167414.72549  -7903211.84146  22926121.976    22926127.491
  23676897.084    -4747484.48549  -3688371.88545  23676896.846    23676905.540
  21609670.593     4899219.51949   3812850.39247  21609670.176    21609675.531
  19996106.667    -2880901.47949  -2237504.90348  19996105.984    19996112.460
  21502652.250   -11285831.64449  -8499969.89547  21502651.834    21502657.835
 04  7 15 16 32  0.0000000  0  8G22G 3G21G19G 9G18G15G14
  20489822.367     -918525.40749   -710437.47848  20489822.171    20489825.700
  21465098.035    -2393145.18349  -1851699.07047  21465097.702    21465104.412
  22243866.207     6172698.26149   4803524.62946  22243865.692    22243871.816
  22912919.437   -10236799.56849  -7957277.93646  22912918.466    22912923.984
  23670685.405    -4780126.41449  -3713807.17845  23670685.106    23670694.019
  21621329.704     4960488.46049   3860592.38247  21621329.295    21621334.661
  19995755.445    -2882747.26449  -2238943.18748  19995754.757    19995761.225
  21487347.068   -11366260.76349  -8562641.88947  21487346.659    21487352.646
 04  7 15 16 32 30.0000000  0  8G22G 3G21G19G 9G18G15G14
  20492513.997     -904380.82249   -699415.73148  20492513.788    20492517.323
  21467850.225    -2378682.31949  -1840429.33347  21467849.897    21467856.628
  22258400.491     6249076.13649   4863039.77946  22258399.981    22258406.149
  22899798.293   -10305751.84249  -8011006.96146  22899797.331    22899802.796
  23664574.928    -4812237.16149  -3738828.54745  23664574.647    23664583.556
  21633023.170     5021937.74549   3908474.89947  21633022.740    21633028.122
  19995481.782    -2884185.20449  -2240063.67048  19995481.107    19995487.586
  21472120.934   -11446274.67549  -8624990.34547  21472120.510    21472126.479
 04  7 15 16 33  0.0000000  0  8G22G 3G21G19G 9G18G15G14
  20495261.325     -889943.68149   -688166.01848  20495261.126    20495264.634
  21470710.171    -2363652.85449  -1828718.08447  21470709.897    21470716.676
  22272988.958     6325738.96849   4922776.97446  22272988.441    22272994.636
  22886759.767   -10374269.38249  -8064397.22946  22886758.856    22886764.304
  23658565.809    -4843814.86449  -3763434.56545  23658565.516    23658574.453
  21644750.668     5083566.08449   3956496.94147  21644750.261    21644755.657
  19995285.915    -2885214.45149  -2240865.69048  19995285.232    19995291.724
  21456974.210   -11525871.35649  -8687013.68747  21456973.756    21456979.713
 04  7 15 16 33 30.0000000  0  8G22G 3G21G19G 9G18G15G14
  20498063.980     -875215.75149   -676689.71448  20498063.776    20498067.268
  21473677.830    -2348058.14449  -1816566.38947  21473677.522    21473684.294
  22287631.501     6402685.37149   4982735.13946  22287630.924    22287637.118
  22873804.452   -10442350.30549  -8117447.28446  22873803.505    22873808.904
  23652658.637    -4874858.01649  -3787624.03445  23652658.424    23652667.197
  21656512.035     5145372.06649   4004657.39847  21656511.609    21656516.972
  19995167.921    -2885834.60449  -2241348.93248  19995167.244    19995173.733
  21441907.024   -11605049.48049  -8748710.87747  21441906.597    21441912.556
 04  7 15 16 34  0.0000000  0  8G22G 3G21G19G 9G18G15G14
  20500921.860     -860197.60149   -664987.26548  20500921.657    20500925.119
  21476752.911    -2331898.63649  -1803974.59347  21476752.603    21476759.373
  22302327.972     6479915.31849   5042914.24146  22302327.370    22302333.606
  22860932.595   -10509991.96049  -8170155.03846  22860931.656    22860937.171
  23646853.599    -4905364.22949  -3811395.13145  23646853.373    23646862.047
  21668307.020     5207354.82449   4052955.60047  21668306.583    21668311.954
  19995128.018    -2886044.19149  -2241512.25548  19995127.351    19995133.839
  21426920.120   -11683806.08049  -8810079.61147  21426919.682    21426925.656
 04  7 15 16 34 30.0000000  0  8G22G 3G21G19G 9G18G15G14
  20503834.874     -844889.53849   -653058.91048  20503834.691    20503838.161
  21479935.459    -2315174.36049  -1790942.72047  21479935.130    21479941.897
  22317078.351     6557428.81249   5103314.29546  22317077.798    22317084.072
  22848145.075   -10577191.45349  -8222518.27446  22848144.129    22848149.478
  23641151.160    -4935330.90949  -3834745.79145  23641150.902    23641159.562
  21680135.514     5269513.73849   4101391.08247  21680135.104    21680140.469
  19995166.586    -2885841.70249  -2241354.48048  19995165.915    19995172.389
  21412013.891   -11762138.67549  -8871117.95447  21412013.472    21412019.407
 04  7 15 16 35  0.0000000  0  8G22G 3G21G19G 9G18G15G14
  20506802.616     -829293.96749   -640906.52348  20506802.436    20506805.911
  21483224.994    -2297887.67449  -1777472.61047  21483224.683    21483231.481
  22331882.259     6635223.71449   5163933.61746  22331881.730    22331888.002
  22835441.694   -10643947.90649  -8274536.28046  22835440.744    22835446.109
  23635551.542    -4964757.21549  -3857675.39245  23635551.189    23635559.843
  21691997.078     5331846.28749   4149961.85247  21691996.633    21692002.011
  19995283.467    -2885227.65249  -2240876.01048  19995282.794    19995289.253
  21397188.497   -11840046.51849  -8931825.32847  21397188.045    21397193.990
 04  7 15 16 35 30.0000000  0  8G22G 3G21G19G 9G18G15G14
  20509825.234     -813409.98849   -628529.40648  20509825.054    20509828.540
  21486621.791    -2280037.41049  -1763563.34247  21486621.501    21486628.271
  22346739.916     6713301.08749   5224773.04346  22346739.384    22346745.762
  22822823.441   -10710257.39449  -8326205.99846  22822822.499    22822827.838
  23630055.373    -4993639.54249  -3880181.09345  23630055.083    23630063.734
  21703891.812     5394353.51849   4198668.74047  21703891.378    21703896.790
  19995479.172    -2884199.23449  -2240074.65448  19995478.488    19995484.950
  21382444.673   -11917525.67549  -8992198.66047  21382444.212    21382450.166
 04  7 15 16 36  0.0000000  0  8G22G 3G21G19G 9G18G15G14
  20512902.209     -797240.32649   -615929.67348  20512902.043    20512905.526
  21490125.433    -2261625.62049  -1749216.51847  21490125.156    21490131.925
  22361650.916     6791658.86649   5285830.98546  22361650.401    22361656.823
  22810290.378   -10776119.38649  -8377527.01646  22810289.405    22810294.633
  23624662.889    -5021977.56449  -3902262.66145  23624662.576    23624671.124
  21715819.127     5457032.01449   4247509.09047  21715818.712    21715824.154
  19995753.581    -2882757.21149  -2238951.00848  19995752.888    19995759.374
  21367782.478   -11994575.91149  -9052237.76947  21367782.032    21367787.922
 04  7 15 16 36 30.0000000  0  8G22G 3G21G19G 9G18G15G14
  20516033.520     -780785.26849   -603107.55848  20516033.366    20516036.856
  21493735.867    -2242652.93749  -1734432.64247  21493735.596    21493742.353
  22376615.343     6870297.04849   5347107.40846  22376614.852    22376621.183
  22797843.076   -10841530.61849  -8428496.79946  22797842.082    22797847.329
  23619374.138    -5049768.54749  -3923917.95045  23619373.917    23619382.620
  21727779.052     5519881.68749   4296482.81547  21727778.632    21727784.061
  19996107.073    -2880899.70449  -2237503.61548  19996106.384    19996112.854
  21353202.367   -12071194.55049  -9111940.56847  21353201.946    21353207.846
 04  7 15 16 37  0.0000000  0  8G22G 3G21G19G 9G18G15G14
  20519218.832     -764046.26649   -590064.18448  20519218.671    20519222.174
  21497452.774    -2223120.65049  -1719212.70547  21497452.483    21497459.281
  22391633.013     6949214.44749   5408601.40846  22391632.476    22391638.810
  22785481.740   -10906489.66949  -8479114.22046  22785480.720    22785485.998
  23614190.182    -5077011.16849  -3945145.95645  23614189.976    23614198.635
  21739771.260     5582901.04449   4345588.77347  21739770.840    21739776.256
  19996539.749    -2878626.10949  -2235731.99248  19996539.054    19996545.532
  21338704.765   -12147380.04649  -9171305.85447  21338704.313    21338710.192
 04  7 15 16 37 30.0000000  0  8G22G 3G21G19G 9G18G15G14
  20522458.089     -747023.84849   -576799.96448  20522457.918    20522461.437
  21501276.046    -2203029.26549  -1703557.11347  21501275.766    21501282.563
  22406703.670     7028410.96749   5470312.90046  22406703.102    22406709.509
  22773207.014   -10970993.67949  -8529377.06846  22773206.027    22773211.253
  23609111.085    -5103703.12249  -3965944.87145  23609110.833    23609119.294
  21751795.609     5646089.32949   4394826.35847  21751795.205    21751800.599
  19997051.811    -2875935.30949  -2233635.27448  19997051.110    19997057.608
  21324290.031   -12223129.66249  -9230331.49147  21324289.622    21324295.488
 04  7 15 16 38  0.0000000  0  8G22G 3G21G19G 9G18G15G14
  20525751.165     -729718.53049   -563315.30548  20525750.998    20525754.528
  21505205.744    -2182379.12449  -1687466.12047  21505205.446    21505212.220
  22421827.343     7107886.23549   5532241.59946  22421826.812    22421833.209
  22761019.335   -11035040.15349  -8579283.40046  22761018.335    22761023.616
  23604136.878    -5129842.19849  -3986312.94645  23604136.686    23604145.116
  21763851.995     5709445.79749   4444194.99247  21763851.559    21763856.980
  19997643.507    -2872825.93049  -2231212.39248  19997642.810    19997649.312
  21309958.639   -12298441.36049  -9289015.90047  21309958.213    21309964.064
 04  7 15 16 38 30.0000000  0  8G22G 3G21G19G 9G18G15G14
  20529097.734     -712132.35649   -549611.79848  20529097.551    20529101.092
  21509241.257    -2161172.35249  -1670941.39347  21509240.972    21509247.765
  22437003.798     7187638.72649   5594386.31246  22437003.276    22437009.662
  22748918.949   -11098627.90349  -8628832.28546  22748917.982    22748923.198
  23599268.191    -5155427.52349  -4006249.52645  23599267.877    23599276.517
  21775939.928     5772968.46149   4493693.13447  21775939.511    21775944.986
  19998314.837    -2869298.03149  -2228463.39348  19998314.145    19998320.650
  21295710.867   -12373313.98149  -9347358.17547  21295710.456    21295716.211
 04  7 15 16 39  0.0000000  0  8G22G 3G21G19G 9G18G15G14
  20532497.703     -694265.63749   -535689.68448  20532497.518    20532501.043
  21513382.694    -2139409.20949  -1653983.13547  21513382.405    21513389.204
  22452233.084     7267668.29149   5656746.93746  22452232.513    22452238.844
  22736906.434   -11161754.02649  -8678021.45946  22736905.478    22736910.661
  23594505.098    -5180456.46649  -4025752.56245  23594504.835    23594513.739
  21788059.461     5836656.89849   4543320.45247  21788059.040    21788064.578
  19999066.177    -2865349.91749  -2225386.95048  19999065.485    19999071.995
  21281547.173   -12447744.74349  -9405356.14347  21281546.752    21281552.518
 04  7 15 16 39 30.0000000  0  8G22G 3G21G19G 9G18G15G14
  20535950.921     -676118.98449   -521549.43748  20535950.747    20535954.269
  21517629.868    -2117090.35749  -1636591.85547  21517629.535    21517636.337
  22467514.920     7347974.63749   5719323.22546  22467514.343    22467520.661
  22724982.283   -11224415.94649  -8726848.91446  22724981.293    22724986.474
  23589848.414    -5204926.97749  -4044820.46145  23589848.238    23589857.043
  21800210.383     5900510.49649   4593076.46347  21800209.989    21800215.546
  19999897.671    -2860980.32049  -2221982.08348  19999896.979    19999903.520
  21267467.920   -12521731.39949  -9463008.05647  21267467.519    21267473.281
 04  7 15 16 40  0.0000000  0  8G22G 3G21G19G 9G18G15G14
  20539457.023     -657694.28549   -507192.53448  20539456.850    20539460.372
  21521982.478    -2094217.23949  -1618768.67947  21521982.162    21521988.988
  22482849.151     7428556.28449   5782114.03546  22482848.578    22482854.908
  22713146.663   -11286612.38749  -8775313.66746  22713145.707    22713150.819
  23585298.339    -5228837.92149  -4063452.31245  23585298.088    23585306.947
  21812392.437     5964527.23949   4642959.59947  21812392.005    21812397.574
  20000809.391    -2856189.26149  -2218248.80248  20000808.708    20000815.265
  21253473.419   -12595272.97549  -9520313.15247  21253472.997    21253478.779
 04  7 15 16 40 30.0000000  0  8G22G 3G21G19G 9G18G15G14
  20543015.715     -638993.13049   -492620.20848  20543015.546    20543019.095
  21526440.227    -2070791.81549  -1600515.13447  21526439.905    21526446.736
  22498235.557     7509412.08449   5845118.46846  22498234.986    22498241.372
  22701399.923   -11348342.01349  -8823414.65946  22701398.939    22701404.097
  23580854.825    -5252188.23149  -4081647.32545  23580854.574    23580863.546
  21824605.194     6028705.62449   4692968.69247  21824604.760    21824610.359
  20001801.388    -2850976.27249  -2214186.74448  20001800.711    20001807.255
  21239563.818   -12668368.15349  -9577270.40347  21239563.396    21239569.207
 04  7 15 16 41  0.0000000  0  8G22G 3G21G19G 9G18G15G14
  20546627.081     -620015.30649   -477832.29348  20546626.906    20546630.476
  21531003.062    -2046813.97549  -1581831.13047  21531002.757    21531009.592
  22513674.154     7590541.97149   5908336.47746  22513673.588    22513679.918
  22689742.610   -11409601.27349  -8871149.13646  22689741.719    22689746.858
  23576518.649    -5274975.40349  -4099403.48645  23576518.475    23576527.256
  21836848.725     6093045.61249   4743103.70747  21836848.294    21836853.886
  20002874.077    -2845339.39749  -2209794.39048  20002873.379    20002879.939
  21225739.749   -12741013.79649  -9633877.36847  21225739.337    21225745.160
 04  7 15 16 41 30.0000000  0  8G22G 3G21G19G 9G18G15G14
  20550290.815     -600762.26449   -462829.92748  20550290.620    20550294.230
  21535670.772    -2022285.21849  -1562717.84547  21535670.475    21535677.279
  22529164.675     7671945.05849   5971767.37546  22529164.114    22529170.504
  22678175.117   -11470388.69249  -8918515.94646  22678174.197    22678179.299
  23572289.829    -5297198.18449  -4116719.91545  23572289.643    23572298.331
  21849122.676     6157545.61549   4793363.41047  21849122.267    21849127.878
  20004027.481    -2839278.23749  -2205071.42148  20004026.791    20004033.354
  21212001.573   -12813208.32449  -9690132.82147  21212001.147    21212007.006
 04  7 15 16 42  0.0000000  0  8G22G 3G21G19G 9G18G15G14
  20554006.727     -581234.81749   -447613.73848  20554006.547    20554010.159
  21540443.187    -1997206.33449  -1543175.88847  21540442.872    21540449.653
  22544707.112     7753621.02349   6035410.89146  22544706.584    22544713.097
  22666697.882   -11530701.82449  -8965513.18646  22666696.992    22666702.119
  23568168.834    -5318854.35149  -4133594.80545  23568168.577    23568177.217
  21861426.988     6222205.02649   4843747.32847  21861426.569    21861432.135
  20005261.796    -2832791.79349  -2200017.06248  20005261.116    20005267.696
  21198349.623   -12884949.66949  -9746035.14047  21198349.228    21198355.063
 04  7 15 16 42 30.0000000  0  8G22G 3G21G19G 9G18G15G14
  20557774.736     -561433.90949   -432184.46148  20557774.539    20557778.165
  21545319.948    -1971578.70749  -1523206.33347  21545319.636    21545326.447
  22560301.259     7835568.65049   6099266.08146  22560300.749    22560307.315
  22655311.231   -11590539.01849  -9012139.55846  22655310.365    22655315.452
  23564155.875    -5339942.45849  -4150027.03545  23564155.644    23564164.252
  21873761.358     6287022.37249   4894254.32047  21873760.950    21873766.477
  20006577.184    -2825879.48249  -2194630.85448  20006576.505    20006583.101
  21184784.210   -12956236.52049  -9801583.30747  21184783.779    21184789.603
 04  7 15 16 43  0.0000000  0  8G22G 3G21G19G 9G18G15G14
  20561594.592     -541360.40849   -416542.77948  20561594.404    20561598.010
  21550300.957    -1945403.32949  -1502809.96547  21550300.677    21550307.435
  22575947.100     7917787.54049   6163332.65446  22575946.567    22575953.151
  22644015.520   -11649897.90649  -9058393.22846  22644014.685    22644019.799
  23560251.294    -5360460.61749  -4166015.15845  23560251.048    23560259.797
  21886125.675     6351996.91549   4944883.79747  21886125.280    21886130.775
  20007973.797    -2818540.09649  -2188911.86348  20007973.108    20007979.724
  21171305.704   -13027066.51649  -9856775.48847  21171305.260    21171311.051
 04  7 15 16 43 30.0000000  0  8G22G 3G21G19G 9G18G15G14
  20565466.044     -521015.75849   -400689.80548  20565465.874    20565469.490
  21555385.956    -1918681.75649  -1481987.98547  21555385.667    21555392.472
  22591644.322     8000276.33349   6227609.56946  22591643.691    22591650.294
  22632811.238   -11708776.86549  -9104272.93047  22632810.371    22632815.488
  23556455.447    -5380408.03349  -4181558.53946  23556455.156    23556463.973
  21898519.566     6417127.03449   4995634.50247  21898519.160    21898524.676
  20009451.765    -2810773.38149  -2182859.88848  20009451.085    20009457.701
  21157914.379   -13097438.35349  -9911610.66047  21157913.911    21157919.687
 04  7 15 16 44  0.0000000  0  8G22G 3G21G19G 9G18G15G14
  20569389.009     -500400.68849   -384626.11948  20569388.808    20569392.368
  21560574.678    -1891414.77749  -1460741.01647  21560574.385    21560581.237
  22607392.671     8083034.71049   6292096.51346  22607392.008    22607398.850
  22621698.694   -11767173.53549  -9149776.80047  22621697.824    22621703.061
  23552768.654    -5399782.69949  -4196655.64046  23552768.398    23552777.182
  21910942.944     6482412.00649   5046505.87247  21910942.540    21910948.052
  20011011.278    -2802578.08749  -2176473.95548  20011010.616    20011017.199
  21144610.619   -13167349.87949  -9966087.14747  21144610.161    21144615.934
 04  7 15 16 44 30.0000000  0  8G22G 3G21G19G 9G18G15G14
  20573363.269     -479515.79549   -368352.17848  20573363.077    20573366.603
  21565867.018    -1863603.45849  -1439069.89347  21565866.721    21565873.562
  22623192.327     8166062.36649   6356793.30146  22623191.790    22623198.563
  22610678.411   -11825085.59449  -9194903.07847  22610677.504    22610682.739
  23549191.001    -5418582.70449  -4211304.93446  23549190.765    23549199.612
  21923395.676     6547851.31149   5097497.49747  21923395.289    21923400.802
  20012652.573    -2793953.12649  -2169753.22048  20012651.919    20012658.513
  21131394.845   -13236798.98649 -10020203.31147  21131394.420    21131400.197
 04  7 15 16 45  0.0000000  0  8G22G 3G21G19G 9G18G15G14
  20577388.610     -458362.48549   -351869.08248  20577388.430    20577391.939
  21571262.591    -1835249.69249  -1416976.08047  21571262.286    21571269.147
  22639043.088     8249357.95649   6421698.86646  22639042.517    22639049.331
  22599750.628   -11882511.35449  -9239650.41647  22599749.749    22599754.942
  23545722.887    -5436807.10449  -4225505.69846  23545722.626    23545731.556
  21935877.500     6613443.52949   5148608.27847  21935877.098    21935882.628
  20014375.677    -2784898.14649  -2162697.40248  20014375.036    20014381.626
  21118267.392   -13305784.28749 -10073958.05847  21118266.928    21118272.698
 04  7 15 16 45 30.0000000  0  8G22G 3G21G19G 9G18G15G14
  20581464.833     -436941.85449   -335177.68748  20581464.639    20581468.163
  21576761.215    -1806354.39549  -1394460.29747  21576760.919    21576767.742
  22654944.636     8332920.61349   6486812.52446  22654944.068    22654950.855
  22588915.866   -11939449.00449  -9284017.40847  22588914.910    22588920.138
  23542364.586    -5454454.37949  -4239256.75546  23542364.400    23542373.345
  21948388.182     6679187.62249   5199837.39847  21948387.787    21948393.354
  20016180.769    -2775412.53849  -2155306.03148  20016180.097    20016186.678
  21105228.443   -13374304.30449 -10127350.25947  21105227.995    21105233.760
 04  7 15 16 46  0.0000000  0  8G22G 3G21G19G 9G18G15G14
  20585591.743     -415254.95149   -318278.81248  20585591.552    20585595.082
  21582362.700    -1776918.90449  -1371523.58547  21582362.351    21582369.166
  22670896.764     8416749.47449   6552133.62546  22670896.275    22670903.004
  22578174.200   -11995896.54449  -9328002.49047  22578173.246    22578178.543
  23539116.576    -5471523.00349  -4252556.93146  23539116.418    23539125.228
  21960927.598     6745082.34949   5251183.89847  21960927.196    21960932.749
  20018067.949    -2765495.45349  -2147578.44448  20018067.270    20018073.844
  21092278.340   -13442357.14249 -10180378.41847  21092277.910    21092283.704
 04  7 15 16 46 30.0000000  0  8G22G 3G21G19G 9G18G15G14
  20589769.063     -393303.04249   -301173.43448  20589768.880    20589772.424
  21588066.553    -1746945.06449  -1348167.38247  21588066.213    21588073.027
  22686899.294     8500842.96049   6617660.91546  22686898.826    22686905.539
  22567526.177   -12051852.36849  -9371604.43147  22567525.208    22567530.487
  23535978.788    -5488012.17649  -4265405.58846  23535978.571    23535987.429
  21973495.422     6811126.46349   5302646.79747  21973495.026    21973500.573
  20020037.315    -2755146.43949  -2139514.28848  20020036.637    20020043.205
  21079417.459   -13509941.43049 -10233041.47547  21079417.043    21079422.792
 04  7 15 16 47  0.0000000  0  8G22G 3G21G19G 9G18G15G14
  20593996.760     -371086.30149   -283861.70148  20593996.563    20594000.125
  21593872.792    -1716433.37949  -1324392.08247  21593872.453    21593879.217
  22702952.420     8585201.64849   6683394.87846  22702951.863    22702958.516
  22556972.193   -12107313.79049  -9414821.11247  22556971.244    22556976.543
  23532951.839    -5503919.27849  -4277800.67946  23532951.606    23532960.313
  21986091.616     6877319.77649   5354225.95747  21986091.196    21986096.775
  20022089.186    -2744363.83349  -2131112.27248  20022088.507    20022095.049
  21066646.232   -13577054.65649 -10285337.46947  21066645.795    21066651.540
 04  7 15 16 47 30.0000000  0  8G22G 3G21G19G 9G18G15G14
  20598274.591     -348606.19849   -266344.74148  20598274.401    20598277.965
  21599781.035    -1685385.61049  -1300199.04847  21599780.673    21599787.470
  22719055.648     8669824.19449   6749334.43046  22719055.106    22719061.728
  22546512.564   -12162279.55349  -9457651.57547  22546511.575    22546516.849
  23530035.885    -5519243.59049  -4289741.66846  23530035.655    23530044.075
  21998715.928     6943660.83849   5405920.25847  21998715.506    21998721.089
  20024223.614    -2733147.49049  -2122372.28048  20024222.949    20024229.489
  21053964.886   -13643695.61149 -10337265.45747  21053964.444    21053970.165
 04  7 15 16 48  0.0000000  0  8G22G 3G21G19G 9G18G15G14
  20602602.381     -325863.54749   -248623.20648  20602602.185    20602605.763
  21605791.103    -1653802.62749  -1275588.96947  21605790.772    21605797.594
  22735208.955     8754709.92349   6815479.05746  22735208.403    22735215.001
  22536147.643   -12216747.35149  -9500094.00047  22536146.670    22536151.956
  23527230.861    -5533983.60949  -4301227.36346  23527230.648    23527239.122
  22011368.169     7010148.70449   5457728.93447  22011367.727    22011373.342
  20026440.767    -2721496.36649  -2113293.49248  20026440.084    20026446.625
  21041373.732   -13709862.54649 -10388824.07847  21041373.290    21041378.996
 04  7 15 16 48 30.0000000  0  8G22G 3G21G19G 9G18G15G14
  20606979.866     -302859.79149   -230698.21548  20606979.685    20606983.250
  21611902.498    -1621686.86249  -1250563.73747  21611902.171    21611909.039
  22751412.030     8839857.33849   6881827.60446  22751411.495    22751418.030
  22525877.825   -12270715.70449  -9542147.24947  22525876.850    22525882.193
  23524537.021    -5548138.75449  -4312257.30546  23524536.803    23524545.363
  22024048.109     7076781.62549   5509650.64847  22024047.639    22024053.221
  20028740.663    -2709410.47249  -2103875.92248  20028739.972    20028746.509
  21028872.937   -13775554.43549 -10440012.53947  21028872.504    21028878.217
 04  7 15 16 49  0.0000000  0  8G22G 3G21G19G 9G18G15G14
  20611407.181     -279593.94649   -212568.99648  20611407.020    20611410.578
  21618115.408    -1589037.87249  -1225123.00447  21618115.100    21618122.013
  22767665.105     8925267.24349   6948380.67646  22767664.563    22767671.087
  22515703.695   -12324181.13949  -9583808.62247  22515702.763    22515708.058
  23521955.274    -5561705.89749  -4322829.05146  23521955.059    23521963.578
  22036755.799     7143560.87049   5561686.37947  22036755.342    22036760.953
  20031123.750    -2696887.39849  -2094117.69648  20031123.052    20031129.563
  21016463.317   -13840767.45349 -10490827.85247  21016462.876    21016468.597
 04  7 15 16 49 30.0000000  0  8G22G 3G21G19G 9G18G15G14
  20615883.781     -256069.28349   -194238.10348  20615883.611    20615887.164
  21624429.168    -1555858.84949  -1199269.25947  21624428.859    21624435.772
  22783967.568     9010936.92049   7015136.17346  22783967.028    22783973.654
  22505625.313   -12377143.74349  -9625078.16847  22505624.340    22505629.684
  23519485.338    -5574685.45849  -4332942.95146  23519485.060    23519493.710
  22049490.781     7210483.66949   5613833.97047  22049490.375    22049496.016
  20033589.857    -2683928.08149  -2084019.54548  20033589.165    20033595.667
  21004144.698   -13905502.23049 -10541270.50447  21004144.234    21004149.956
 04  7 15 16 50  0.0000000  0  8G22G 3G21G19G 9G18G15G14
  20620409.616     -232285.98849   -175705.67348  20620409.438    20620413.000
  21630843.639    -1522150.77249  -1173003.25947  21630843.329    21630850.276
  22800319.352     9096866.19549   7082093.93946  22800318.798    22800325.531
  22495642.998   -12429601.15449  -9665954.05947  22495642.041    22495647.277
  23517127.484    -5587075.73249  -4342597.66546  23517127.271    23517135.831
  22062253.014     7277549.14949   5666092.74447  22062252.540    22062258.196
  20036139.157    -2670531.39749  -2073580.58648  20036138.460    20036144.988
  20991917.512   -13969756.48649 -10591338.72847  20991917.038    20991922.773
 04  7 15 16 50 30.0000000  0  8G22G 3G21G19G 9G18G15G14
  20624984.468     -208244.98549   -156972.43748  20624984.281    20624987.853
  21637358.475    -1487915.19749  -1146326.22447  21637358.179    21637365.166
  22816720.471     9183054.25749   7149253.34946  22816719.913    22816726.694
  22485757.222   -12481551.30749  -9706434.69447  22485756.265    22485761.414
  23514882.060    -5598875.50949  -4351792.25446  23514881.846    23514890.367
  22075042.146     7344756.70049   5718462.22747  22075041.716    22075047.400
  20038771.879    -2656696.48149  -2062800.15348  20038771.187    20038777.699
  20979782.051   -14033528.46449 -10641031.15947  20979781.629    20979787.339
 04  7 15 16 51  0.0000000  0  8G22G 3G21G19G 9G18G15G14
  20629608.219     -183946.80749   -138038.80348  20629608.040    20629611.654
  21643973.587    -1453152.81649  -1119238.69247  21643973.269    21643980.235
  22833170.808     9269500.87949   7216614.25246  22833170.235    22833177.032
  22475968.402   -12532991.88149  -9746518.25347  22475967.461    22475972.622
  23512749.332    -5610083.01249  -4360525.32146  23512749.103    23512757.617
  22087858.270     7412105.72949   5770941.94747  22087857.854    22087863.557
  20041488.213    -2642422.28949  -2051677.42748  20041487.517    20041494.026
  20967738.762   -14096816.29349 -10690346.32647  20967738.317    20967744.041
 04  7 15 16 51 30.0000000  0  8G22G 3G21G19G 9G18G15G14
  20634280.633     -159393.22549   -118906.15148  20634280.455    20634284.095
  21650688.382    -1417866.27349  -1091742.72147  21650688.090    21650695.057
  22849669.851     9356204.13049   7284175.09446  22849669.313    22849676.288
  22466276.712   -12583922.06949  -9786204.11747  22466275.741    22466280.858
  23510729.343    -5620697.83949  -4368796.54546  23510729.151    23510737.601
  22100701.051     7479594.70249   5823530.71347  22100700.623    22100706.329
  20044288.063    -2627708.96649  -2040212.51948  20044287.369    20044293.876
  20955787.760   -14159619.13049 -10739283.57547  20955787.300    20955793.010
 04  7 15 16 52  0.0000000  0  8G22G 3G21G19G 9G18G15G14
  20639001.535     -134584.86349    -99574.97048  20639001.357    20639004.995
  21657502.821    -1382056.66549  -1063839.16447  21657502.473    21657509.404
  22866217.841     9443163.48949   7351935.52346  22866217.197    22866224.221
  22456682.529   -12634339.76149  -9825490.61647  22456681.563    22456686.736
  23508822.553    -5630718.68949  -4376604.94946  23508822.272    23508830.644
  22113570.223     7547222.62749   5876227.75547  22113569.824    22113575.516
  20047171.664    -2612555.61349  -2028404.72448  20047170.972    20047177.484
  20943929.365   -14221935.26749 -10787841.58247  20943928.950    20943934.645
 04  7 15 16 52 30.0000000  0  8G22G 3G21G19G 9G18G15G14
  20643770.754     -109522.63149    -80045.96648  20643770.565    20643774.212
  21664416.428    -1345725.62749  -1035529.30247  21664416.077    21664422.963
  22882814.210     9530377.70849   7419894.54346  22882813.618    22882820.611
  22447186.164   -12684243.27449  -9864376.46947  22447185.217    22447190.435
  23507028.743    -5640144.54949  -4383949.72446  23507028.612    23507036.868
  22126465.679     7614988.50049   5929032.28646  22126465.257    22126470.943
  20050139.072    -2596961.77449  -2016253.69048  20050138.368    20050144.914
  20932163.859   -14283763.26049 -10836019.21147  20932163.435    20932169.163
 04  7 15 16 53  0.0000000  0  8G22G 3G21G19G 9G18G15G14
  20648588.102      -84207.44949    -60319.86348  20648587.900    20648591.549
  21671428.987    -1308874.65149  -1006814.29647  21671428.632    21671435.507
  22899458.965     9617846.24249   7488051.73646  22899458.435    22899465.420
  22437788.135   -12733630.67249  -9902860.16247  22437787.133    22437792.288
  23505348.568    -5648974.19549  -4390829.90446  23505348.336    23505356.548
  22139387.270     7682891.53149   5981943.68946  22139386.841    22139392.503
  20053190.526    -2580926.35449  -2003758.57448  20053189.816    20053196.380
  20920491.561   -14345101.44749 -10883815.17447  20920491.145    20920496.887
 04  7 15 16 53 30.0000000  0  8G22G 3G21G19G 9G18G15G14
  20653453.501      -58639.71749    -40396.96648  20653453.312    20653456.929
  21678540.275    -1271504.82149   -977694.98947  21678539.939    21678546.806
  22916152.100     9705568.91349   7556406.95046  22916151.618    22916158.575
  22428488.709   -12782499.64649  -9940939.88247  22428487.661    22428492.790
  23503782.157    -5657205.67049  -4397244.00146  23503781.940    23503790.208
  22152334.918     7750931.66149   6034961.93946  22152334.498    22152340.164
  20056326.204    -2564448.20449  -1990918.47148  20056325.485    20056332.074
  20908912.935   -14405947.55549 -10931227.69447  20908912.501    20908918.205
 04  7 15 16 54  0.0000000  0  8G22G 3G21G19G 9G18G15G14
  20658366.466      -32822.05849    -20279.32248  20658366.261    20658369.856
  21685749.650    -1233619.51749   -948174.01147  21685749.288    21685756.198
  22932893.282     9793543.07349   7624958.13846  22932892.668    22932899.586
  22419287.828   -12830850.14549  -9978615.60247  22419286.851    22419291.932
  23502329.454    -5664839.85549  -4403192.66546  23502329.177    23502337.366
  22165308.186     7819106.27049   6088084.95946  22165307.737    22165313.414
  20059545.889    -2547528.50749  -1977734.31448  20059545.176    20059551.792
  20897427.833   -14466301.83949 -10978256.97447  20897427.412    20897433.133
 04  7 15 16 54 30.0000000  0  8G22G 3G21G19G 9G18G15G14
  20663327.175       -6753.41149        33.89548  20663326.956    20663330.580
  21693057.204    -1195217.91049   -918250.72147  21693056.879    21693063.827
  22949682.234     9881769.61949   7693705.97946  22949681.676    22949688.610
  22410186.445   -12878678.51149 -10015884.46447  22410185.452    22410190.523
  23500990.915    -5671873.67149  -4408673.52446  23500990.623    23500998.812
  22178307.211     7887416.39149   6141313.59447  22178306.738    22178312.454
  20062850.173    -2530164.54249  -1964203.97948  20062849.468    20062856.080
  20886037.002   -14526160.97349 -11024900.42748  20886036.578    20886042.313
 04  7 15 16 55  0.0000000  0  8G22G 3G21G19G 9G18G15G14
  20668335.266       19564.24449     20541.14848  20668335.059    20668338.687
  21700462.511    -1156302.92449   -887927.39447  21700462.193    21700469.160
  22966518.910     9970246.63649   7762648.99746  22966518.420    22966525.315
  22401184.439   -12925984.15749 -10052746.00347  22401183.473    22401188.587
  23499766.623    -5678307.31849  -4413686.70946  23499766.331    23499774.495
  22191331.659     7955860.09649   6194646.30447  22191331.201    22191336.881
  20066238.860    -2512357.07949  -1950328.05048  20066238.152    20066244.771
  20874740.439   -14585524.75649 -11071157.88948  20874739.998    20874745.718
 04  7 15 16 55 30.0000000  0  8G22G 3G21G19G 9G18G15G14
  20673390.559       46130.09949     41241.79848  20673390.360    20673393.978
  21707965.210    -1116875.98149   -857205.14647  21707964.909    21707971.902
  22983403.189    10058973.22649   7831786.49646  22983402.601    22983409.509
  22392282.292   -12972765.17949 -10089198.75047  22392281.326    22392286.461
  23498656.580    -5684139.90849  -4418231.54146  23498656.349    23498664.465
  22204381.363     8024436.56749   6248082.47446  22204380.877    22204386.595
  20069712.019    -2494105.26049  -1936105.87648  20069711.328    20069717.959
  20863538.489   -14644391.42049 -11117027.98948  20863538.063    20863543.758
 04  7 15 16 56  0.0000000  0  8G22G 3G21G19G 9G18G15G14
  20678492.748       72942.15149     62134.29548  20678492.567    20678496.160
  21715564.778    -1076940.18449   -826086.37947  21715564.458    21715571.485
  23000334.414    10147947.16749   7901116.70146  23000333.810    23000340.742
  22383480.076   -13019021.04349 -10125242.28347  22383479.120    22383484.281
  23497661.078    -5689371.43449  -4422308.02246  23497660.798    23497668.920
  22217455.950     8093143.87549   6301620.59146  22217455.466    22217461.203
  20073269.720    -2475409.54549  -1921537.80248  20073269.045    20073275.656
  20852431.248   -14702760.55449 -11162510.40348  20852430.793    20852436.474
 04  7 15 16 56 30.0000000  0  8G22G 3G21G19G 9G18G15G14
  20683641.986      100001.74249     83219.67448  20683641.813    20683645.413
  21723261.259    -1036495.02449   -794570.70847  21723260.949    21723268.019
  23017313.076    10237170.09649   7970640.95746  23017312.456    23017319.293
  22374778.644   -13064747.93749 -10160873.63147  22374777.614    22374782.846
  23496780.510    -5693998.66149  -4425913.61746  23496780.267    23496788.357
  22230555.629     8161983.19349   6355261.57246  22230555.177    22230560.936
  20076912.402    -2456267.27049  -1906621.76248  20076911.713    20076918.338
  20841419.274   -14760628.64949 -11207602.39348  20841418.826    20841424.502
 04  7 15 16 57  0.0000000  0  8G22G 3G21G19G 9G18G15G14
  20688837.943      127306.51249    104496.11148  20688837.766    20688841.358
  21731054.104     -995543.68949   -762660.61047  21731053.765    21731060.819
  23034338.653    10326639.73549   8040357.44046  23034338.090    23034344.976
  22366177.745   -13109945.73249 -10196092.69647  22366176.788    22366181.953
  23496014.852    -5698022.21849  -4429048.81946  23496014.578    23496022.620
  22243680.069     8230952.37749   6409003.74746  22243679.611    22243685.388
  20080639.885    -2436679.33249  -1891358.45148  20080639.193    20080645.812
  20830502.647   -14817995.97749 -11252304.18348  20830502.203    20830507.838
 04  7 15 16 57 30.0000000  0  8G22G 3G21G19G 9G18G15G14
  20694080.408      154855.78649    125963.06648  20694080.236    20694083.812
  21738942.986     -954087.26649   -730356.94247  21738942.653    21738949.718
  23051411.040    10416355.10549   8110265.41446  23051410.490    23051417.401
  22357677.967   -13154612.46049 -10230897.94447  22357677.002    22357682.220
  23495364.279    -5701441.08949  -4431712.85846  23495363.998    23495371.940
  22256829.093     8300050.81049   6462846.63946  22256828.618    22256834.428
  20084452.345    -2416644.79249  -1875747.14148  20084451.643    20084458.268
  20819681.614   -14874860.82649 -11296614.42548  20819681.135    20819686.776
 04  7 15 16 58  0.0000000  0  8G22G 3G21G19G 9G18G15G14
  20699369.265      182648.69449    147619.86948  20699369.075    20699372.646
  21746927.719     -912127.58449   -697661.12247  21746927.375    21746934.436
  23068529.913    10506314.96449   8180363.87545  23068529.359    23068536.294
  22349279.505   -13198746.65149 -10265288.22747  22349278.537    22349283.693
  23494828.843    -5704254.15149  -4433904.82746  23494828.569    23494836.470
  22270002.560     8369277.71949   6516789.64046  22270002.098    22270007.940
  20088349.886    -2396163.16449  -1859787.44648  20088349.185    20088355.837
  20808956.440   -14931221.69449 -11340531.95448  20808955.990    20808961.615
 04  7 15 16 58 30.0000000  0  8G22G 3G21G19G 9G18G15G14
  20704704.257      210684.18549    169465.69748  20704704.062    20704707.660
  21755007.794     -869666.51349   -664574.61547  21755007.471    21755014.548
  23085695.191    10596518.77049   8250652.43645  23085694.626    23085701.561
  22340982.672   -13242346.71549 -10299262.30547  22340981.720    22340986.834
  23494408.889    -5706460.74949  -4435624.22046  23494408.659    23494416.568
  22283200.289     8438632.00749   6570831.90146  22283199.832    22283205.676
  20092332.558    -2375233.92649  -1843478.96948  20092331.858    20092338.518
  20798327.448   -14987077.32749 -11384055.79548  20798326.988    20798332.607
 04  7 15 16 59  0.0000000  0  8G22G 3G21G19G 9G18G15G14
  20710085.281      238961.65549    191500.08348  20710085.076    20710088.708
  21763183.018     -826705.83349   -631098.80147  21763182.682    21763189.744
  23102906.643    10686965.83849   8321130.55045  23102906.181    23102913.237
  22332787.838   -13285411.04649 -10332818.92947  22332786.864    22332792.023
  23494104.486    -5708060.14249  -4436870.48646  23494104.240    23494112.198
  22296422.180     8508113.37349   6624973.18646  22296421.738    22296427.560
  20096400.609    -2353856.46249  -1826821.22348  20096399.902    20096406.548
  20787794.813   -15042426.35549 -11427184.87648  20787794.389    20787800.025
 04  7 15 16 59 30.0000000  0  8G22G 3G21G19G 9G18G15G14
  20715512.001      267479.26549    213721.58648  20715511.800    20715515.449
  21771452.721     -783248.40049   -597235.91147  21771452.357    21771459.441
  23120164.169    10777653.78749   8391796.36946  23120163.594    23120170.663
  22324695.008   -13327939.04349 -10365957.62847  22324694.036    22324699.185
  23493915.627    -5709052.55049  -4437643.78046  23493915.361    23493923.372
  22309667.847     8577719.68749   6679211.83246  22309667.399    22309673.240
  20100553.805    -2332031.40949  -1809814.70548  20100553.097    20100559.745
  20777358.736   -15097268.43249 -11469918.93448  20777358.284    20777363.936
 04  7 15 17  0  0.0000000  0  8G22G 3G21G19G 9G18G15G14
  20720984.437      296237.12249    236130.29248  20720984.261    20720987.906
  21779816.892     -739294.63549   -562986.26847  21779816.547    21779823.643
  23137467.534    10868583.00049   8462650.17046  23137466.945    23137474.161
  22316704.765   -13369927.85249 -10398676.18347  22316703.837    22316708.931
  23493842.627    -5709435.89749  -4437942.47546  23493842.391    23493850.369
  22322937.414     8647451.55249   6733548.30546  22322936.972    22322942.769
  20104792.511    -2309756.96349  -1792458.01448  20104791.802    20104798.445
  20767019.517   -15151601.06249 -11512256.02348  20767019.082    20767024.724
 04  7 15 17  0 30.0000000  0  8G22G 3G21G19G 9G18G15G14
  20726502.321      325233.66949    258724.99248  20726502.141    20726505.785
  21788275.033     -694846.82949   -528351.65247  21788274.671    21788281.831
  23154816.461    10959751.86449   8533690.69745  23154815.844    23154823.148
  22308817.257   -13411376.99549 -10430974.21747  22308816.298    22308821.520
  23493885.564    -5709210.07749  -4437766.51446  23493885.282    23493893.361
  22336230.525     8717307.26049   6787981.28346  22336230.110    22336235.880
  20109116.734    -2287033.13349  -1774751.15548  20109116.019    20109122.638
  20756777.351   -15205423.82949 -11554195.81548  20756776.932    20756782.572
 04  7 15 17  1  0.0000000  0  8G22G 3G21G19G 9G18G15G14
  20732065.536      354468.59149    281505.44148  20732065.350    20732068.994
  21796826.799     -649906.95049   -493333.61147  21796826.471    21796833.648
  23172210.876    11051159.49349   8604917.28445  23172210.223    23172217.715
  22301032.871   -13452284.01949 -10462849.81647  22301031.957    22301037.157
  23494044.582    -5708374.25149  -4437115.21746  23494044.361    23494052.410
  22349547.217     8787286.61749   6842510.61246  22349546.801    22349552.578
  20113526.590    -2263859.35249  -1756693.68248  20113525.876    20113532.516
  20746632.538   -15258734.93149 -11595736.90648  20746632.125    20746637.796
 04  7 15 17  1 30.0000000  0  8G22G 3G21G19G 9G18G15G14
  20737673.994      383941.06849    304470.99648  20737673.787    20737677.447
  21805471.923     -604476.82049   -457933.55747  21805471.596    21805478.794
  23189650.507    11142805.24249   8676329.43245  23189649.959    23189657.428
  22293351.906   -13492647.93549 -10494302.21247  22293350.944    22293356.164
  23494319.787    -5706927.94849  -4435988.23746  23494319.541    23494327.542
  22362887.257     8857388.51449   6897135.43046  22362886.806    22362892.584
  20118022.168    -2240235.03249  -1738285.14048  20118021.453    20118028.067
  20736585.322   -15311533.38549 -11636878.53548  20736584.881    20736590.548
 04  7 15 17  2  0.0000000  0  8G22G 3G21G19G 9G18G15G14
  20743327.298      413649.45949    327620.38248  20743327.093    20743330.775
  21814209.920     -558558.63049   -422153.18847  21814209.607    21814216.805
  23207135.195    11234687.30749   8747925.70445  23207134.614    23207142.114
  22285774.389   -13532467.81849 -10525330.69947  22285773.450    22285778.710
  23494711.215    -5704871.12349  -4434385.50846  23494710.960    23494718.965
  22376250.316     8927611.86949   6951854.88446  22376249.865    22376255.691
  20122603.473    -2216160.29549  -1719525.62348  20122602.742    20122609.348
  20726635.787   -15363818.54749 -11677620.19648  20726635.339    20726640.983
 04  7 15 17  2 30.0000000  0  8G22G 3G21G19G 9G18G15G14
  20749025.296      443592.80949    350952.85548  20749025.099    20749028.799
  21823040.406     -512154.68149   -385994.30447  21823040.084    21823047.195
  23224664.621    11326804.34149   8819705.08645  23224664.049    23224671.489
  22278300.684   -13571742.49749 -10555934.34147  22278299.675    22278304.996
  23495218.978    -5702203.14549  -4432306.57346  23495218.698    23495226.753
  22389636.278     8997955.40649   7006667.97046  22389635.827    22389641.666
  20127270.499    -2191635.16549  -1700415.14748  20127269.781    20127276.361
  20716784.120   -15415589.29149 -11717961.01248  20716783.689    20716789.300
 04  7 15 17  3  0.0000000  0  8G22G 3G21G19G 9G18G15G14
  20754767.980      473770.96549    374468.29548  20754767.813    20754771.511
  21831963.065     -465265.74949   -349457.51347  21831962.747    21831969.900
  23242238.685    11419156.25449   8891667.48945  23242238.193    23242245.564
  22270931.085   -13610469.55749 -10586111.27247  22270930.146    22270935.467
  23495843.234    -5698922.81349  -4429750.46746  23495842.986    23495851.075
  22403045.217     9068419.63849   7061575.12246  22403044.785    22403050.594
  20132023.415    -2166658.41249  -1680952.75748  20132022.691    20132029.269
  20707030.738   -15466843.54749 -11757899.36848  20707030.301    20707035.922
 04  7 15 17  3 30.0000000  0  8G22G 3G21G19G 9G18G15G14
  20760555.135      504182.55149    398165.62448  20760554.957    20760558.654
  21840977.494     -417894.71249   -312545.06247  21840977.196    21840984.348
  23259857.275    11511741.58849   8963811.76045  23259856.686    23259864.160
  22263665.946   -13648648.36949 -10615860.99547  22263664.965    22263670.185
  23496583.956    -5695030.16449  -4426717.24846  23496583.733    23496591.829
  22416476.789     9139003.03449   7116575.13346  22416476.396    22416482.243
  20136862.277    -2141229.82649  -1661138.29148  20136861.581    20136868.206
  20697375.653   -15517581.19149 -11797435.17448  20697375.235    20697380.842
 04  7 15 17  4  0.0000000  0  8G22G 3G21G19G 9G18G15G14
  20766386.462      534826.29349    422043.85148  20766386.290    20766389.976
  21850083.256     -370043.89849   -275258.75547  21850082.922    21850090.050
  23277519.785    11604558.84149   9036136.76145  23277519.249    23277526.771
  22256505.267   -13686278.06149 -10645182.83847  22256504.273    22256509.537
  23497441.240    -5690524.95249  -4423206.71046  23497441.040    23497449.198
  22429930.806     9209704.44849   7171667.09446  22429930.442    22429936.331
  20141787.111    -2115349.59349  -1640971.89048  20141786.411    20141793.079
  20687819.112   -15567801.24049 -11836567.65748  20687818.681    20687824.271
 04  7 15 17  4 30.0000000  0  8G22G 3G21G19G 9G18G15G14
  20772262.082      565702.67549    446103.35848  20772261.872    20772265.574
  21859280.071     -321714.15149   -237599.25247  21859279.775    21859286.928
  23295226.500    11697608.14049   9108642.56445  23295226.011    23295233.616
  22249449.593   -13723355.83549 -10674074.61547  22249448.617    22249453.901
  23498415.408    -5685405.67049  -4419217.66146  23498415.126    23498423.444
  22443407.441     9280524.32749   7226851.37646  22443407.082    22443412.947
  20146798.201    -2089016.19749  -1620452.37548  20146797.522    20146804.201
  20678361.483   -15617501.18449 -11875294.86748  20678361.049    20678366.637
 04  7 15 17  5  0.0000000  0  8G22G 3G21G19G 9G18G15G14
  20778181.603      596810.01249    470342.82348  20778181.414    20778185.115
  21868567.584     -272908.34949   -199568.79647  21868567.256    21868574.420
  23312977.199    11790887.61449   9181327.72645  23312976.672    23312984.306
  22242499.124   -13759881.12949 -10702535.88147  22242498.179    22242503.371
  23499506.384    -5679672.33049  -4414750.17646  23499506.100    23499514.396
  22456906.284     9351461.14249   7282126.77446  22456905.938    22456911.823
  20151895.466    -2062230.04849  -1599580.06948  20151894.773    20151901.453
  20669002.865   -15666680.91049 -11913616.71548  20669002.447    20669008.032
 04  7 15 17  5 30.0000000  0  8G22G 3G21G19G 9G18G15G14
  20784144.810      628146.90449    494761.16648  20784144.636    20784148.335
  21877945.200     -223628.69949   -161169.10347  21877944.874    21877952.048
  23330771.262    11884395.45749   9254190.83745  23330770.743    23330778.358
  22235653.939   -13795853.35149 -10730566.18547  22235652.948    22235658.076
  23500714.279    -5673325.12849  -4409804.31046  23500713.994    23500722.196
  22470427.055     9422513.24049   7337492.00346  22470426.677    22470432.632
  20157078.851    -2034991.19849  -1578355.00748  20157078.165    20157084.820
  20659743.352   -15715339.93449 -11951532.82148  20659742.928    20659748.517
 04  7 15 17  6  0.0000000  0  8G22G 3G21G19G 9G18G15G14
  20790151.678      659713.12449    519358.20348  20790151.508    20790155.198
  21887412.753     -173876.64349   -122401.30147  21887412.410    21887419.562
  23348608.828    11978131.61749   9327231.85145  23348608.205    23348615.926
  22228914.335   -13831270.48649 -10758163.95947  22228913.324    22228918.470
  23502039.172    -5666363.10849  -4404379.38646  23502038.887    23502047.018
  22483969.814     9493680.81049   7392947.19346  22483969.431    22483975.436
  20162348.610    -2007298.57949  -1556776.36248  20162347.927    20162354.541
  20650583.295   -15763476.39749 -11989041.73748  20650582.859    20650588.444
 04  7 15 17  6 30.0000000  0  8G22G 3G21G19G 9G18G15G14
  20796202.003      691507.67949    544133.16748  20796201.819    20796205.523
  21896969.762     -123654.37249    -83267.09347  21896969.433    21896976.614
  23366489.566    12072094.98049   9400449.90545  23366488.986    23366496.596
  22222280.480   -13866131.50249 -10785328.38547  22222279.506    22222284.624
  23503481.013    -5658786.18849  -4398475.32546  23503480.739    23503488.957
  22497534.439     9564963.00549   7448491.71946  22497534.001    22497540.058
  20167704.740    -1979152.07649  -1534844.03648  20167704.059    20167710.671
  20641522.854   -15811089.56349 -12026142.89048  20641522.421    20641527.963
 04  7 15 17  7  0.0000000  0  8G22G 3G21G19G 9G18G15G14
  20802295.622      723529.72049    569085.38948  20802295.441    20802299.147
  21906615.865      -72964.10449    -43768.21947  21906615.526    21906622.725
  23384413.450    12166284.08649   9473843.88545  23384412.727    23384420.369
  22215752.744   -13900435.22449 -10812058.56947  22215751.725    22215756.831
  23505039.919    -5650594.16149  -4392091.94746  23505039.659    23505047.847
  22511120.695     9636359.04949   7504124.95746  22511120.275    22511126.296
  20173147.282    -1950551.60749  -1512557.97548  20173146.591    20173153.174
  20632562.110   -15858178.64649 -12062835.66448  20632561.665    20632567.185
 04  7 15 17  7 30.0000000  0  8G22G 3G21G19G 9G18G15G14
  20808432.325      755778.22449    594214.07548  20808432.142    20808435.843
  21916350.581      -21807.82449     -3906.22247  21916350.246    21916357.467
  23402379.780    12260697.94449   9547413.00045  23402379.170    23402386.838
  22209331.175   -13934180.47149 -10838353.55747  22209330.201    22209335.386
  23506715.978    -5641786.56849  -4385228.92546  23506715.719    23506723.815
  22524728.548     9707868.27949   7559846.38646  22524728.105    22524734.100
  20178676.242    -1921496.93849  -1489917.99548  20178675.544    20178682.115
  20623701.271   -15904742.67449 -12099119.31048  20623700.849    20623706.340
 04  7 15 17  8  0.0000000  0  8G22G 3G21G19G 9G18G15G14
  20814612.083      788252.81049    619518.93248  20814611.884    20814615.573
  21926173.631       29812.55749     36317.42247  21926173.296    21926180.573
  23420388.756    12355335.44049   9621156.35445  23420388.222    23420395.958
  22203016.199   -13967365.93649 -10864212.36147  22203015.232    22203020.432
  23508509.155    -5632363.05049  -4377885.95446  23508508.927    23508517.050
  22538357.817     9779489.99849   7615655.48046  22538357.350    22538363.311
  20184291.756    -1891987.49649  -1466923.64048  20184291.046    20184297.622
  20614940.620   -15950780.26949 -12134992.74348  20614940.174    20614945.656
 04  7 15 17  8 30.0000000  0  8G22G 3G21G19G 9G18G15G14
  20820834.554      820952.00549    644998.80648  20820834.376    20820838.056
  21936084.492       81894.23049     76900.50547  21936084.175    21936091.429
  23438440.046    12450195.26949   9695072.97445  23438439.515    23438447.312
  22196807.854   -13999990.77649 -10889634.32347  22196806.880    22196812.036
  23510419.638    -5622323.74849  -4370063.15846  23510419.385    23510427.544
  22552008.239     9851223.00249   7671551.27946  22552007.740    22552013.691
  20189993.690    -1862023.48049  -1443575.07648  20189992.989    20189999.594
  20606280.217   -15996290.98549 -12170455.62148  20606279.789    20606285.242
 04  7 15 17  9  0.0000000  0  8G22G 3G21G19G 9G18G15G14
  20827099.713      853875.28949    670653.29948  20827099.519    20827103.201
  21946082.773      134435.27849    117841.55247  21946082.423    21946089.667
  23456533.474    12545276.45749   9769162.06545  23456532.931    23456540.820
  22190706.462   -14032053.59749 -10914618.34847  22190705.504    22190710.683
  23512447.362    -5611668.24949  -4361760.20046  23512447.082    23512455.255
  22565679.725     9923066.97649   7727533.54846  22565679.225    22565685.209
  20195782.262    -1831604.28949  -1419871.83648  20195781.561    20195788.211
  20597720.302   -16041273.70149 -12205507.07348  20597719.865    20597725.285
 04  7 15 17  9 30.0000000  0  8G22G 3G21G19G 9G18G15G14
  20833407.345      887022.01149    696481.89448  20833407.162    20833410.831
  21956168.082      187433.91149    159139.15347  21956167.761    21956175.004
  23474668.840    12640577.69049   9843422.61045  23474668.315    23474676.219
  22184712.232   -14063553.61149 -10939163.82347  22184711.264    22184716.480
  23514592.360    -5600396.26949  -4352976.87746  23514592.076    23514600.275
  22579372.143     9995021.14749   7783601.68546  22579371.636    22579377.694
  20201657.506    -1800729.64249  -1395813.69448  20201656.804    20201663.492
  20589260.979   -16085727.68549 -12240146.52848  20589260.542    20589265.945
 04  7 15 17 10  0.0000000  0  8G22G 3G21G19G 9G18G15G14
  20839757.254      920391.01249    722483.69948  20839757.066    20839760.765
  21966340.022      240887.69949    200791.42747  21966339.689    21966346.932
  23492845.948    12736097.78749   9917853.72945  23492845.382    23492853.212
  22178825.288   -14094489.52849 -10963269.73747  22178824.320    22178829.573
  23516854.613    -5588507.99049  -4343713.31246  23516854.400    23516862.533
  22593085.351    10067084.69349   7839755.04746  22593084.853    22593090.985
  20207619.498    -1769399.41049  -1371400.54548  20207618.777    20207625.483
  20580902.472   -16129652.03749 -12274373.28348  20580902.028    20580907.403
 04  7 15 17 10 30.0000000  0  8G22G 3G21G19G 9G18G15G14
  20846149.301      953981.32549    748657.95048  20846149.111    20846152.799
  21976598.068      294794.15349    242796.41747  21976597.738    21976605.044
  23511064.364    12831835.61849   9992454.49545  23511063.729    23511071.679
  22173045.903   -14124860.36649 -10986935.32947  22173044.960    22173050.199
  23519234.144    -5576003.36549  -4333969.48746  23519233.913    23519242.014
  22606819.292    10139256.96049   7895993.13446  22606818.825    22606824.948
  20213668.141    -1737613.46349  -1346632.30448  20213667.419    20213674.160
  20572644.827   -16173046.20549 -12308186.90748  20572644.385    20572649.755
 04  7 15 17 11  0.0000000  0  8G22G 3G21G19G 9G18G15G14
  20852583.424      987792.69449    775004.45848  20852583.227    20852586.921
  21986941.936      349151.60049    285152.82847  21986941.627    21986948.938
  23529324.064    12927790.88549  10067224.68245  23529323.568    23529331.489
  22167374.418   -14154664.64549 -11010159.44947  22167373.446    22167378.632
  23521731.171    -5562881.77149  -4323744.89746  23521730.945    23521738.994
  22620573.927    10211537.73049   7952315.75546  22620573.423    22620579.546
  20219803.613    -1705371.28149  -1321508.55548  20219802.912    20219809.658
  20564488.356   -16215908.64349 -12341586.19748  20564487.921    20564493.302
 04  7 15 17 11 30.0000000  0  8G22G 3G21G19G 9G18G15G14
  20859059.325     1021823.83249    801522.21148  20859059.114    20859062.811
  21997371.288      403957.59249    327858.76047  21997370.927    21997378.243
  23547624.910    13023961.27549  10142162.53645  23547624.300    23547632.113
  22161810.838   -14183901.95849 -11032941.77647  22161809.838    22161814.985
  23524345.576    -5549143.39049  -4313039.71546  23524345.285    23524353.409
  22634348.964    10283925.51749   8008721.77946  22634348.446    22634354.527
  20226025.867    -1672673.10449  -1296029.47948  20226025.164    20226031.937
  20556433.083   -16258239.31149 -12374571.11948  20556432.648    20556438.009
 04  7 15 17 12  0.0000000  0  8G22G 3G21G19G 9G18G15G14
  20865576.830     1056073.44249    828210.20548  20865576.642    20865580.322
  22007885.336      459209.20049    370911.92247  22007885.008    22007892.305
  23565966.286    13120345.45149  10217266.96145  23565965.712    23565973.603
  22156355.161   -14212571.72549 -11055281.85747  22156354.175    22156359.326
  23527077.165    -5534788.99549  -4301854.50046  23527076.854    23527084.990
  22648144.081    10356419.50249   8065210.54846  22648143.627    22648149.647
  20232334.823    -1639519.29249  -1270195.36548  20232334.157    20232340.918
  20548479.104   -16300037.79249 -12407141.35048  20548478.664    20548484.015
 04  7 15 17 12 30.0000000  0  8G22G 3G21G19G 9G18G15G14
  20872135.994     1090541.98649    855068.79748  20872135.791    20872139.486
  22018484.051      514905.50649    414311.61247  22018483.701    22018490.949
  23584348.335    13216943.55449  10292538.07445  23584347.866    23584355.834
  22151007.883   -14240671.63149 -11077177.89347  22151006.927    22151012.067
  23529926.205    -5519817.24549  -4290188.22946  23529925.901    23529934.084
  22661959.542    10429019.91849   8121782.24146  22661959.082    22661965.104
  20238730.754    -1605908.47749  -1244005.14548  20238730.089    20238736.865
  20540626.769   -16341302.10249 -12439295.34148  20540626.320    20540631.688
 04  7 15 17 13  0.0000000  0  8G22G 3G21G19G 9G18G15G14
  20878736.538     1125227.91049    882096.77948  20878736.302    20878740.007
  22029166.809      571043.40449    458055.39847  22029166.435    22029173.685
  23602770.699    13313753.25649  10367974.04945  23602770.192    23602778.261
  22145769.147   -14268201.64149 -11098629.86747  22145768.164    22145773.312
  23532892.536    -5504229.11249  -4278041.67046  23532892.277    23532900.409
  22675794.979    10501725.53749   8178435.91346  22675794.524    22675800.568
  20245213.538    -1571841.38349  -1217459.39048  20245212.861    20245219.638
  20532876.060   -16382032.25149 -12471033.10548  20532875.626    20532880.981
 04  7 15 17 13 30.0000000  0  8G22G 3G21G19G 9G18G15G14
  20885378.242     1160130.23449    909293.38048  20885378.014    20885381.731
  22039933.000      627620.34249    502141.29047  22039932.662    22039939.955
  23621233.098    13410773.48049  10443574.08245  23621232.601    23621240.681
  22140638.903   -14295160.97649 -11119637.14947  22140637.935    22140643.145
  23535976.196    -5488024.75649  -4265414.94346  23535975.873    23535984.075
  22689650.223    10574535.22849   8235170.69846  22689649.782    22689655.786
  20251783.141    -1537318.09649  -1190558.15548  20251782.453    20251789.253
  20525227.110   -16422227.77249 -12502354.27948  20525226.671    20525231.987
 04  7 15 17 14  0.0000000  0  8G22G 3G21G19G 9G18G15G14
  20892061.029     1195248.61849    936658.34648  20892060.817    20892064.541
  22050782.519      684634.71849    546568.03847  22050782.141    22050789.470
  23639735.483    13508003.82249  10519337.86145  23639734.981    23639743.049
  22135617.570   -14321548.27649 -11140198.68947  22135616.621    22135621.862
  23539177.064    -5471203.95349  -4252307.86046  23539176.697    23539184.932
  22703525.367    10647449.32749   8291986.82146  22703524.936    22703530.931
  20258439.643    -1502337.92749  -1163300.91748  20258438.955    20258445.777
  20517680.123   -16461887.41849 -12533257.88848  20517679.676    20517684.985
 04  7 15 17 14 30.0000000  0  8G22G 3G21G19G 9G18G15G14
  20898784.705     1230581.66549    964190.57748  20898784.493    20898788.215
  22061714.698      742083.64449    591333.39747  22061714.353    22061721.673
  23658277.551    13605442.05849  10595263.61345  23658277.055    23658285.116
  22130705.246   -14347363.11149 -11160314.15847  22130704.272    22130709.477
  23542495.203    -5453767.22649  -4238720.82346  23542494.900    23542503.102
  22717420.064    10720466.29449   8348883.10646  22717419.678    22717425.620
  20265183.066    -1466901.31049  -1135687.99548  20265182.366    20265189.182
  20510235.132   -16501011.07949 -12563743.84148  20510234.680    20510239.999
 04  7 15 17 15  0.0000000  0  8G22G 3G21G19G 9G18G15G14
  20905549.162     1266129.04049    991889.81548  20905548.950    20905552.679
  22072729.287      799965.08349    636435.78547  22072728.907    22072736.172
  23676859.112    13703087.55549  10671350.87445  23676858.532    23676866.680
  22125902.026   -14372604.34449 -11179982.65547  22125901.048    22125906.268
  23545930.572    -5435714.11749  -4224653.50646  23545930.281    23545938.590
  22731334.336    10793585.93349   8405859.40646  22731333.935    22731339.830
  20272013.358    -1431007.92549  -1107719.15448  20272012.658    20272019.487
  20502892.286   -16539597.77549 -12593811.38148  20502891.823    20502897.146
 04  7 15 17 15 30.0000000  0  8G22G 3G21G19G 9G18G15G14
  20912354.187     1301889.74249   1019755.27848  20912353.989    20912357.705
  22083825.626      858276.64449    681873.33847  22083825.276    22083832.539
  23695479.688    13800938.85449  10747598.48945  23695479.191    23695487.416
  22121208.135   -14397271.18449 -11199203.58047  22121207.157    22121212.321
  23549483.214    -5417045.07249  -4210106.23746  23549482.982    23549491.326
  22745268.001    10866807.63149   8462915.21246  22745267.539    22745273.437
  20278930.581    -1394657.66049  -1079394.30648  20278929.899    20278936.732
  20495651.748   -16577646.90849 -12623460.04148  20495651.296    20495656.635
 04  7 15 17 16  0.0000000  0  8G22G 3G21G19G 9G18G15G14
  20919199.563     1337862.33649   1047785.85448  20919199.350    20919203.076
  22095003.174      917014.90649    727643.38247  22095002.788    22095010.087
  23714139.084    13898993.84649  10824004.83045  23714138.593    23714146.851
  22116623.431   -14421363.61549 -11217976.91347  22116622.501    22116627.625
  23553152.869    -5397761.22149  -4195079.88446  23553152.612    23553161.000
  22759220.760    10940129.91949   8520049.41946  22759220.340    22759226.259
  20285934.667    -1357851.17849  -1050713.96148  20285933.980    20285940.794
  20488513.470   -16615158.75449 -12652690.03648  20488513.008    20488518.368
 04  7 15 17 16 30.0000000  0  8G22G 3G21G19G 9G18G15G14
  20926085.389     1374047.49549   1075982.06948  20926085.193    20926088.910
  22106261.786      976179.40449    773745.55847  22106261.434    22106268.746
  23732837.144    13997252.94749  10900570.25245  23732836.820    23732844.907
  22112148.506   -14444879.45849 -11236300.96447  22112147.569    22112152.723
  23556939.692    -5377861.30549  -4179573.48346  23556939.450    23556947.879
  22773192.799    11013553.26849   8577262.36546  22773192.378    22773198.288
  20293025.813    -1320587.06149  -1021677.01548  20293025.091    20293031.938
  20481477.863   -16652131.15849 -12681499.68548  20481477.398    20481482.754
 04  7 15 17 17  0.0000000  0  8G22G 3G21G19G 9G18G15G14
  20933011.438     1410444.05149   1104343.00648  20933011.238    20933014.959
  22117601.016     1035767.31449    820177.66547  22117600.654    22117607.953
  23751573.946    14095714.77849  10977293.60245  23751573.567    23751581.676
  22107783.413   -14467818.26749 -11254175.37247  22107782.491    22107787.673
  23560843.749    -5357345.67049  -4163587.29446  23560843.508    23560851.867
  22787183.974    11087076.93149   8634553.47446  22787183.531    22787189.461
  20300203.985    -1282865.49649   -992283.62148  20300203.292    20300210.154
  20474544.920   -16688564.04049 -12709888.92948  20474544.488    20474549.816
 04  7 15 17 17 30.0000000  0  8G22G 3G21G19G 9G18G15G14
  20939977.437     1447050.54449   1132867.52948  20939977.225    20939980.973
  22129020.178     1095775.29349    866937.11047  22129019.829    22129027.102
  23770348.807    14194377.00449  11054173.11345  23770348.410    23770356.764
  22103528.137   -14490180.06349 -11271600.15947  22103527.187    22103532.387
  23564864.775    -5336215.48149  -4147122.23046  23564864.523    23564872.816
  22801193.885    11160699.42249   8691921.59646  22801193.472    22801199.395
  20307469.041    -1244687.48449   -962534.55348  20307468.352    20307475.203
  20467714.603   -16724457.58249 -12737857.90948  20467714.176    20467719.491
 04  7 15 17 18  0.0000000  0  8G22G 3G21G19G 9G18G15G14
  20946983.391     1483867.13149   1161555.76348  20946983.205    20946986.961
  22140519.039     1156202.03249    914022.85747  22140518.678    22140525.961
  23789161.710    14293239.34749  11131208.54545  23789161.207    23789169.818
  22099382.935   -14511963.16549 -11288574.01847  22099381.996    22099387.168
  23569002.806    -5314470.16349  -4130177.84846  23569002.529    23569010.728
  22815222.752    11234421.32549   8749367.17446  22815222.340    22815228.284
  20314821.135    -1206052.11549   -932429.10348  20314820.442    20314827.306
  20460987.182   -16759810.36449 -12765405.51748  20460986.754    20460992.071
 04  7 15 17 18 30.0000000  0  8G22G 3G21G19G 9G18G15G14
  20954028.946     1520891.64349   1190406.01348  20954028.738    20954032.507
  22152096.899     1217044.04049    961432.18347  22152096.552    22152103.890
  23808012.493    14392299.49149  11208398.12145  23808011.886    23808020.462
  22095347.787   -14533168.25849 -11305097.46947  22095346.810    22095351.964
  23573257.508    -5292111.41349  -4112755.45846  23573257.294    23573265.375
  22829270.123    11308240.41049   8806888.48946  22829269.675    22829275.722
  20322260.040    -1166960.66449   -901968.27048  20322259.353    20322266.213
  20454362.559   -16794623.01449 -12792532.24248  20454362.130    20454367.426
 04  7 15 17 19  0.0000000  0  8G22G 3G21G19G 9G18G15G14
  20961114.088     1558124.48549   1219418.60348  20961113.883    20961117.692
  22163753.439     1278299.54449   1009163.71747  22163753.113    22163760.508
  23826900.679    14491557.07849  11285741.56045  23826900.170    23826908.709
  22091422.941   -14553793.57249 -11321169.15747  22091421.947    22091427.034
  23577629.109    -5269138.55249  -4094854.54346  23577628.887    23577637.027
  22843336.096    11382157.35349   8864486.04846  22843335.668    22843341.771
  20329785.944    -1127412.02249   -871151.18048  20329785.242    20329792.084
  20447840.986   -16828893.98149 -12819236.87348  20447840.555    20447845.824
 04  7 15 17 19 30.0000000  0  8G22G 3G21G19G 9G18G15G14
  20968238.589     1595564.05049   1248592.27048  20968238.391    20968242.215
  22175488.113     1339965.55049   1057215.11047  22175487.759    22175495.176
  23845826.018    14591009.89449  11363237.09845  23845825.468    23845833.982
  22087608.372   -14573839.14449 -11336789.09347  22087607.408    22087612.457
  23582117.417    -5245552.77649  -4076476.01746  23582117.110    23582125.212
  22857420.450    11456170.81549   8922158.81146  22857419.988    22857426.122
  20337398.687    -1087406.95149   -839978.43048  20337398.002    20337404.829
  20441422.401   -16862623.77849 -12845519.81748  20441421.978    20441427.225
 04  7 15 17 20  0.0000000  0  8G22G 3G21G19G 9G18G15G14
  20975402.416     1633210.22649   1277926.93848  20975402.221    20975406.061
  22187300.538     1402040.23149   1105584.96347  22187300.192    22187307.655
  23864788.422    14690657.56249  11440884.47845  23864787.882    23864796.330
  22083904.378   -14593303.94949 -11351956.47347  22083903.422    22083908.514
  23586722.266    -5221353.74949  -4057619.62345  23586722.032    23586730.159
  22871523.143    11530280.70549   8979906.69546  22871522.654    22871528.879
  20345098.386    -1046945.04149   -808449.70448  20345097.692    20345104.528
  20435107.020   -16895811.21249 -12871380.13848  20435106.600    20435111.867
 04  7 15 17 20 30.0000000  0  8G22G 3G21G19G 9G18G15G14
  20982605.358     1671062.01849   1307421.82148  20982605.175    20982608.994
  22199190.188     1464520.77749   1154271.07147  22199189.851    22199197.363
  23883787.652    14790498.34249  11518682.32745  23883787.087    23883795.624
  22080310.898   -14612187.60849 -11366671.01547  22080309.910    22080315.054
  23591443.671    -5196542.34049  -4038286.05945  23591443.453    23591451.612
  22885643.980    11604486.07949   9037729.01346  22885643.519    22885649.755
  20352884.944    -1006026.62749   -776565.26048  20352884.251    20352891.099
  20428894.860   -16928456.24649 -12896817.80848  20428894.431    20428899.698
 04  7 15 17 21  0.0000000  0  8G22G 3G21G19G 9G18G15G14
  20989847.381     1709118.92349   1337076.53648  20989847.191    20989850.970
  22211156.585     1527404.54049   1203271.37447  22211156.256    22211163.731
  23902823.386    14890531.15449  11596629.79645  23902822.750    23902831.324
  22076828.212   -14630489.41049 -11380932.16547  22076827.240    22076832.358
  23596281.568    -5171119.19449  -4018475.81445  23596281.255    23596289.449
  22899782.973    11678786.94349   9095625.71346  22899782.521    22899788.856
  20360758.359     -964651.64849   -744325.05448  20360757.661    20360764.504
  20422786.034   -16960558.49549 -12921832.53248  20422785.590    20422790.834
 04  7 15 17 21 30.0000000  0  8G22G 3G21G19G 9G18G15G14
  20997128.292     1747380.30049   1366890.57948  20997128.091    20997131.901
  22223199.408     1590689.59149   1252584.36547  22223199.029    22223206.487
  23921895.465    14990754.76749  11674725.97545  23921894.907    23921903.260
  22073456.309   -14648208.65249 -11394739.37647  22073455.335    22073460.535
  23601235.661    -5145084.47449  -3998189.03445  23601235.425    23601243.759
  22913939.921    11753182.52049   9153596.22546  22913939.569    22913945.935
  20368718.677     -922819.99949   -711729.00148  20368718.010    20368724.867
  20416780.569   -16992117.27749 -12946423.77748  20416780.157    20416785.360
 04  7 15 17 22  0.0000000  0  8G22G 3G21G19G 9G18G15G14
  21004448.008     1785845.71849   1396863.61148  21004447.803    21004451.638
  22235318.093     1654373.82349   1302208.41147  22235317.780    22235325.288
  23941003.662    15091168.22649  11752970.05245  23941003.108    23941011.354
  22070195.434   -14665344.47749 -11408091.97947  22070194.462    22070199.727
  23606306.274    -5118438.23549  -3977425.73045  23606306.035    23606314.464
  22928114.845    11827672.26249   9211640.10846  22928114.477    22928120.944
  20376765.899     -880531.67549   -678777.09848  20376765.239    20376772.115
  20410878.733   -17023131.82149 -12970590.94048  20410878.283    20410883.479
 04  7 15 17 22 30.0000000  0  8G22G 3G21G19G 9G18G15G14
  21011806.215     1824513.29849   1426994.16848  21011806.029    21011809.882
  22247512.091     1718453.59149   1352140.66547  22247511.758    22247519.226
  23960147.411    15191769.55349  11831360.52245  23960146.835    23960155.252
  22067045.426   -14681897.39049 -11420990.36847  22067044.483    22067049.787
  23611493.049    -5091182.07049  -3956187.16245  23611492.784    23611501.119
  22942307.452    11902254.79249   9269756.30746  22942307.061    22942313.615
  20384899.883     -837787.56349   -645470.03848  20384899.208    20384906.083
  20405080.232   -17053602.90449 -12994334.63248  20405079.797    20405085.013
 04  7 15 17 23  0.0000000  0  8G22G 3G21G19G 9G18G15G14
  21019203.005     1863383.56549   1457282.66748  21019202.819    21019206.676
  22259781.002     1782927.10849   1402379.73547  22259780.684    22259788.133
  23979327.028    15292558.32049  11909897.05945  23979326.497    23979334.879
  22064006.730   -14697865.94049 -11433433.40847  22064005.787    22064011.103
  23616795.918    -5063315.54849  -3934472.98245  23616795.573    23616803.890
  22956517.903    11976930.65549   9327945.22046  22956517.533    22956524.053
  20393120.731     -794587.05049   -611807.33748  20393120.057    20393126.911
  20399385.428   -17083529.31949 -13017653.89948  20399384.990    20399390.205
 04  7 15 17 23 30.0000000  0  8G22G 3G21G19G 9G18G15G14
  21026637.791     1902453.70049   1487726.91148  21026637.622    21026641.480
  22272124.019     1847789.89049   1452922.12947  22272123.690    22272131.131
  23998541.699    15393530.83849  11988576.78845  23998541.135    23998549.532
  22061078.868   -14713251.68249 -11445422.30247  22061077.964    22061083.319
  23622214.362    -5034841.43549  -3912285.37845  23622214.032    23622222.291
  22970745.478    12051697.03149   9386204.67446  22970745.115    22970751.656
  20401427.946     -750932.30549   -577790.69148  20401427.276    20401434.139
  20393793.943   -17112912.77349 -13040550.08248  20393793.521    20393798.727
 04  7 15 17 24  0.0000000  0  8G22G 3G21G19G 9G18G15G14
  21034110.866     1941724.79049   1518327.73648  21034110.678    21034114.543
  22284541.048     1913041.58149   1503767.57147  22284540.723    22284548.150
  24017791.378    15494687.95549  12067400.33945  24017790.739    24017799.215
  22058262.467   -14728052.21049 -11456955.19447  22058261.553    22058266.833
  23627748.639    -5005758.31249  -3889623.21545  23627748.370    23627756.686
  22984990.621    12126555.33449   9444535.77146  22984990.212    22984996.742
  20409822.002     -706821.44349   -543418.63148  20409821.325    20409828.213
  20388306.212   -17141750.94649 -13063021.37148  20388305.790    20388310.984
 04  7 15 17 24 30.0000000  0  8G22G 3G21G19G 9G18G15G14
  21041621.992     1981195.87349   1549084.40048  21041621.808    21041625.674
  22297031.545     1978679.16549   1554913.70547  22297031.136    22297038.602
  24037075.918    15596027.78149  12146366.27945  24037075.218    24037083.770
  22055557.361   -14742267.92149 -11468032.38747  22055556.416    22055561.671
  23633398.624    -4976067.36549  -3866487.42946  23633398.338    23633406.792
  22999252.975    12201504.68949   9502937.79646  22999252.648    22999259.144
  20418302.708     -662255.16249   -508691.69848  20418302.014    20418308.921
  20382922.220   -17170044.03649 -13085067.92448  20382921.807    20382926.982
 04  7 15 17 25  0.0000000  0  8G22G 3G21G19G 9G18G15G14
  21049171.002     2020865.92949   1579996.11148  21049170.812    21049174.690
  22309594.819     2044699.76649   1606358.29447  22309594.459    22309601.977
  24056394.806    15697548.87849  12225473.47745  24056394.214    24056402.742
  22052963.578   -14755898.30449 -11478653.47247  22052962.642    22052967.863
  23639164.162    -4945769.44149  -3842878.65946  23639163.917    23639172.380
  23013532.689    12276544.90849   9561410.64346  23013532.393    23013538.860
  20426870.008     -617233.82149   -473610.16948  20426869.323    20426876.209
  20377641.957   -17197792.06449 -13106689.74648  20377641.532    20377646.725
 04  7 15 17 25 30.0000000  0  8G22G 3G21G19G 9G18G15G14
  21056757.854     2060734.89649   1611062.81348  21056757.660    21056761.509
  22322230.590     2111101.09749   1658099.56546  22322230.232    22322237.743
  24075747.960    15799250.27349  12304721.13445  24075747.326    24075756.060
  22050481.348   -14768942.51449 -11488817.81047  22050480.440    22050485.621
  23645045.146    -4914864.95549  -3818797.25946  23645044.856    23645053.296
  23027829.685    12351675.54549   9619953.94246  23027829.335    23027835.784
  20435523.976     -571757.05649   -438173.76548  20435523.292    20435530.197
  20372465.528   -17224994.47849 -13127886.42048  20372465.106    20372470.251
 04  7 15 17 26  0.0000000  0  8G22G 3G21G19G 9G18G15G14
  21064382.323     2100801.52649   1642283.54748  21064382.112    21064385.941
  22334938.238     2177880.44949   1710135.38646  22334937.904    22334945.502
  24095135.128    15901130.48749  12384108.16745  24095134.516    24095143.364
  22048110.645   -14781400.76449 -11498525.54647  22048109.711    22048114.914
  23651041.313    -4883355.08449  -3794244.14445  23651040.975    23651049.282
  23042143.549    12426895.31549   9678566.71046  23042143.215    23042149.664
  20444264.434     -525825.69049   -402383.12448  20444263.741    20444270.666
  20367392.904   -17251651.28849 -13148657.94748  20367392.458    20367397.592
 04  7 15 17 26 30.0000000  0  8G22G 3G21G19G 9G18G15G14
  21072044.244     2141065.24249   1673657.84848  21072044.047    21072047.868
  22347717.369     2245034.99149   1762463.56246  22347717.027    22347724.570
  24114556.219    16003187.98949  12463633.34145  24114555.551    24114564.520
  22045851.506   -14793272.75249 -11507776.46847  22045850.595    22045855.781
  23657152.458    -4851240.62949  -3769219.90845  23657152.114    23657160.472
  23056474.352    12502203.69649   9737248.50746  23056474.025    23056480.422
  20453091.313     -479440.39549   -366238.77748  20453090.620    20453097.535
  20362424.074   -17277762.47549 -13169004.31348  20362423.638    20362428.756
 04  7 15 17 27  0.0000000  0  8G22G 3G21G19G 9G18G15G14
  21079743.560     2181525.13849   1705185.01948  21079743.337    21079747.163
  22360567.392     2312562.18649   1815082.10946  22360567.081    22360574.583
  24134010.621    16105421.14949  12543295.34345  24134009.962    24134018.911
  22043704.031   -14804558.19549 -11516570.33447  22043703.082    22043708.293
  23663378.401    -4818522.43049  -3743725.24245  23663378.175    23663386.555
  23070821.836    12577600.28449   9795999.03646  23070821.502    23070827.896
  20462004.572     -432601.10449   -329740.66248  20462003.869    20462010.783
  20357559.075   -17303328.09849 -13188925.56048  20357558.616    20357563.761
 04  7 15 17 27 30.0000000  0  8G22G 3G21G19G 9G18G15G14
  21087479.991     2222180.42049   1736864.43948  21087479.781    21087483.621
  22373487.898     2380459.22549   1867988.84646  22373487.557    22373495.032
  24153498.045    16207828.68649  12623093.24945  24153497.572    24153506.737
  22041668.111   -14815257.11049 -11524907.15547  22041667.151    22041672.397
  23669719.095    -4785201.46949  -3717760.86045  23669718.795    23669727.282
  23085186.086    12653084.22449   9854817.63246  23085185.698    23085192.119
  20471004.108     -385308.21349   -292889.09048  20471003.399    20471010.374
  20352797.918   -17328348.04949 -13208421.60948  20352797.482    20352802.623
 04  7 15 17 28  0.0000000  0  8G22G 3G21G19G 9G18G15G14
  21095253.702     2263031.29549   1768696.26448  21095253.480    21095257.313
  22386478.351     2448724.22849   1921182.31146  22386477.964    22386485.425
  24173018.725    16310410.26149  12703026.80745  24173018.188    24173027.474
  22039744.010   -14825368.41849 -11532786.11747  22039743.053    22039748.261
  23676174.505    -4751277.93949  -3691326.95845  23676174.206    23676182.778
  23099566.984    12728656.25149   9913704.86446  23099566.622    23099573.089
  20480090.076     -337561.19049   -255683.65548  20480089.389    20480096.365
  20348140.804   -17352821.25049 -13227491.61948  20348140.366    20348145.508
 04  7 15 17 28 30.0000000  0  8G22G 3G21G19G 9G18G15G14
  21103064.253     2304075.96049   1800679.10248  21103064.043    21103067.883
  22399538.049     2517353.77149   1974659.83446  22399537.732    22399545.209
  24192572.233    16413163.02249  12783093.71545  24192571.681    24192580.778
  22037931.490   -14834893.27249 -11540208.09247  22037930.548    22037935.743
  23682744.086    -4716753.77849  -3664425.05845  23682743.817    23682752.476
  23113964.333    12804314.50449   9972659.29146  23113963.906    23113970.350
  20489262.212     -289361.40049   -218125.41348  20489261.499    20489268.527
  20343587.533   -17376748.92849 -13246136.54848  20343587.088    20343592.238
 04  7 15 17 29  0.0000000  0  8G22G 3G21G19G 9G18G15G14
  21110911.719     2345314.58749   1832813.07748  21110911.500    21110915.363
  22412666.911     2586345.66549   2028419.71746  22412666.504    22412673.954
  24212157.991    16516086.32349  12863293.50445  24212157.342    24212166.611
  22036230.756   -14843830.54849 -11547172.21847  22036229.825    22036235.068
  23689428.271    -4681629.12549  -3637055.22045  23689428.020    23689436.447
  23128378.111    12880059.10649  10031680.98646  23128377.717    23128384.129
  20498520.517     -240708.66149   -180214.22548  20498519.820    20498526.886
  20339138.196   -17400130.38449 -13264355.84848  20339137.738    20339142.901
 04  7 15 17 29 30.0000000  0  8G22G 3G21G19G 9G18G15G14
  21118795.877     2386746.09249   1865097.34948  21118795.662    21118799.566
  22425863.948     2655697.03649   2082459.70246  22425863.597    22425871.103
  24231775.871    16619178.75449  12943625.09445  24231775.311    24231784.629
  22034641.860   -14852180.28049 -11553678.51347  22034640.935    22034646.192
  23696226.431    -4645905.13749  -3609218.38445  23696226.144    23696234.504
  23142808.154    12955889.55049  10090769.58046  23142807.888    23142814.270
  20507864.989     -191603.37749   -141950.40948  20507864.301    20507871.390
  20334792.766   -17422965.85249 -13282149.70148  20334792.276    20334797.449
 04  7 15 17 30  0.0000000  0  9G22G11G 3G21G19G 9G18G15G14
  21126716.174     2428367.64649   1897529.71248  21126715.969    21126719.882
  24614291.461    -4100458.94749  -3171651.36645  24614291.340    24614298.401
  22439128.600     2725402.84249   2136775.88546  22439128.225    22439135.770
  24251425.264    16722436.56349  13024085.57845  24251424.678    24251434.023
  22033164.405   -14859944.82449 -11559728.81647  22033163.428    22033168.707
  23703137.911    -4609585.15549  -3580917.13445  23703137.629    23703146.065
  23157254.134    13031802.79849  10149922.67946  23157253.787    23157260.163
  20517295.105     -142048.10849   -103335.95348  20517294.393    20517301.443
  20330550.791   -17445257.41149 -13299519.73248  20330550.323    20330555.497
 04  7 15 17 30 30.0000000  0  9G22G11G 3G21G19G 9G18G15G14
  21134672.687     2470179.22249   1930110.14148  21134672.461    21134676.397
  24595208.235    -4200742.66349  -3249794.49845  24595208.042    24595215.028
  22452460.253     2795461.09849   2191366.69546  22452459.935    22452467.470
  24271106.051    16825858.59949  13104673.98245  24271105.523    24271114.728
  22031798.367   -14867123.37649 -11565322.50547  22031797.414    22031802.670
  23710162.650    -4572669.60549  -3552151.81445  23710162.366    23710170.876
  23171715.854    13107799.23049  10209140.62046  23171715.466    23171721.897
  20526810.836      -92042.72549    -64370.75948  20526810.135    20526817.166
  20326412.446   -17467004.43349 -13316465.44748  20326411.968    20326417.144
 04  7 15 17 31  0.0000000  0  9G22G11G 3G21G19G 9G18G15G14
  21142666.019     2512184.25849   1962841.31248  21142665.807    21142669.737
  24576137.525    -4300959.17749  -3327885.22145  24576137.395    24576144.425
  22465859.275     2865873.30549   2246233.31546  22465858.899    22465866.440
  24290818.637    16929448.23549  13185393.02245  24290817.986    24290827.474
  22030544.700   -14873711.61049 -11570456.20747  22030543.732    22030548.956
  23717301.423    -4535155.16649  -3522919.80145  23717301.194    23717309.747
  23186194.183    13183882.59749  10268426.28046  23186193.712    23186200.190
  20536412.933      -41583.54549    -25051.95748  20536412.228    20536419.242
  20322378.488   -17488203.06449 -13332983.85048  20322378.001    20322383.171
 04  7 15 17 31 30.0000000  0  9G22G11G 3G21G19G 9G18G15G14
  21150695.622     2554379.94549   1995721.05148  21150695.418    21150699.303
  24557079.779    -4401108.77349  -3405923.83745  24557079.577    24557086.762
  22479324.699     2936634.61949   2301371.95646  22479324.338    22479331.956
  24310562.395    17033201.92749  13266239.85045  24310561.847    24310571.382
  22029402.971   -14879711.56049 -11575131.50147  22029402.002    22029407.183
  23724553.594    -4497044.96749  -3493223.57045  23724553.393    23724561.943
  23200688.565    13260050.37349  10327777.73246  23200688.048    23200694.595
  20546100.964        9327.25349     14618.75748  20546100.261    20546107.242
  20318448.493   -17508855.09349 -13349076.32548  20318448.031    20318453.166
 04  7 15 17 32  0.0000000  0  9G22G11G 3G21G19G 9G18G15G14
  21158761.301     2596765.27049   2028748.55048  21158761.104    21158764.983
  24538035.050    -4501189.94149  -3483909.14645  24538034.722    24538041.833
  22492855.999     3007741.88349   2356780.17046  22492855.649    22492863.329
  24330337.038    17137117.27149  13347212.67545  24330336.648    24330346.008
  22028373.051   -14885124.00149 -11579348.99947  22028372.065    22028377.263
  23731918.704    -4458340.83549  -3463064.53845  23731918.504    23731927.208
  23215198.726    13336301.22249  10387193.90046  23215198.182    23215204.734
  20555874.747       60688.62949     54640.56948  20555874.055    20555881.057
  20314622.343   -17528961.57849 -13364743.70148  20314621.880    20314627.013
 04  7 15 17 32 30.0000000  0  9G22G11G 3G21G19G 9G18G15G14
  21166863.069     2639340.13149   2061923.74448  21166862.866    21166866.745
  24519003.578    -4601200.72849  -3561839.52745  24519003.177    24519010.605
  22506452.780     3079193.06749   2412456.37646  22506452.397    22506460.076
  24350142.234    17241193.47249  13428310.82645  24350141.587    24350151.236
  22027455.031   -14889948.28549 -11583108.18747  22027454.051    22027459.229
  23739396.832    -4419043.36349  -3432443.20545  23739396.558    23739405.245
  23229724.701    13412635.25649  10446674.90346  23229724.106    23229730.685
  20565734.237      112500.57749     95013.47748  20565733.539    20565740.542
  20310900.119   -17548521.75349 -13379985.38148  20310899.657    20310904.800
 04  7 15 17 33  0.0000000  0  9G22G11G 3G21G19G 9G18G15G14
  21175000.691     2682103.54049   2095245.85948  21175000.502    21175004.381
  24499985.684    -4701139.54249  -3639713.91045  24499985.393    24499992.644
  22520114.334     3150984.97949   2468398.08046  22520114.039    22520121.667
  24369977.621    17345429.06849  13509533.15745  24369976.966    24369986.843
  22026648.879   -14894184.75849 -11586409.35747  22026647.889    22026653.090
  23746987.554    -4379153.76749  -3401360.44745  23746987.312    23746995.987
  23244266.181    13489051.62049  10506220.05746  23244265.729    23244272.265
  20575679.372      164762.27149    135736.83648  20575678.654    20575685.673
  20307281.825   -17567536.00549 -13394801.66448  20307281.372    20307286.502
 04  7 15 17 33 30.0000000  0  9G22G11G 3G21G19G 9G18G15G14
  21183174.216     2725055.34449   2128714.77448  21183174.004    21183177.864
  24480982.043    -4801004.11949  -3717530.45045  24480981.749    24480989.105
  22533840.355     3223115.29049   2524603.48446  22533840.037    22533847.710
  24389843.298    17449823.03549  13590878.91045  24389842.753    24389852.401
  22025954.645   -14897833.00549 -11589252.16547  22025953.670    22025958.915
  23754690.941    -4338672.78749  -3369816.90245  23754690.690    23754699.345
  23258823.402    13565550.49949  10565829.50146  23258823.022    23258829.542
  20585710.030      217473.68449    176810.62348  20585709.320    20585716.338
  20303767.439   -17586004.25049 -13409192.49248  20303766.975    20303772.108
 04  7 15 17 34  0.0000000  0  9G22G11G 3G21G19G 9G18G15G14
  21191383.323     2768194.33749   2162329.55847  21191383.111    21191386.952
  24461992.874    -4900793.15649  -3795288.06945  24461992.575    24461999.908
  22547630.124     3295580.52949   2581069.85946  22547629.751    22547637.400
  24409738.729    17554372.88449  13672346.18245  24409738.180    24409747.634
  22025372.131   -14900893.84749 -11591637.24447  22025371.213    22025376.467
  23762506.365    -4297602.54349  -3337814.15245  23762506.129    23762514.802
  23273396.119    13642130.52149  10625502.19046  23273395.734    23273402.317
  20595826.032      270633.49349    218233.81048  20595825.337    20595832.369
  20300356.806   -17603927.14649 -13423158.37048  20300356.336    20300361.460
 04  7 15 17 34 30.0000000  0  9G22G11G 3G21G19G 9G18G15G14
  21199628.073     2811520.82849   2196090.43547  21199627.843    21199631.716
  24443018.542    -5000503.70649  -3872984.57545  24443018.270    24443025.644
  22561483.148     3368378.98249   2637795.87546  22561482.830    22561490.485
  24429663.675    17659078.54949  13753934.80645  24429663.085    24429672.777
  22024901.630   -14903366.52049 -11593564.01647  22024900.698    22024906.015
  23770433.898    -4255943.22149  -3305352.38245  23770433.641    23770442.395
  23287984.375    13718792.11749  10685238.42846  23287983.984    23287990.610
  20606027.535      324242.50949    260007.03148  20606026.824    20606033.853
  20297050.149   -17621303.88549 -13436698.67348  20297049.675    20297054.779
 04  7 15 17 35  0.0000000  0  8G22G11G 3G19G 9G18G15G14
  21207908.205     2855033.06849   2229996.05247  21207907.981    21207911.842
  24424059.198    -5100134.75649  -3950619.08745  24424059.036    24424066.488
  22575399.001     3441507.07449   2694778.74946  22575398.667    22575406.368
  22024542.911   -14905251.76549 -11595033.05247  22024541.947    22024547.288
  23778473.284    -4213696.96849  -3272433.28945  23778472.976    23778481.611
  23302588.059    13795534.27849  10745037.44346  23302587.574    23302594.214
  20616314.221      378299.14349    302129.04348  20616313.503    20616320.526
  20293847.167   -17638135.64749 -13449814.32248  20293846.702    20293851.785
 04  7 15 17 35 30.0000000  0  8G22G11G 3G19G 9G18G15G14
  21216224.280     2898734.29349   2264048.93747  21216224.064    21216227.921
  24405116.188    -5199680.84049  -4028187.42645  24405116.020    24405123.359
  22589377.648     3514965.55349   2752019.06846  22589377.309    22589385.103
  22024296.505   -14906546.45949 -11596041.91947  22024295.548    22024300.918
  23786624.714    -4170861.53649  -3239055.08245  23786624.482    23786632.937
  23317207.559    13872359.86349  10804901.45946  23317207.064    23317213.798
  20626686.638      432806.27949    344602.09648  20626685.912    20626692.922
  20290748.485   -17654419.28349 -13462502.85448  20290748.017    20290753.094
 04  7 15 17 36  0.0000000  0  8G22G11G 3G19G 9G18G15G14
  21224575.171     2942618.40749   2298244.33247  21224574.942    21224578.813
  24386188.666    -5299145.67549  -4105692.45245  24386188.393    24386195.757
  22603417.739     3588746.40149   2809510.57146  22603417.410    22603425.129
  22024161.476   -14907256.10149 -11596594.90247  22024160.531    22024165.885
  23794886.881    -4127443.33449  -3205222.75645  23794886.642    23794895.186
  23331841.788    13949263.21949  10864826.07846  23331841.332    23331848.093
  20637143.689      487758.20849    387421.74348  20637142.973    20637149.969
  20287753.053   -17670160.31049 -13474768.57848  20287752.601    20287757.676
 04  7 15 17 36 30.0000000  0  8G22G11G 3G19G 9G18G15G14
  21232960.963     2986685.87249   2332582.59647  21232960.727    21232964.597
  24367277.019    -5398526.34349  -4183131.85745  24367276.835    24367284.148
  22617518.935     3662847.90549   2867251.95446  22617518.538    22617526.226
  22024137.969   -14907379.83649 -11596691.33747  22024136.977    22024142.320
  23803259.882    -4083442.61749  -3170936.54345  23803259.557    23803268.152
  23346491.012    14026245.17949  10924811.95246  23346490.581    23346497.304
  20647685.477      543155.39249    430588.33748  20647684.745    20647691.740
  20284861.059   -17685357.92849 -13486610.86648  20284860.583    20284865.640
 04  7 15 17 37  0.0000000  0  8G22G11G 3G19G 9G18G15G14
  21241381.523     3030936.18649   2367063.33747  21241381.298    21241385.181
  24348382.050    -5497820.72549  -4260504.08145  24348381.886    24348388.959
  22631680.535     3737267.31149   2925241.05946  22631680.164    22631687.762
  22024225.809   -14906917.90049 -11596331.40447  22024224.836    22024230.217
  23811743.548    -4038860.63649  -3136197.38345  23811743.203    23811751.968
  23361155.082    14103305.20749  10984858.66145  23361154.739    23361161.467
  20658311.894      598997.52749    474101.64948  20658311.179    20658318.171
  20282072.457   -17700012.15749 -13498029.73648  20282071.974    20282077.033
 04  7 15 17 37 30.0000000  0  8G22G11G 3G19G 9G18G15G14
  21249836.801     3075368.88649   2401686.19447  21249836.564    21249840.459
  24329503.692    -5597026.88149  -4337807.50445  24329503.326    24329510.652
  22645902.117     3812001.77249   2983475.67046  22645901.729    22645909.245
  22024425.135   -14905870.46549 -11595515.24147  22024424.188    22024429.545
  23820337.670    -3993698.87249  -3101006.44745  23820337.243    23820346.003
  23375833.859    14180442.96349  11044965.91445  23375833.526    23375840.313
  20669022.889      655284.06849    517961.25148  20669022.174    20669029.158
  20279387.120   -17714123.50949 -13509025.58548  20279386.653    20279391.716
 04  7 15 17 38  0.0000000  0  8G22G11G 3G19G 9G18G15G14
  21258326.819     3119984.02649   2436451.21747  21258326.577    21258330.462
  24310642.688    -5696142.08149  -4415040.06245  24310642.392    24310649.640
  22660183.187     3887049.22349   3041954.13646  22660182.851    22660190.390
  22024735.983   -14904237.07749 -11594242.49447  22024735.043    22024740.393
  23829041.965    -3947957.86349  -3065364.15245  23829041.567    23829050.177
  23390527.570    14257658.58549  11105133.85945  23390527.194    23390534.049
  20679818.487      712015.13949    562167.23748  20679817.770    20679824.755
  20276805.215   -17727691.45549 -13519598.00148  20276804.760    20276809.840
 04  7 15 17 38 30.0000000  0  8G22G11G 3G19G 9G18G15G14
  21266851.348     3164780.76949   2471357.74747  21266851.125    21266854.977
  24291799.316    -5795164.63449  -4492200.47445  24291798.989    24291806.028
  22674523.322     3962406.72149   3100674.21246  22674522.974    22674530.494
  22025158.294   -14902018.22249 -11592513.53447  22025157.331    22025162.635
  23837856.166    -3901639.18249  -3029271.70445  23837855.776    23837864.343
  23405236.005    14334951.49749  11165362.02145  23405235.583    23405242.489
  20690698.477      769189.67849    606718.78948  20690697.758    20690704.764
  20274326.617   -17740716.53349 -13529747.40248  20274326.166    20274331.243
 04  7 15 17 39  0.0000000  0  8G22G11G 3G19G 9G18G15G14
  21275410.418     3209758.92049   2506405.63347  21275410.180    21275414.031
  24272973.756    -5894092.48349  -4569287.03545  24272973.420    24272980.648
  22688921.920     4038071.59949   3159633.79546  22688921.547    22688929.047
  22025691.920   -14899214.31049 -11590328.67547  22025690.902    22025696.275
  23846780.033    -3854744.34649  -2992730.30345  23846779.608    23846788.166
  23419959.148    14412321.45949  11225650.23445  23419958.710    23419965.574
  20701662.717      826807.32049    651615.60848  20701662.018    20701669.070
  20271951.254   -17753199.06549 -13539474.04348  20271950.791    20271955.870
 04  7 15 17 39 30.0000000  0  8G22G11G 3G19G 9G18G15G14
  21284003.834     3254917.61749   2541594.20547  21284003.611    21284007.451
  24254166.697    -5992923.75549  -4646298.37445  24254166.440    24254173.766
  22703378.359     4114040.97349   3218830.65346  22703378.018    22703385.622
  22026336.688   -14895825.88049 -11587688.36747  22026335.735    22026341.080
  23855813.245    -3807274.93949  -2955741.20845  23855812.865    23855821.241
  23434696.761    14489768.05149  11285998.14645  23434696.307    23434703.146
  20712711.213      884867.39249    696857.18347  20712710.499    20712717.570
  20269679.025   -17765139.66949 -13548778.40248  20269678.574    20269683.649
 04  7 15 17 40  0.0000000  0  8G22G11G 3G19G 9G18G15G14
  21292631.614     3300256.66349   2576923.30447  21292631.378    21292635.208
  24235378.333    -6091656.31549  -4723232.78945  24235378.067    24235385.493
  22717892.355     4190312.33149   3278262.81646  22717891.990    22717899.634
  22027092.821   -14891852.70949 -11584592.41447  22027091.832    22027097.180
  23864955.507    -3759231.75549  -2918304.98745  23864955.215    23864963.602
  23449448.990    14567291.02249  11346405.58645  23449448.544    23449455.381
  20723843.836      943369.62449    742443.29547  20723843.142    20723850.237
  20267509.919   -17776538.32349 -13557660.46548  20267509.455    20267514.552
 04  7 15 17 40 30.0000000  0  8G22G11G 3G19G 9G18G15G14
  21301293.476     3345774.81649   2612391.96947  21301293.221    21301297.042
  24216609.226    -6190288.75849  -4800089.20845  24216608.940    24216616.291
  22732463.281     4266882.29849   3337927.67046  22732462.844    22732470.515
  22027959.902   -14887295.94449 -11581041.70947  22027958.951    22027964.318
  23874206.657    -3710617.02049  -2880423.42745  23874206.320    23874214.713
  23464215.449    14644888.96649  11406871.43846  23464215.012    23464221.942
  20735060.309     1002312.62349    788372.86847  20735059.617    20735066.747
  20265443.765   -17787396.01749 -13566120.99948  20265443.296    20265448.399
 04  7 15 17 41  0.0000000  0  8G22G11G 3G19G 9G18G15G14
  21309989.408     3391472.19449   2648000.29147  21309989.152    21309992.970
  24197859.591    -6288818.56049  -4876865.62445  24197859.301    24197866.697
  22747090.364     4343748.30949   3397823.20646  22747089.997    22747097.577
  22028938.141   -14882155.47349 -11577036.17047  22028937.194    22028942.524
  23883566.344    -3661431.95149  -2842097.43345  23883565.962    23883574.422
  23478996.359    14722562.72249  11467396.35746  23478995.899    23479002.926
  20746360.705     1061696.29249    834645.81847  20746360.004    20746367.156
  20263480.607   -17797712.46749 -13574159.78448  20263480.135    20263485.259
 04  7 15 17 41 30.0000000  0  8G22G11G 3G19G 9G18G15G14
  21318719.262     3437347.71549   2683747.42247  21318718.998    21318722.821
  24179129.939    -6387244.04449  -4953560.76445  24179129.547    24179136.877
  22761773.449     4420907.55149   3457947.24446  22761773.052    22761780.559
  22030027.295   -14876432.00649 -11572576.34847  22030026.350    22030031.664
  23893034.115    -3611678.35549  -2803328.46345  23893033.777    23893042.353
  23493791.573    14800311.48249  11527979.72146  23493791.067    23493798.186
  20757744.731     1121519.59449    881261.34047  20757744.013    20757751.172
  20261620.239   -17807488.63149 -13581777.56948  20261619.783    20261624.918
 04  7 15 17 42  0.0000000  0  8G22G11G 3G19G 9G18G15G14
  21327482.842     3483400.78749   2719632.90547  21327482.591    21327486.467
  24160420.494    -6485563.50449  -5030173.27445  24160419.940    24160427.315
  22776511.647     4498357.01149   3518297.41146  22776511.240    22776518.809
  22031227.266   -14870126.46649 -11567662.96947  22031226.289    22031231.600
  23902609.670    -3561358.10649  -2764117.91045  23902609.328    23902617.960
  23508600.835    14878134.48349  11588620.93046  23508600.355    23508607.471
  20769212.233     1181781.55949    928218.68447  20769211.524    20769218.711
  20259862.540   -17816725.27649 -13588974.94748  20259862.099    20259867.242
 04  7 15 17 42 30.0000000  0  8G22G11G 3G19G 9G18G15G14
  21336280.211     3529631.33949   2755656.68247  21336279.981    21336283.876
  24141731.626    -6583774.24249  -5106701.06945  24141731.038    24141738.313
  22791304.449     4576094.29149   3578871.85446  22791304.128    22791311.810
  22032537.973   -14863238.72849 -11562295.92047  22032536.992    22032542.328
  23912292.957    -3510471.95449  -2724466.44445  23912292.594    23912301.372
  23523424.309    14956031.96349  11649320.17546  23523423.852    23523430.899
  20780763.237     1242482.17349    975517.83247  20780762.497    20780769.719
  20258207.562   -17825422.32449 -13595751.86048  20258207.115    20258212.259
 04  7 15 17 43  0.0000000  0  8G22G11G 3G19G 9G18G15G14
  21345111.333     3576038.95649   2791818.43047  21345111.107    21345115.015
  24123063.794    -6681874.50049  -5183142.79745  24123063.161    24123070.394
  22806151.596     4654116.28149   3639668.15446  22806151.260    22806158.976
  22033959.329   -14855769.54449 -11556475.80847  22033958.328    22033963.722
  23922083.689    -3459021.72549  -2684375.38445  23922083.416    23922092.061
  23538261.792    15034003.32149  11710076.99946  23538261.360    23538268.410
  20792397.528     1303620.57049   1023158.10947  20792396.803    20792404.053
  20256655.133   -17833580.34249 -13602108.75448  20256654.680    20256659.812
 04  7 15 17 43 30.0000000  0  9G22G11G 3G25G19G 9G18G15G14
  21353975.112     3622618.31749   2828114.01147  21353974.881    21353978.788
  24104416.266    -6779867.11049  -5259500.61245  24104415.750    24104423.023
  22821051.490     4732415.53849   3700680.50846  22821051.135    22821058.853
  24498262.939    -5435948.86449  -4210738.92645  24498262.886    24498273.239
  22035490.378   -14847723.98049 -11550206.56347  22035489.418    22035494.759
  23931980.561    -3407013.56749  -2643849.59845  23931980.254    23931988.778
  23553112.455    15112043.52349  11770887.46846  23553112.050    23553119.032
  20804114.037     1365191.32349   1071135.28647  20804113.312    20804120.583
  20255204.304   -17841204.59049 -13608049.72048  20255203.834    20255208.935
 04  7 15 17 44  0.0000000  0  9G22G11G 3G25G19G 9G18G15G14
  21362872.643     3669374.92049   2864547.69947  21362872.421    21362876.310
  24085790.926    -6877743.73449  -5335768.06945  24085790.375    24085797.630
  22836004.758     4810995.22449   3761911.37646  22836004.373    22836012.137
  24479201.053    -5536119.08149  -4288793.53745  24479200.863    24479211.412
  22037132.140   -14839096.70249 -11543484.03247  22037131.161    22037136.498
  23941984.359    -3354443.45649  -2602885.88545  23941984.049    23941992.510
  23567977.302    15190158.15949  11831755.92146  23567976.909    23567983.890
  20815913.848     1427199.45149   1119453.27247  20815913.123    20815920.374
  20253856.019   -17848289.78749 -13613570.64748  20253855.568    20253860.646
 04  7 15 17 44 30.0000000  0  9G22G11G 3G25G19G 9G18G15G14
  21371803.715     3716308.11249   2901118.99347  21371803.508    21371807.428
  24067187.824    -6975502.68349  -5411943.80945  24067187.293    24067194.744
  22851010.689     4889852.19049   3823358.30446  22851010.355    22851018.137
  24460133.929    -5636316.08149  -4366869.00845  24460133.792    24460144.438
  22038884.362   -14829888.41449 -11536308.76647  22038883.408    22038888.771
  23952094.848    -3301312.81249  -2561485.42445  23952094.510    23952103.086
  23582856.240    15268347.05149  11892682.24446  23582855.799    23582862.897
  20827796.743     1489644.32449   1168111.58347  20827796.007    20827803.283
  20252610.292   -17854836.27249 -13618671.79648  20252609.830    20252614.916
 04  7 15 17 45  0.0000000  0  9G22G11G 3G25G19G 9G18G15G14
  21380768.339     3763417.42749   2937827.51947  21380768.122    21380772.079
  24048607.522    -7073141.70249  -5488026.08345  24048607.076    24048614.646
  22866068.998     4968983.86449   3885019.29146  22866068.670    22866076.467
  24441062.437    -5736537.26749  -4444963.33345  24441062.214    24441072.757
  22040747.066   -14820100.04449 -11528681.49047  22040746.109    22040751.437
  23962311.648    -3247623.66349  -2519649.77045  23962311.337    23962319.919
  23597749.145    15346609.67649  11953666.01846  23597748.679    23597755.902
  20839762.552     1552524.92549   1217109.41947  20839761.813    20839769.094
  20251466.914   -17860844.81949 -13623353.77248  20251466.452    20251471.519
 04  7 15 17 45 30.0000000  0  9G22G11G 3G25G19G 9G18G15G14
  21389766.113     3810701.03149   2974671.85947  21389765.893    21389769.902
  24030050.324    -7170659.98649  -5564014.32145  24030050.012    24030057.421
  22881178.806     5048386.29049   3946891.24246  22881178.460    22881186.263
  24421986.511    -5836781.32349  -4523075.49245  24421986.381    24421996.768
  22042719.897   -14809732.87649 -11520603.20547  22042718.923    22042724.270
  23972634.215    -3193378.76749  -2477381.03845  23972633.930    23972642.306
  23612655.824    15424944.63349  12014706.14245  23612655.299    23612662.626
  20851810.943     1615839.55849   1266445.46647  20851810.202    20851817.469
  20250425.527   -17866317.28649 -13627618.02448  20250425.072    20250430.127
 04  7 15 17 46  0.0000000  0  9G22G11G 3G25G19G 9G18G15G14
  21398796.995     3858158.51749   3011651.69147  21398796.781    21398800.830
  24011516.447    -7268055.60549  -5639906.92445  24011516.164    24011523.634
  22896339.595     5128056.34949   4008971.74246  22896339.274    22896347.057
  24402906.772    -5937045.60549  -4601203.39645  24402906.630    24402917.011
  22044802.605   -14798788.09549 -11512074.82547  22044801.631    22044806.991
  23983062.119    -3138580.03449  -2434680.73345  23983061.901    23983069.902
  23627576.106    15503351.20649  12075802.08845  23627575.579    23627582.950
  20863941.745     1679587.17549   1316118.90147  20863941.004    20863948.294
  20249486.032   -17871254.30949 -13631465.04848  20249485.583    20249490.635
 04  7 15 17 46 30.0000000  0  9G22G11G 3G25G19G 9G18G15G14
  21407860.863     3905789.39049   3048766.62647  21407860.656    21407864.712
  23993006.409    -7365326.53949  -5715702.42945  23993006.127    23993013.474
  22911550.870     5207991.23349   4071258.60746  22911550.464    22911558.194
  24383823.709    -6037327.41149  -4679344.95745  24383823.550    24383833.850
  22046995.159   -14787266.34549 -11503096.86747  22046994.174    22046999.516
  23993595.055    -3083229.03949  -2391550.15245  23993594.830    23993602.817
  23642509.950    15581829.28849  12136953.74245  23642509.460    23642516.800
  20876154.754     1743766.87149   1366129.02047  20876154.029    20876161.303
  20248648.285   -17875656.55849 -13634895.37048  20248647.833    20248652.900
 04  7 15 17 47  0.0000000  0  9G22G11G 3G25G19G 9G18G15G14
  21416957.570     3953592.98449   3086016.15347  21416957.379    21416961.473
  23974520.337    -7462471.07449  -5791399.36645  23974519.935    23974527.443
  22926811.779     5288187.82349   4133749.38746  22926811.418    22926819.206
  24364737.748    -6137624.18949  -4757498.13545  24364737.633    24364747.984
  22049297.251   -14775168.69049 -11493670.14647  22049296.300    22049301.672
  24004232.670    -3027327.91349  -2347990.85645  24004232.446    24004240.389
  23657457.318    15660378.07649  12198160.50845  23657456.873    23657464.121
  20888449.787     1808377.58549   1416475.00147  20888449.067    20888456.370
  20247912.156   -17879524.99149 -13637909.73048  20247911.702    20247916.749
 04  7 15 17 47 30.0000000  0  9G22G11G 3G25G19G 9G18G15G14
  21426087.116     4001568.98149   3123400.01847  21426086.929    21426091.028
  23956059.058    -7559486.68449  -5866995.90745  23956058.685    23956065.891
  22942122.111     5368643.28249   4196441.87046  22942121.700    22942129.406
  24345649.515    -6237932.98349  -4835660.71945  24345649.347    24345659.745
  22051708.893   -14762495.52849 -11483794.97647  22051707.940    22051713.271
  24014974.747    -2970878.22349  -2304004.09945  24014974.528    24014982.486
  23672418.117    15738997.83549  12259422.53745  23672417.726    23672425.007
  20900826.713     1873418.75249   1467156.39747  20900825.989    20900833.316
  20247277.446   -17882860.26949 -13640508.64548  20247277.022    20247282.054
 04  7 15 17 48  0.0000000  0  9G22G11G 3G25G19G 9G18G15G14
  21435249.172     4049715.85049   3160917.03147  21435248.976    21435253.091
  23937622.285    -7656372.53649  -5942491.28245  23937621.859    23937629.050
  22957480.808     5449353.78549   4259333.10246  22957480.377    22957488.074
  24326559.436    -6338252.16549  -4913831.40545  24326559.204    24326569.451
  22054229.768   -14749248.62449 -11473472.73547  22054228.775    22054234.117
  24025820.595    -2913882.81849  -2259592.12245  24025820.412    24025828.638
  23687392.380    15817687.19849  12320738.83245  23687391.989    23687399.206
  20913285.245     1938888.55649   1518171.79947  20913284.524    20913291.847
  20246743.993   -17885663.56949 -13642693.03248  20246743.551    20246748.592
 04  7 15 17 48 30.0000000  0  9G22G11G 3G25G19G 9G18G15G14
  21444443.890     4098034.47849   3198567.88147  21444443.701    21444447.844
  23919210.893    -7753125.12149  -6017882.86745  23919210.625    23919217.587
  22972887.781     5530317.95449   4322422.00446  22972887.411    22972895.167
  24307468.086    -6438577.64549  -4992006.97545  24307467.830    24307478.022
  22056859.812   -14735427.55349 -11462703.09247  22056858.834    22056864.237
  24036770.124    -2856342.31149  -2214755.35645  24036769.871    24036778.293
  23702380.018    15896446.92849  12382109.95445  23702379.624    23702386.776
  20925825.469     2004787.45849   1569521.55647  20925824.703    20925832.023
  20246311.822   -17887934.58549 -13644462.65648  20246311.390    20246316.426
 04  7 15 17 49  0.0000000  0  9G22G11G 3G25G19G 9G18G15G14
  21453671.134     4146523.87449   3236351.79747  21453670.943    21453675.110
  23900825.040    -7849743.18449  -6093169.57945  23900824.644    23900831.724
  22988342.428     5611532.27049   4385705.81246  22988342.022    22988349.845
  24288375.872    -6538907.53749  -5070185.98845  24288375.578    24288385.703
  22059598.846   -14721033.88349 -11451487.26747  22059597.878    22059603.287
  24047823.049    -2798258.84849  -2169495.57845  24047822.789    24047831.243
  23717380.788    15975275.94449  12443535.09445  23717380.389    23717387.488
  20938446.924     2071113.70249   1621204.31947  20938446.185    20938453.523
  20245980.705   -17889674.79049 -13645818.66248  20245980.260    20245985.291
 04  7 15 17 49 30.0000000  0  9G22G11G 3G25G19G 9G18G15G14
  21462930.759     4195183.61949   3274268.45147  21462930.572    21462934.748
  23882465.320    -7946224.13349  -6168349.49145  23882465.003    23882472.013
  23003844.040     5692993.99849   4449182.41546  23003843.700    23003851.563
  24269283.243    -6639239.28949  -5148366.44845  24269283.125    24269293.127
  22062446.805   -14706068.00849 -11439825.55947  22062445.817    22062451.255
  24058978.958    -2739634.25549  -2123814.12245  24058978.745    24058987.177
  23732394.632    16054174.21649  12505014.16745  23732394.245    23732401.449
  20951149.578     2137866.46049   1673219.42347  20951148.861    20951156.193
  20245750.437   -17890884.77049 -13646761.50648  20245749.989    20245755.043
 04  7 15 17 50  0.0000000  0  9G22G11G 3G25G19G 9G18G15G14
  21472222.762     4244013.15549   3312317.40847  21472222.580    21472226.719
  23864131.791    -8042566.26749  -6243421.19045  23864131.486    23864138.608
  23019392.273     5774700.22349   4512849.53346  23019391.926    23019399.893
  24250190.898    -6739569.89649  -5226546.02045  24250190.792    24250200.731
  22065403.357   -14690531.25449 -11427719.01747  22065402.380    22065407.856
  24070237.520    -2680470.58549  -2077712.58045  24070237.272    24070245.698
  23747421.752    16133141.65449  12566547.14545  23747421.322    23747428.531
  20963933.273     2205045.09349   1725566.37847  20963932.541    20963939.893
  20245620.956   -17891565.24349 -13647291.74848  20245620.499    20245625.544
 04  7 15 17 50 30.0000000  0  9G22G11G 3G25G19G 9G18G15G14
  21481546.999     4293011.98749   3350498.28847  21481546.795    21481550.921
  23845825.284    -8138767.36649  -6318383.01945  23845825.019    23845832.191
  23034986.331     5856647.60749   4576704.58146  23034985.991    23034993.995
  24231099.348    -6839896.76849  -5304722.69745  24231099.199    24231109.063
  22068468.480   -14674424.44049 -11415168.27747  22068467.468    22068472.908
  24081598.234    -2620769.83449  -2031192.55645  24081597.896    24081606.462
  23762461.823    16212177.66349  12628133.55645  23762461.470    23762468.587
  20976797.787     2272648.47749   1778244.31247  20976797.046    20976804.386
  20245592.072   -17891717.18249 -13647410.14948  20245591.619    20245596.661
 04  7 15 17 51  0.0000000  0  9G22G11G 3G25G19G 9G18G15G14
  21490903.300     4342179.32049   3388810.47247  21490903.057    21490907.162
  23827545.957    -8234825.75849  -6393233.64745  23827545.584    23827552.764
  23050625.703     5938833.14649   4640745.19546  23050625.394    23050633.439
  24212008.834    -6940217.40949  -5382894.50545  24212008.665    24212018.496
  22071641.777   -14657748.81349 -11402174.30547  22071640.781    22071646.182
  24093060.654    -2560534.30049  -1984255.76945  24093060.342    24093068.905
  23777514.931    16291281.33449  12689772.69145  23777514.519    23777521.519
  20989742.898     2340675.36649   1831252.25247  20989742.174    20989749.503
  20245663.485   -17891341.72349 -13647117.58748  20245663.049    20245668.105
 04  7 15 17 51 30.0000000  0  9G22G11G 3G25G19G 9G18G15G14
  21500291.693     4391515.57149   3427254.28447  21500291.458    21500295.547
  23809294.373    -8330738.91149  -6467971.07345  23809293.949    23809301.177
  23066310.076     6021254.56749   4704969.59846  23066309.776    23066317.805
  24192920.186    -7040528.65649  -5461058.98345  24192919.930    24192929.812
  22074923.265   -14640504.72349 -11388737.37347  22074922.239    22074927.682
  24104624.611    -2499765.37149  -1936903.44445  24104624.206    24104632.984
  23792580.958    16370453.29649  12751465.04945  23792580.449    23792587.639
  21002768.565     2409125.49649   1884589.98747  21002767.816    21002775.103
  20245835.262   -17890438.96949 -13646414.15048  20245834.820    20245839.899
 04  7 15 17 52  0.0000000  0  9G22G11G 3G25G19G 9G18G15G14
  21509711.961     4441019.32449   3465828.61247  21509711.736    21509715.830
  23791070.583    -8426504.85149  -6542593.83245  23791070.235    23791077.427
  23082038.714     6103908.31549   4769375.03746  23082038.308    23082046.409
  24173833.725    -7140828.26749  -5539214.39145  24173833.453    24173843.246
  22078312.499   -14622693.82249 -11374858.77647  22078311.493    22078317.015
  24116289.679    -2438465.72349  -1889137.53645  24116289.380    24116297.993
  23807659.719    16449692.59949  12813209.85545  23807659.241    23807666.538
  21015874.462     2477997.17349   1938256.20347  21015873.713    21015881.017
  20246107.119   -17889010.46549 -13645301.03648  20246106.662    20246111.710
 04  7 15 17 52 30.0000000  0  9G22G11G 3G25G19G 9G18G15G14
  21519164.189     4490691.09149   3504533.85947  21519163.983    21519168.093
  23772875.468    -8522120.90849  -6617099.77345  23772875.061    23772882.192
  23097811.016     6186792.35249   4833959.93646  23097810.609    23097818.793
  24154750.045    -7241112.84349  -5617358.07645  24154749.835    24154759.662
  22081809.526   -14604316.61649 -11360538.90647  22081808.552    22081814.095
  24128055.455    -2376636.62349  -1840959.04745  24128055.025    24128063.605
  23822751.406    16528999.51149  12875007.36845  23822750.912    23822758.280
  21029060.449     2547290.14949   1992250.70047  21029059.735    21029067.065
  20246478.928   -17887056.62049 -13643778.56748  20246478.465    20246483.512
 04  7 15 17 53  0.0000000  0  9G22G11G 3G25G19G 9G18G15G14
  21528648.164     4540529.59849   3543369.03847  21528647.967    21528652.107
  23754709.103    -8617585.97949  -6691488.06645  23754708.608    23754715.755
  23113626.396     6269902.84949   4898721.29046  23113626.070    23113634.251
  24135669.712    -7341380.28649  -5695488.43045  24135669.424    24135679.254
  22085414.050   -14585374.51149 -11345778.85347  22085413.087    22085418.680
  24139921.394    -2314280.70849  -1792370.08345  24139920.971    24139929.725
  23837855.827    16608372.91849  12936856.68045  23837855.346    23837862.649
  21042326.271     2617002.58049   2046572.03947  21042325.551    21042332.931
  20246950.473   -17884578.81449 -13641847.81548  20246950.008    20246955.033
 04  7 15 17 53 30.0000000  0  9G22G11G 3G25G19G 9G18G15G14
  21538163.898     4590534.88149   3582334.16847  21538163.660    21538167.813
  23736571.908    -8712897.39649  -6765756.66245  23736571.453    23736578.290
  23129484.554     6353237.50249   4963657.30446  23129484.171    23129492.382
  24116593.246    -7441627.39649  -5773602.92745  24116592.910    24116602.672
  22089125.918   -14565868.49749 -11330579.38147  22089124.957    22089130.667
  24151887.288    -2251399.56849  -1743371.84845  24151886.897    24151895.693
  23852972.820    16687813.18649  12998758.08545  23852972.421    23852979.716
  21055671.814     2687133.79149   2101219.70747  21055671.072    21055678.492
  20247521.535   -17881577.82249 -13639509.38348  20247521.073    20247526.094
 04  7 15 17 54  0.0000000  0  9G22G11G 3G25G19G 9G18G15G14
  21547711.194     4640706.24549   3621428.71447  21547710.960    21547715.110
  23718464.344    -8808053.09649  -6839903.88445  23718463.839    23718470.729
  23145384.677     6436792.99449   5028765.39746  23145384.254    23145392.537
  24097521.060    -7541851.91149  -5851699.84045  24097520.624    24097530.474
  22092944.850   -14545799.79649 -11314941.46247  22092943.943    22092949.629
  24163952.709    -2187995.48949  -1693966.15045  24163952.374    24163961.116
  23868102.617    16767319.93349  13060711.30345  23868102.167    23868109.537
  21069096.823     2757682.72849   2156192.86847  21069096.078    21069103.539
  20248192.009   -17878054.36249 -13636763.83348  20248191.569    20248196.565
 04  7 15 17 54 30.0000000  0  9G22G11G 3G25G19G 9G18G15G14
  21557289.706     4691041.57949   3660651.02047  21557289.489    21557293.618
  23700386.399    -8903052.90349  -6913929.67145  23700385.974    23700392.777
  23161325.853     6520564.84449   5094042.08546  23161325.488    23161333.856
  24078453.375    -7642053.08149  -5929778.52945  24078453.014    24078462.623
  22096870.455   -14525171.20949 -11298867.27447  22096869.516    22096875.113
  24176116.945    -2124072.43449  -1644156.00645  24176116.623    24176125.385
  23883244.591    16846890.86549  13122714.51245  23883244.104    23883251.515
  21082600.777     2828646.36449   2211489.16347  21082600.029    21082607.521
  20248961.411   -17874011.39749 -13633613.48148  20248960.946    20248965.938
 04  7 15 17 55  0.0000000  0  9G22G11G 3G25G19G 9G18G15G14
  21566899.900     4741543.36649   3700003.02547  21566899.676    21566903.794
  23682339.129    -8997891.56949  -6987829.88745  23682338.688    23682345.650
  23177308.268     6604552.81849   5159487.16746  23177307.954    23177316.378
  24059391.308    -7742224.72949  -6007834.22845  24059390.880    24059400.473
  22100902.932   -14503980.96349 -11282355.44047  22100901.974    22100907.498
  24188379.987    -2059629.56349  -1593940.85945  24188379.703    24188388.548
  23898399.138    16926528.46249  13184769.67645  23898398.753    23898406.065
  21096184.046     2900026.67149   2267110.13347  21096183.306    21096190.780
  20249830.028   -17869446.81749 -13630056.68448  20249829.555    20249834.535
 04  7 15 17 55 30.0000000  0  9G22G11G 3G25G19G 9G18G15G14
  21576541.371     4792209.49149   3739483.09147  21576541.151    21576545.255
  23664322.709    -9092568.63349  -7061604.18545  23664322.340    23664329.174
  23193331.103     6688752.34649   5225097.12646  23193330.741    23193339.100
  24040335.000    -7842365.86349  -6085866.16245  24040334.553    24040344.192
  22105041.689   -14482232.02549 -11265408.25047  22105040.729    22105046.177
  24200741.341    -1994670.64349  -1543323.59945  24200741.115    24200749.899
  23913566.178    17006231.02749  13246875.47045  23913565.713    23913573.121
  21109846.038     2971820.77749   2323053.54947  21109845.328    21109852.750
  20250797.367   -17864363.54349 -13626095.69948  20250796.895    20250801.847
 04  7 15 17 56  0.0000000  0  9G22G11G 3G25G19G 9G18G15G14
  21586215.210     4843045.53649   3779095.56747  21586214.954    21586219.081
  23646338.564    -9187075.87349  -7135246.12545  23646338.190    23646345.031
  23209394.706     6773166.70949   5290874.49346  23209394.341    23209402.726
  24021286.127    -7942467.85049  -6163867.61345  24021285.770    24021295.313
  22109287.679   -14459919.38049 -11248021.79747  22109286.709    22109292.160
  24213201.707    -1929191.67649  -1492301.06045  24213201.469    24213210.161
  23928746.465    17086004.03349  13309036.14045  23928746.026    23928753.511
  21123587.785     3044033.75549   2379323.36747  21123587.065    21123594.443
  20251864.325   -17858756.60349 -13621726.65748  20251863.856    20251868.823
 04  7 15 17 56 30.0000000  0  9G22G11G 3G25G19G 9G18G15G14
  21595919.722     4894043.07149   3818833.88747  21595919.486    21595923.653
  23628385.621    -9281419.56449  -7208760.61345  23628385.170    23628392.005
  23225496.968     6857784.75249   5356810.55546  23225496.653    23225505.109
  24002243.620    -8042536.09249  -6241842.76845  24002243.293    24002252.766
  22113639.190   -14437052.44649 -11230203.42547  22113638.207    22113643.592
  24225758.989    -1863202.86549  -1440881.28045  24225758.607    24225767.509
  23943938.545    17165839.22549  13371245.27945  23943938.156    23943945.746
  21137407.459     3116656.43849   2435912.43847  21137406.748    21137414.119
  20253029.281   -17852634.79549 -13616956.41948  20253028.810    20253033.778
 04  7 15 17 57  0.0000000  0  9G22G11G 3G25G19G 9G18G15G14
  21605655.122     4945202.97649   3858698.72647  21605654.916    21605659.088
  23610464.207    -9375596.18849  -7282144.93245  23610463.866    23610470.657
  23241637.754     6942604.82849   5422904.06046  23241637.409    23241645.836
  23983208.439    -8142566.16249  -6319788.16945  23983208.150    23983217.593
  22118096.177   -14413631.09149 -11211953.04147  22118095.181    22118100.522
  24238413.136    -1796705.32649  -1389065.05645  24238412.736    24238421.548
  23959142.834    17245737.64549  13433503.69945  23959142.410    23959150.045
  21151305.170     3189689.05349   2492820.93147  21151304.437    21151311.871
  20254292.230   -17845998.07249 -13611784.94348  20254291.765    20254296.737
 04  7 15 17 57 30.0000000  0  9G22G11G 3G25G19G 9G18G15G14
  21615421.567     4996525.82449   3898690.53247  21615421.365    21615425.546
  23592575.384    -9469602.39549  -7355396.44245  23592575.060    23592581.915
  23257816.616     7027625.11949   5489153.56146  23257816.269    23257824.694
  23964181.013    -8242554.82549  -6397701.30145  23964180.823    23964190.404
  22122658.579   -14389655.67649 -11193270.92347  22122657.583    22122662.925
  24251163.877    -1729700.21049  -1336853.32745  24251163.549    24251172.140
  23974359.209    17325700.06949  13495811.97045  23974358.917    23974366.523
  21165280.820     3263131.49449   2550048.77047  21165280.072    21165287.538
  20255653.149   -17838846.34849 -13606212.17048  20255652.683    20255657.695
 04  7 15 17 58  0.0000000  0  9G22G11G 3G25G19G 9G18G15G14
  21625219.024     5048011.61649   3938809.31047  21625218.792    21625223.008
  23574719.428    -9563435.53249  -7428513.10845  23574719.141    23574725.916
  23274033.138     7112842.94549   5555556.98946  23274032.802    23274041.175
  23945162.279    -8342498.55349  -6475579.40945  23945162.130    23945171.681
  22127326.177   -14365127.06849 -11174157.74947  22127325.202    22127330.640
  24264010.804    -1662189.42949  -1284247.56645  24264010.495    24264018.999
  23989587.847    17405726.50849  13558170.12145  23989587.424    23989595.004
  21179334.283     3336982.87249   2607595.26847  21179333.572    21179340.993
  20257111.953   -17831180.34249 -13600238.65948  20257111.484    20257116.486
 04  7 15 17 58 30.0000000  0  9G22G11G 3G25G19G 9G18G15G14
  21635047.474     5099660.26049   3979054.98347  21635047.238    21635051.441
  23556896.948    -9657093.72249  -7501493.45045  23556896.490    23556903.311
  23290286.684     7198255.47349   5622112.12746  23290286.310    23290294.673
  23926152.705    -8442394.25449  -6553420.09645  23926152.529    23926162.091
  22132098.807   -14340046.66249 -11154614.60747  22132097.828    22132103.299
  24276953.620    -1594174.97949  -1231249.32945  24276953.275    24276961.831
  24004828.596    17485816.81349  13620578.04345  24004828.292    24004835.889
  21193465.395     3411242.17249   2665459.62447  21193464.679    21193472.092
  20258668.406   -17823001.16049 -13593865.26948  20258667.906    20258672.915
 04  7 15 17 59  0.0000000  0  9G22G11G 3G25G19G 9G18G15G14
  21644906.761     5151471.01249   4019426.97047  21644906.523    21644910.727
  23539107.997    -9750574.71149  -7574335.72145  23539107.615    23539114.350
  23306576.727     7283859.71549   5688816.64746  23306576.393    23306584.689
  23907152.682    -8542239.68249  -6631221.58845  23907152.473    23907162.022
  22136976.245   -14314415.63749 -11134642.41147  22136975.281    22136980.762
  24289991.744    -1525659.07249  -1177860.37645  24289991.399    24290000.113
  24020081.644    17565970.72149  13683035.52045  24020081.224    24020088.787
  21207673.879     3485907.92649   2723640.69047  21207673.133    21207680.585
  20260322.252   -17814310.15749 -13587093.05748  20260321.791    20260326.759
 04  7 15 17 59 30.0000000  0  9G22G11G 3G25G19G 9G18G15G14
  21654796.800     5203443.39849   4059924.90847  21654796.546    21654800.744
  23521353.146    -9843876.30849  -7647038.18745  23521352.827    23521359.626
  23322902.621     7369652.44349   5755668.04746  23322902.330    23322910.496
  23888162.681    -8642032.17849  -6708981.83445  23888162.480    23888172.091
  22141958.175   -14288235.52949 -11114242.35547  22141957.192    22141962.719
  24303124.810    -1456644.13749  -1124082.56245  24303124.577    24303133.354
  24035346.487    17646188.02449  13745542.40145  24035346.166    24035353.583
  21221959.438     3560978.86049   2782137.48147  21221958.724    21221966.153
  20262073.288   -17805108.44649 -13579922.88848  20262072.809    20262077.818
 04  7 15 18  0  0.0000000  0  8G22G11G 3G25G19G18G15G14
  21664717.687     5255578.09549   4100549.31847  21664717.448    21664721.639
  23503633.230    -9936995.16849  -7719598.28445  23503632.824    23503639.640
  23339264.200     7455632.06049   5822665.08746  23339263.814    23339271.923
  23869183.535    -8741767.75249  -6786697.73045  23869183.408    23869192.982
  22147044.517   -14261506.62149 -11093414.66747  22147043.551    22147049.060
  24050623.663    17726469.51749  13808099.27045  24050623.240    24050630.585
  21236322.073     3636455.07249   2840950.07247  21236321.351    21236328.816
  20263921.474   -17795395.95149 -13572354.70948  20263920.999    20263926.006
 04  7 15 18  0 30.0000000  0  8G22G11G 3G25G19G18G15G14
  21674669.587     5307875.63549   4141300.62247  21674669.339    21674673.528
  23485948.644   -10029928.41849  -7792013.75045  23485948.256    23485954.998
  23355660.759     7541796.35949   5889806.03546  23355660.432    23355668.521
  23850215.934    -8841443.05349  -6864366.66945  23850215.710    23850225.238
  22152235.200   -14234229.67349 -11072159.93747  22152234.217    22152239.724
  24065913.004    17806815.31549  13870706.31045  24065912.675    24065919.952
  21250761.709     3712335.88849   2900077.93447  21250761.034    21250768.474
  20265866.868   -17785173.14149 -13564388.87648  20265866.403    20265871.368
 04  7 15 18  1  0.0000000  0  8G22G11G 3G25G19G18G15G14
  21684651.744     5360332.10549   4182175.76447  21684651.518    21684655.702
  23468298.998   -10122677.43449  -7864285.63345  23468298.606    23468305.443
  23372091.326     7628138.96949   5957085.92646  23372090.978    23372099.039
  23831259.593    -8941058.33149  -6941988.85345  23831259.413    23831268.982
  22157529.234   -14206409.46949 -11050481.89047  22157528.262    22157533.732
  24081213.981    17887221.97349  13933360.74745  24081213.633    24081220.928
  21265277.572     3788616.76749   2959517.53847  21265276.875    21265284.318
  20267908.428   -17774444.55949 -13556028.93548  20267907.969    20267912.939
 04  7 15 18  1 30.0000000  0  8G22G11G 3G25G19G18G15G14
  21694664.432     5412948.73349   4223175.70347  21694664.176    21694668.361
  23450685.150   -10215238.62349  -7936411.20445  23450684.749    23450691.541
  23388555.437     7714658.45949   6024503.63646  23388555.100    23388563.247
  23812315.460    -9040609.66449  -7019561.20445  23812315.328    23812324.899
  22162926.606   -14178046.12049 -11028380.61547  22162925.646    22162931.127
  24096526.714    17967690.60949  13996063.49245  24096526.362    24096533.677
  21279869.557     3865298.07249   3019269.16647  21279868.863    21279876.285
  20270046.337   -17763209.82649 -13547274.59048  20270045.879    20270050.843
 04  7 15 18  2  0.0000000  0  8G22G11G 3G25G19G18G15G14
  21704707.514     5465725.37249   4264300.32647  21704707.274    21704711.423
  23433107.477   -10307609.58149  -8008388.48645  23433106.988    23433113.905
  23405052.659     7801351.80849   6092056.81346  23405052.359    23405060.551
  23793384.025    -9140094.05549  -7097081.37045  23793383.944    23793393.515
  22168427.168   -14149140.78149 -11005857.01547  22168426.188    22168431.645
  24111851.157    18048221.22149  14058814.51745  24111850.793    24111858.361
  21294537.488     3942378.33649   3079331.65947  21294536.789    21294544.234
  20272280.295   -17751470.49649 -13538127.05448  20272279.843    20272284.780
 04  7 15 18  2 30.0000000  0  8G22G11G 3G25G19G18G15G14
  21714780.828     5518660.79349   4305548.67847  21714780.590    21714784.768
  23415566.352   -10399788.38549  -8080216.08645  23415566.011    23415572.743
  23421582.475     7888215.81749   6159742.97346  23421582.096    23421590.350
  23774465.971    -9239509.06149  -7174547.48845  23774465.790    23774475.305
  22174030.480   -14119695.46449 -10982912.64647  22174029.469    22174034.943
  24127187.350    18128812.99949  14121613.19445  24127186.966    24127194.709
  21309281.010     4019855.99949   3139703.81347  21309280.332    21309287.819
  20274609.986   -17739227.85449 -13528587.32548  20274609.520    20274614.449
 04  7 15 18  3  0.0000000  0  8G22G11G 3G25G19G18G15G14
  21724884.483     5571755.66049   4346921.27147  21724884.256    21724888.458
  23398062.273   -10491772.31049  -8151891.81145  23398061.968    23398068.726
  23438144.159     7975248.05649   6227560.23046  23438143.811    23438152.093
  23755561.715    -9338851.13349  -7251956.74545  23755561.477    23755570.993
  22179736.302   -14089711.05649 -10959548.20547  22179735.339    22179740.834
  24142535.339    18209466.22149  14184459.76645  24142534.960    24142542.515
  21324100.043     4097730.32849   3200385.06347  21324099.353    21324106.834
  20277035.372   -17726482.48449 -13518655.86148  20277034.921    20277039.829
 04  7 15 18  3 30.0000000  0  8G22G11G 3G25G19G18G15G14
  21735018.329     5625009.12149   4388417.43947  21735018.090    21735022.298
  23380595.725   -10583559.44449  -8223414.19745  23380595.381    23380602.113
  23454737.198     8062445.07749   6295505.88946  23454736.913    23454745.244
  23736671.847    -9438117.94749  -7329307.39345  23736671.554    23736681.023
  22185544.380   -14059189.59949 -10935765.28947  22185543.408    22185548.923
  24157894.781    18290180.41149  14247353.86645  24157894.348    24157902.108
  21338994.260     4175999.61549   3261374.06447  21338993.562    21339001.062
  20279556.042   -17713236.22149 -13508334.09548  20279555.596    20279560.507
 04  7 15 18  4  0.0000000  0  8G22G11G 3G25G19G18G15G14
  21745182.269     5678420.94649   4430037.01047  21745182.024    21745186.232
  23363167.096   -10675147.68649  -8294781.61146  23363166.756    23363173.355
  23471361.098     8149804.15049   6363577.80346  23471360.825    23471369.249
  23717796.785    -9537306.76549  -7406597.27845  23717796.501    23717805.765
  22191454.355   -14028132.60749 -10911565.07247  22191453.377    22191458.892
  24173265.912    18370955.25249  14310295.17845  24173265.457    24173273.256
  21353963.364     4254662.74149   3322669.95647  21353962.699    21353970.185
  20282171.830   -17699490.27449 -13497622.96548  20282171.375    20282176.270
 04  7 15 18  4 30.0000000  0  8G22G11G 3G25G19G18G15G14
  21755376.278     5731990.75849   4471779.69047  21755376.046    21755380.235
  23345776.779   -10766534.62249  -8365992.14846  23345776.386    23345782.992
  23488015.440     8237322.59749   6431773.90846  23488015.105    23488023.526
  23698937.017    -9636415.00249  -7483824.37245  23698936.827    23698945.819
  22197465.981   -13996541.58849 -10886948.72447  22197464.975    22197470.501
  24188648.407    18451790.60949  14373283.71745  24188648.017    24188655.836
  21369007.259     4333718.82349   3384272.04747  21369006.565    21369014.088
  20284882.468   -17685245.71549 -13486523.30448  20284882.018    20284886.900
 04  7 15 18  5  0.0000000  0  8G22G11G 3G25G19G18G15G14
  21765600.301     5785718.41649   4513645.36747  21765600.099    21765604.302
  23328425.159   -10857717.77749  -8437043.90546  23328424.778    23328431.406
  23504699.427     8324997.29549   6500091.76446  23504699.065    23504707.527
  23680093.281    -9735439.22849  -7560985.99245  23680093.083    23680101.907
  22203578.953   -13964417.68549 -10861917.13847  22203577.973    22203583.497
  24204042.485    18532686.73849  14436319.53845  24204042.020    24204049.864
  21384125.611     4413166.46349   3446179.25147  21384124.948    21384132.503
  20287687.747   -17670503.73549 -13475036.04248  20287687.306    20287692.170
 04  7 15 18  5 30.0000000  0  8G22G11G 3G25G19G18G15G14
  21775854.364     5839603.58349   4555633.77247  21775854.150    21775858.359
  23311112.627   -10948695.19949  -8507935.33346  23311112.223    23311118.951
  23521412.648     8412825.41249   6568529.17546  23521412.275    23521420.739
  23661265.992    -9834377.03349  -7638080.28345  23661265.777    23661274.591
  22209792.969   -13931762.82249 -10836471.81547  22209791.991    22209797.502
  24219447.959    18613642.74949  14499402.04545  24219447.605    24219455.192
  21399318.247     4493003.94949   3508390.22247  21399317.560    21399325.151
  20290587.436   -17655265.80549 -13463162.33248  20290586.989    20290591.853
 04  7 15 18  6  0.0000000  0  8G22G11G 3G25G19G18G15G14
  21786138.323     5893645.90349   4597744.63947  21786138.100    21786142.328
  23293839.689   -11039464.82749  -8578664.85846  23293839.350    23293845.939
  23538154.495     8500804.28649   6637084.07046  23538154.155    23538162.654
  23642455.736    -9933225.53849  -7715104.96945  23642455.419    23642464.269
  22216107.745   -13898578.66749 -10810614.06747  22216106.779    22216112.265
  24234865.023    18694658.75449  14562531.30045  24234864.504    24234872.237
  21414584.827     4573230.08949   3570904.04447  21414584.102    21414591.713
  20293581.244   -17639533.15849 -13450903.12448  20293580.816    20293585.683
 04  7 15 18  6 30.0000000  0  8G22G11G 3G25G19G18G15G14
  21796452.155     5947845.19649   4639977.81847  21796451.910    21796456.145
  23276606.880   -11130023.90449  -8649230.33046  23276606.591    23276612.979
  23554924.474     8588930.85849   6705754.04246  23554924.095    23554932.674
  23623662.906   -10031981.79249  -7792057.76945  23623662.659    23623671.522
  22222522.932   -13864866.91249 -10784345.19047  22222521.948    22222527.510
  24250293.312    18775734.77849  14625707.32345  24250292.792    24250300.679
  21429925.090     4653843.63149   3633719.73747  21429924.372    21429932.002
  20296668.980   -17623307.00849 -13438259.37448  20296668.549    20296673.405
 04  7 15 18  7  0.0000000  0  8G22G11G 3G25G19G18G15G14
  21806795.785     6002201.07749   4682333.01447  21806795.500    21806799.770
  23259414.367   -11220370.29349  -8719630.05046  23259414.123    23259420.591
  23571722.056     8677202.28149   6774536.86746  23571721.617    23571730.277
  23604888.240   -10130642.95249  -7868936.48545  23604887.977    23604896.821
  22229038.224   -13830629.07949 -10757666.39547  22229037.228    22229042.822
  24265733.078    18856870.32149  14688929.68745  24265732.513    24265740.422
  21445338.792     4734843.15549   3696836.19747  21445338.081    21445345.757
  20299850.396   -17606588.78249 -13425232.18648  20299849.936    20299854.804
 04  7 15 18  7 30.0000000  0  8G22G11G 3G25G19G18G15G14
  21817169.064     6056713.03049   4724809.82447  21817168.788    21817173.114
  23242262.904   -11310501.84249  -8789862.35646  23242262.617    23242269.145
  23588546.480     8765615.13349   6843429.91246  23588546.049    23588554.850
  23586132.177   -10229206.21149  -7945738.92445  23586131.961    23586140.772
  22235653.154   -13795867.17749 -10730579.21647  22235652.208    22235657.817
  24281183.905    18938065.06049  14752198.23945  24281183.416    24281191.189
  21460825.708     4816227.09149   3760252.19647  21460824.970    21460832.661
  20303125.090   -17589380.04349 -13411822.78548  20303124.639    20303129.489
 04  7 15 18  8  0.0000000  0  8G22G11G 3G25G19G18G15G14
  21827572.003     6111381.00749   4767408.21147  21827571.776    21827576.090
  23225152.739   -11400416.31349  -8859925.53546  23225152.432    23225158.913
  23605397.219     8854166.60949   6912430.96746  23605396.824    23605405.648
  23567395.316   -10327668.54349  -8022462.69546  23567395.132    23567403.967
  22242367.613   -13760582.64049 -10703084.79947  22242366.670    22242372.309
  24296645.931    19019318.86149  14815512.79145  24296645.364    24296653.231
  21476385.521     4897994.32649   3823966.86847  21476384.818    21476392.501
  20306492.929   -17571682.01149 -13398032.11448  20306492.468    20306497.318
 04  7 15 18  8 30.0000000  0  8G22G11G 3G25G19G18G15G14
  21838004.589     6166204.51449   4810127.79247  21838004.384    21838008.697
  23208084.300   -11490111.45049  -8929817.77546  23208083.928    23208090.565
  23622273.934     8942853.96849   6981537.93346  23622273.590    23622282.305
  23548678.184   -10426027.44049  -8099105.87045  23548678.010    23548686.796
  22249181.129   -13724777.24649 -10675184.51847  22249180.203    22249185.862
  24312119.286    19100631.39349  14878873.08245  24312118.699    24312126.747
  21492017.970     4980143.29249   3887978.98747  21492017.256    21492025.018
  20309953.580   -17553496.04449 -13383861.23648  20309953.142    20309957.996
 04  7 15 18  9  0.0000000  0  8G22G11G 3G25G19G18G15G14
  21848466.718     6221183.19749   4852968.28947  21848466.531    21848470.827
  23191057.972   -11579585.23949  -8999537.55346  23191057.595    23191064.224
  23639176.102     9031674.26949   7050748.46646  23639175.669    23639184.351
  23529981.238   -10524280.23849  -8175666.36645  23529980.934    23529989.838
  22256093.458   -13688453.09849 -10646880.00847  22256092.518    22256098.081
  24327603.778    19182002.60949  14942279.10245  24327603.241    24327611.404
  21507722.792     5062672.45349   3952287.37147  21507722.104    21507729.851
  20313506.831   -17534823.68749 -13369311.35348  20313506.362    20313511.239
 04  7 15 18  9 30.0000000  0  8G22G11G 3G25G19G18G15G14
  21858958.344     6276316.89549   4895929.57647  21858958.138    21858962.454
  23174074.160   -11668835.32849  -9069083.00246  23174073.762    23174080.468
  23656102.883     9120624.59949   7120060.30246  23656102.471    23656111.217
  23511304.990   -10622424.09649  -8252141.96045  23511304.693    23511313.545
  22263104.177   -13651611.95149 -10618172.65747  22263103.184    22263108.735
  24343099.311    19263432.24349  15005730.65245  24343098.792    24343107.061
  21523499.662     5145580.35549   4016890.87647  21523498.992    21523506.738
  20317152.337   -17515666.32849 -13354383.55048  20317151.888    20317156.747
 04  7 15 18 10  0.0000000  0  8G22G11G 3G25G19G18G15G14
  21869479.409     6331605.12749   4939011.28047  21869479.165    21869483.495
  23157133.367   -11757859.32549  -9138452.30046  23157132.991    23157139.583
  23673053.789     9209701.97249   7189471.13446  23673053.366    23673062.133
  23492650.057   -10720455.77549  -8328530.18045  23492649.757    23492658.611
  22270212.856   -13614255.45749 -10589063.72947  22270211.873    22270217.459
  24358606.149    19344919.90649  15069227.43245  24358605.588    24358613.828
  21539348.451     5228865.93249   4081788.66947  21539347.780    21539355.522
  20320889.892   -17496025.41449 -13339078.95148  20320889.441    20320894.300
 04  7 15 18 10 30.0000000  0  8G22G11G 3G25G19G18G15G14
  21880029.809     6387047.71749   4982213.26847  21880029.581    21880033.906
  23140236.007   -11846654.96249  -9207643.64246  23140235.698    23140242.354
  23690028.218     9298903.41149   7258978.66346  23690027.885    23690036.685
  23474016.932   -10818372.73749  -8404829.00345  23474016.707    23474025.504
  22277419.297   -13576385.50549 -10559554.70147  22277418.314    22277423.868
  24374123.823    19426465.49849  15132769.36445  24374123.126    24374131.483
  21555268.771     5312527.53549   4146979.47347  21555268.108    21555275.861
  20324719.172   -17475902.46749 -13323398.74248  20324718.720    20324723.596
 04  7 15 18 11  0.0000000  0  8G22G11G 3G25G19G18G15G14
  21890609.514     6442644.39549   5025535.31947  21890609.306    21890613.611
  23123382.560   -11935220.10549  -9276655.37446  23123382.236    23123388.826
  23707025.873     9388226.32449   7328580.83846  23707025.538    23707034.388
  23455406.260   -10916171.96849  -8481036.10545  23455406.000    23455414.741
  22284723.090   -13538003.88849 -10529646.97647  22284722.118    22284727.712
  24389652.512    19508068.72849  15196356.19245  24389651.935    24389660.076
  21571260.371     5396563.61849   4212462.08747  21571259.658    21571267.437
  20328639.964   -17455298.73949 -13307343.90148  20328639.506    20328644.372
 04  7 15 18 11 30.0000000  0  8G22G11G 3G25G19G18G15G14
  21901218.501     6498394.98549   5068977.30947  21901218.312    21901222.593
  23106573.497   -12023552.38549  -9345485.65146  23106573.112    23106579.733
  23724046.080     9477667.57249   7398275.20846  23724045.775    23724054.547
  23436818.609   -11013850.67049  -8557149.28146  23436818.368    23436826.981
  22292123.885   -13499112.60149 -10499342.10347  22292122.924    22292128.497
  24405192.087    19589729.32049  15259987.68645  24405191.527    24405199.599
  21587322.866     5480972.52549   4278235.20347  21587322.168    21587329.962
  20332651.885   -17434215.93949 -13290915.75648  20332651.438    20332656.309
 04  7 15 18 12  0.0000000  0  8G22G11G 3G25G19G18G15G14
  21911856.816     6554299.29449   5112539.07647  21911856.607    21911860.832
  23089809.175   -12111649.39749  -9414132.61346  23089808.768    23089815.324
  23741088.325     9567224.45949   7468059.70146  23741087.966    23741096.687
  23418254.467   -11111405.75549  -8633166.15146  23418254.280    23418262.772
  22299621.406   -13459713.27649 -10468641.35947  22299620.434    22299625.935
  24420742.424    19671447.50449  15323664.09945  24420741.972    24420750.230
  21603456.125     5565753.17549   4344297.98947  21603455.439    21603463.276
  20336754.784   -17412655.18149 -13274115.18148  20336754.328    20336759.188
 04  7 15 18 12 30.0000000  0  8G22G11G 3G25G19G18G15G14
  21922524.128     6610356.32349   5156219.84447  21922523.883    21922528.117
  23073089.924   -12199509.66749  -9482595.12146  23073089.502    23073095.923
  23758151.850     9656893.10049   7537931.26146  23758151.464    23758160.179
  23399714.160   -11208835.50649  -8709085.34646  23399713.945    23399722.383
  22307215.023   -13419808.67549 -10437546.89047  22307214.027    22307219.529
  24436303.794    19753222.43549  15387384.75645  24436303.319    24436311.454
  21619659.737     5650903.25849   4410648.65247  21619659.001    21619666.860
  20340948.168   -17390618.90249 -13256944.06448  20340947.705    20340952.576
 04  7 15 18 13  0.0000000  0  8G22G11G 3G25G19G18G15G14
  21933220.560     6666566.40449   5200019.87947  21933220.327    21933224.570
  23056416.230   -12287130.37549  -9550870.94346  23056415.796    23056422.225
  23775236.113     9746671.50749   7607888.34746  23775235.747    23775244.561
  23381198.304   -11306136.33349  -8784904.09646  23381198.104    23381206.554
  22314904.500   -13379400.10249 -10406059.71547  22314903.534    22314909.047
  24451875.937    19835054.41849  15451149.81945  24451875.529    24451883.756
  21635933.457     5736421.88249   4477286.48147  21635932.725    21635940.583
  20345231.886   -17368107.77349 -13239402.93848  20345231.419    20345236.310
 04  7 15 18 13 30.0000000  0  8G22G11G 3G25G19G18G15G14
  21943946.109     6722929.42749   5243939.08847  21943945.872    21943950.120
  23039788.556   -12374508.93349  -9618958.07346  23039788.147    23039794.594
  23792340.685     9836556.91949   7677928.82445  23792340.406    23792349.249
  23362707.624   -11403305.12549  -8860619.93346  23362707.344    23362715.895
  22322689.508   -13338489.41349 -10374181.29147  22322688.584    22322694.131
  24467458.931    19916943.20249  15514959.16245  24467458.511    24467466.844
  21652277.065     5822307.74349   4544210.46547  21652276.341    21652284.189
  20349605.732   -17345123.12949 -13221492.83948  20349605.251    20349610.136
 04  7 15 18 14  0.0000000  0  8G22G11G 3G25G19G18G15G14
  21954700.683     6779444.81049   5287977.02447  21954700.407    21954704.680
  23023207.366   -12461643.31249  -9686854.93446  23023207.005    23023213.390
  23809465.150     9926546.21049   7748050.23545  23809464.841    23809473.753
  23344242.496   -11500339.29249  -8936230.91146  23344242.287    23344250.822
  22330569.748   -13297078.65549 -10341913.18947  22330568.789    22330574.359
  24483052.619    19998888.32049  15578812.39945  24483052.205    24483060.586
  21668690.185     5908559.17749   4611419.32447  21668689.478    21668697.305
  20354069.318   -17321666.79549 -13203215.18848  20354068.841    20354073.747
 04  7 15 18 14 30.0000000  0  8G22G11G 3G25G19G18G15G14
  21965484.207     6836112.49749   5332133.63647  21965483.952    21965488.197
  23006673.054   -12548531.23349  -9754559.76546  23006672.752    23006679.048
  23826608.933    10016636.45149   7818250.31245  23826608.622    23826617.430
  23325803.667   -11597235.85949  -9011734.67046  23325803.432    23325811.796
  22338544.747   -13255169.71449 -10309256.90347  22338543.758    22338549.425
  24498657.140    20080889.93849  15642709.69345  24498656.673    24498665.021
  21685172.636     5995174.63449   4678911.83247  21685171.928    21685179.698
  20358622.340   -17297740.40849 -13184571.26248  20358621.869    20358626.803
 04  7 15 18 15  0.0000000  0  8G22G11G 3G25G19G18G15G14
  21976296.611     6892931.99349   5376408.52947  21976296.357    21976300.603
  22990186.194   -12635170.45549  -9822070.79246  22990185.846    22990192.074
  23843771.264    10106824.28349   7888526.44045  23843770.901    23843779.677
  23307391.429   -11693992.46249  -9087129.35346  23307391.189    23307399.541
  22346614.077   -13212765.06649 -10276214.35847  22346613.101    22346618.786
  24514272.209    20162947.34149  15706650.44445  24514271.763    24514280.191
  21701723.964     6082152.16649   4746686.47447  21701723.249    21701730.997
  20363264.449   -17273345.95949 -13165562.61248  20363263.986    20363268.931
 04  7 15 18 15 30.0000000  0  8G22G11G 3G25G19G18G15G14
  21987137.850     6949903.00049   5420801.49347  21987137.581    21987141.832
  22973747.046   -12721558.77949  -9889386.34246  22973746.736    22973752.853
  23860951.657    10197107.16649   7958876.63645  23860951.307    23860960.048
  23289006.365   -11790606.16649  -9162412.67546  23289006.137    23289014.458
  22354777.439   -13169866.56249 -10242786.98447  22354776.440    22354782.185
  24529897.856    20245060.57749  15770634.65645  24529897.315    24529905.906
  21718343.936     6169490.31349   4814742.11347  21718343.214    21718350.985
  20367995.371   -17248484.67849 -13146190.19448  20367994.911    20367999.885
 04  7 15 18 16  0.0000000  0  8G22G11G 3G25G19G18G15G14
  21998007.920     7007025.36049   5465312.39047  21998007.646    21998011.883
  22957356.032   -12807693.52549  -9956504.27346  22957355.713    22957361.916
  23878149.506    10287482.40049   8029298.78545  23878149.112    23878157.984
  23270649.007   -11887073.95249  -9237582.29946  23270648.805    23270657.146
  22363034.353   -13126476.04949 -10208976.23047  22363033.414    22363039.139
  24545534.110    20327229.25349  15834662.11145  24545533.540    24545542.080
  21735032.232     6257187.66949   4883077.65447  21735031.541    21735039.311
  20372814.870   -17223158.06749 -13126455.18648  20372814.414    20372819.396
 04  7 15 18 16 30.0000000  0  8G22G11G 3G25G19G18G15G14
  22008906.728     7064298.80049   5509941.01147  22008906.451    22008910.709
  22941013.718   -12893573.03749 -10023423.32346  22941013.376    22941019.601
  23895364.174    10377946.87349   8099790.46845  23895363.883    23895372.935
  23252320.032   -11983392.98349  -9312635.99646  23252319.824    23252328.230
  22371384.572   -13082596.01849 -10174784.04247  22371383.603    22371389.249
  24561180.829    20409453.32149  15898732.72645  24561180.348    24561188.866
  21751788.567     6345242.47949   4951691.72947  21751787.851    21751795.634
  20377722.588   -17197367.99849 -13106359.03648  20377722.117    20377727.099
 04  7 15 18 17  0.0000000  0  8G22G11G 3G25G19G18G15G14
  22019834.291     7121723.24149   5554687.29847  22019833.996    22019838.297
  22924720.458   -12979194.51449 -10090141.32046  22924720.146    22924726.284
  23912595.487    10468497.98049   8170349.62345  23912595.175    23912604.323
  23234019.959   -12079560.28749  -9387571.45746  23234019.723    23234028.156
  22379827.513   -13038228.19249 -10140211.74547  22379826.499    22379832.186
  24576838.258    20491732.99249  15962846.68045  24576837.750    24576846.299
  21768612.635     6433653.46049   5020583.34447  21768611.914    21768619.730
  20382718.280   -17171115.60249 -13085902.63948  20382717.808    20382722.775
 04  7 15 18 17 30.0000000  0  8G22G11G 3G25G19G18G15G14
  22030790.429     7179298.01949   5599550.72047  22030790.151    22030794.469
  22908476.605   -13064556.13649 -10156656.81246  22908476.252    22908482.490
  23929842.724    10559132.48449   8240973.75145  23929842.435    23929851.640
  23215749.076   -12175573.61449  -9462386.93246  23215748.822    23215757.389
  22388362.741   -12993375.07349 -10105261.30447  22388361.770    22388367.459
  24592506.087    20574067.50249  16027003.35545  24592505.533    24592514.258
  21785504.122     6522418.78749   5089751.06447  21785503.440    21785511.270
  20387801.544   -17144403.03149 -13065087.66348  20387801.079    20387806.029
 04  7 15 18 18  0.0000000  0  7G22G11G 3G25G19G15G14
  22041775.317     7237023.81049   5644531.80647  22041775.026    22041779.372
  22892282.952   -13149654.76349 -10222967.42046  22892282.553    22892288.740
  23947105.525    10649848.10549   8311661.09045  23947105.104    23947114.362
  23197508.346   -12271428.80349  -9537079.21746  23197508.189    23197516.702
  22396990.183   -12948037.83649 -10069933.65547  22396989.207    22396994.874
  21802462.897     6611537.59349   5159194.20947  21802462.199    21802470.025
  20392972.242   -17117230.93949 -13043914.62948  20392971.760    20392976.715
 04  7 15 18 18 30.0000000  0  7G22G11G 3G25G19G15G14
  22052789.451     7294903.58249   5689632.88047  22052789.182    22052793.567
  22876140.321   -13234484.74449 -10289068.66746  22876139.928    22876146.054
  23964383.626    10740645.06749   8382411.80945  23964383.323    23964392.572
  23179298.891   -12367120.13449  -9611643.80246  23179298.706    23179307.153
  22405709.864   -12902215.55149 -10034228.01947  22405708.910    22405714.573
  21819489.261     6701011.25649   5228913.87847  21819488.532    21819496.335
  20398230.618   -17089597.89749 -13022382.40448  20398230.159    20398235.135
 04  7 15 18 19  0.0000000  0  7G22G11G 3G25G19G15G14
  22063831.856     7352931.63349   5734849.52847  22063831.607    22063835.995
  22860048.180   -13319049.34449 -10354963.08546  22860047.789    22860054.053
  23981675.806    10831515.24149   8453219.63245  23981675.501    23981684.750
  23161120.074   -12462650.44749  -9686082.89346  23161119.860    23161128.226
  22414520.490   -12855915.80449  -9998150.32647  22414519.531    22414525.185
  21836581.832     6790832.78449   5298904.62247  21836581.060    21836588.879
  20403575.395   -17061510.91549 -13000496.45248  20403574.929    20403579.886
 04  7 15 18 19 30.0000000  0  7G22G11G 3G25G19G15G14
  22074902.583     7411108.53449   5780182.14347  22074902.343    22074906.729
  22844007.040   -13403345.66349 -10420648.47346  22844006.634    22844012.955
  23998981.530    10922456.41449   8524082.75745  23998981.190    23998990.436
  23142972.417   -12558016.17149  -9760393.75246  23142972.214    23142980.631
  22423421.655   -12809140.12649  -9961701.77947  22423420.659    22423426.301
  21853740.262     6881001.23649   5369165.68447  21853739.561    21853747.420
  20409006.336   -17032971.23849 -12978257.75748  20409005.849    20409010.819
 04  7 15 18 20  0.0000000  0  7G22G11G 3G25G19G15G14
  22086001.600     7469434.15149   5825630.64147  22086001.359    22086005.753
  22828017.446   -13487371.13949 -10486122.80746  22828017.053    22828023.456
  24016300.237    11013466.06649   8594999.23345  24016299.921    24016309.007
  23124856.824   -12653214.05649  -9834573.80746  23124856.635    23124865.017
  22432412.989   -12761890.54149  -9924883.96547  22432412.014    22432417.670
  21870964.575     6971515.10749   5439695.91847  21870963.847    21870971.698
  20414523.139   -17003980.12849 -12955667.29048  20414522.690    20414527.627
 04  7 15 18 20 30.0000000  0  7G22G11G 3G25G19G15G14
  22097128.948     7527908.65949   5871195.15847  22097128.706    22097133.144
  22812079.915   -13571123.12849 -10551384.03346  22812079.546    22812085.952
  24033631.609    11104541.76149   8665967.17645  24033631.213    24033640.258
  23106773.791   -12748240.85149  -9908620.54746  23106773.563    23106781.813
  22441494.166   -12714168.64549  -9887698.11447  22441493.188    22441498.956
  21888254.358     7062373.09949   5510494.29247  21888253.617    21888261.442
  20420125.689   -16974538.71749 -12932725.94048  20420125.221    20420130.175
 04  7 15 18 21  0.0000000  0  7G22G11G 3G25G19G15G14
  22108284.571     7586532.04349   5916875.69047  22108284.383    22108288.810
  22796194.984   -13654598.90049 -10616430.03646  22796194.583    22796200.985
  24050975.001    11195680.68549   8736984.38945  24050974.417    24050983.579
  23088723.837   -12843093.48349  -9982531.58346  23088723.649    23088731.844
  22450664.737   -12665976.86549  -9850146.11947  22450663.769    22450669.596
  21905609.328     7153573.51649   5581559.49847  21905608.553    21905616.349
  20425813.530   -16944648.74749 -12909435.06248  20425813.064    20425818.037
 04  7 15 18 21 30.0000000  0  7G22G11G 3G25G19G15G14
  22119468.577     7645304.00049   5962671.98247  22119468.390    22119472.789
  22780362.871   -13737796.65149 -10681259.39646  22780362.523    22780368.874
  24068329.633    11286879.92549   8808048.59945  24068329.133    24068338.373
  23070707.608   -12937769.29649 -10056304.85546  23070707.322    23070715.496
  22459924.434   -12617317.31149  -9812229.62747  22459923.399    22459929.213
  21923029.135     7245114.97649   5652890.44147  21923028.383    21923036.206
  20431586.480   -16914311.83449 -12885795.92348  20431586.017    20431590.999
 04  7 15 18 22  0.0000000  0  7G22G11G 3G25G19G15G14
  22130680.915     7704224.92249   6008584.32847  22130680.728    22130685.159
  22764584.348   -13820713.19849 -10745869.66046  22764584.046    22764590.319
  24085695.421    11378137.02449   8879157.86645  24085694.870    24085704.169
  23052725.572   -13032264.94149 -10129937.75946  23052725.351    23052733.486
  22469272.779   -12568191.61749  -9773949.93047  22469271.797    22469277.629
  21940513.571     7336996.10549   5724486.04847  21940512.839    21940520.672
  20437444.253   -16883529.11749 -12861809.41448  20437443.772    20437448.782
 04  7 15 18 22 30.0000000  0  7G22G11G 3G25G19G15G14
  22141921.439     7763293.81549   6054611.91547  22141921.187    22141925.629
  22748859.765   -13903346.88649 -10810259.60646  22748859.402    22748865.585
  24103071.445    11469448.40449   8950309.29445  24103070.971    24103080.326
  23034778.278   -13126578.44149 -10203428.80746  23034778.016    23034786.086
  22478709.266   -12518602.90149  -9735309.51947  22478708.264    22478714.075
  21958062.245     7429214.67049   5796344.51447  21958061.520    21958069.318
  20443386.354   -16852303.09349 -12837477.52248  20443385.868    20443390.877
 04  7 15 18 23  0.0000000  0  7G22G11G 3G25G19G15G14
  22153190.130     7822511.15649   6100755.04247  22153189.926    22153194.347
  22733189.460   -13985695.10549 -10874427.24946  22733189.150    22733195.190
  24120457.453    11560811.66849   9021500.88145  24120456.995    24120466.389
  23016866.224   -13220706.37949 -10276775.46846  23016866.035    23016874.049
  22488233.569   -12468553.09949  -9696309.95547  22488232.560    22488238.297
  21975674.940     7521769.46149   5868464.83246  21975674.197    21975681.978
  20449412.619   -16820634.94049 -12812801.19648  20449412.156    20449417.160
 04  7 15 18 23 30.0000000  0  7G22G11G 3G25G19G15G14
  22164486.936     7881876.12949   6147013.37447  22164486.735    22164491.205
  22717573.809   -14067756.01149 -10938370.82146  22717573.491    22717579.515
  24137852.865    11652224.20749   9092731.19345  24137852.522    24137861.823
  22998990.089   -13314646.17249 -10349975.30046  22998989.870    22998997.910
  22497845.086   -12418044.57749  -9656952.76947  22497844.096    22497849.836
  21993351.156     7614658.14849   5940845.51046  21993350.420    21993358.257
  20455522.604   -16788526.94849 -12787782.02948  20455522.157    20455527.178
 04  7 15 18 24  0.0000000  0  7G22G11G 3G25G19G15G14
  22175811.917     7941388.66449   6193386.71547  22175811.685    22175816.152
  22702013.326   -14149527.16749 -11002088.56246  22702013.003    22702019.048
  24155257.056    11743683.12349   9163997.70545  24155256.693    24155266.155
  22981150.419   -13408394.83449 -10423026.14346  22981150.151    22981158.175
  22507543.508   -12367079.80149  -9617240.02547  22507542.502    22507548.227
  22011090.709     7707879.30949   6013485.29146  22011089.930    22011097.808
  20461715.984   -16755980.77349 -12762421.39548  20461715.539    20461720.573
 04  7 15 18 24 30.0000000  0  7G22G11G 3G25G19G15G14
  22187164.916     8001048.70149   6239875.04147  22187164.665    22187169.133
  22686508.444   -14231005.99549 -11065578.49346  22686508.137    22686514.109
  24172669.566    11835185.52749   9235298.17645  24172669.209    24172678.729
  22963347.521   -13501949.50949 -10495925.77146  22963347.266    22963355.357
  22517328.222   -12315660.95449  -9577173.41047  22517327.249    22517333.061
  22028893.103     7801431.30149   6086382.89747  22028892.355    22028900.326
  20467992.428   -16722998.03449 -12736720.55348  20467991.964    20467997.021
 04  7 15 18 25  0.0000000  0  7G22G11G 3G25G19G15G14
  22198545.936     8060855.99849   6286478.09447  22198545.667    22198550.177
  22671059.554   -14312190.54149 -11128839.10846  22671059.272    22671065.283
  24190089.784    11926728.40949   9306630.16345  24190089.489    24190098.977
  22945582.026   -13595307.47349 -10568672.14746  22945581.804    22945589.976
  22527198.924   -12263790.43249  -9536754.85647  22527197.985    22527203.762
  22046758.178     7895312.22449   6159536.79647  22046757.367    22046765.441
  20474351.593   -16689580.45649 -12710680.88448  20474351.112    20474356.194
 04  7 15 18 25 30.0000000  0  7G22G11G 3G25G19G15G14
  22209954.981     8120810.94949   6333196.19847  22209954.728    22209959.285
  22655667.137   -14393077.68749 -11191867.98946  22655666.838    22655672.937
  24207517.238    12018309.40749   9377991.85945  24207516.875    24207526.446
  22927854.552   -13688465.46749 -10641262.70546  22927854.317    22927862.526
  22537155.255   -12211470.03349  -9495985.76347  22537154.273    22537160.051
  22064685.497     7989520.92149   6232946.10246  22064684.726    22064692.868
  20480793.256   -16655729.36949 -12684303.42048  20480792.792    20480797.869
 04  7 15 18 26  0.0000000  0  7G22G11G 3G25G19G15G14
  22221392.062     8180912.93949   6380028.88147  22221391.800    22221396.360
  22640331.716   -14473665.77949 -11254663.85546  22640331.435    22640337.494
  24224951.219    12109925.43249   9449380.83845  24224950.835    24224960.554
  22910165.647   -13781421.10749 -10713695.59446  22910165.423    22910173.620
  22547196.570   -12158702.80749  -9454868.47947  22547195.621    22547201.407
  22082674.715     8084055.04749   6306608.98446  22082674.013    22082682.194
  20487316.966   -16621447.08549 -12657589.95948  20487316.496    20487321.557
 04  7 15 18 26 30.0000000  0  7G22G11G 3G25G19G15G14
  22232857.043     8241161.92749   6426976.11747  22232856.814    22232861.414
  22625053.581   -14553952.46749 -11317224.86246  22625053.331    22625059.342
  24242391.444    12201573.99549   9520795.17845  24242390.982    24242400.927
  22892515.868   -13874171.33749 -10785968.43346  22892515.612    22892523.776
  22557322.497   -12105490.92549  -9413404.71647  22557321.521    22557327.296
  22100725.628     8178912.97849   6380524.19046  22100724.917    22100733.147
  20493922.436   -16586735.11149 -12630541.67548  20493921.953    20493927.046
 04  7 15 18 27  0.0000000  0  7G22G11G 3G25G19G15G14
  22244349.902     8301557.30749   6474037.41947  22244349.707    22244354.304
  22609833.314   -14633935.45549 -11379549.21046  22609833.008    22609839.031
  24259837.285    12293251.97049   9592232.42945  24259836.834    24259846.847
  22874905.599   -13966713.83149 -10858079.40446  22874905.372    22874913.455
  22567532.503   -12051837.18849  -9371596.65147  22567531.523    22567537.316
  22118837.810     8274092.51149   6454689.98046  22118837.068    22118845.344
  20500609.271   -16551595.63149 -12603160.26548  20500608.804    20500613.885
 04  7 15 18 27 30.0000000  0  7G22G11G 3G25G19G15G14
  22255870.625     8362099.07049   6521212.78347  22255870.451    22255875.065
  22594671.234   -14713612.39649 -11441635.08346  22594670.945    22594676.955
  24277288.308    12384956.79849   9663690.62645  24277287.813    24277297.886
  22857335.462   -14059045.53049 -10930026.11246  22857335.206    22857343.256
  22577826.174   -11997743.82749  -9329446.01947  22577825.167    22577830.981
  22137010.796     8369591.90449   6529105.03146  22137010.037    22137018.308
  20507377.129   -16516030.28249 -12575447.01248  20507376.659    20507381.752
 04  7 15 18 28  0.0000000  0  7G22G11G 3G25G19G15G14
  22267419.224     8422787.13249   6568502.16847  22267419.057    22267423.735
  22579567.760   -14792981.19049 -11503480.81646  22579567.480    22579573.546
  24294743.785    12476685.16049   9735167.16345  24294743.159    24294753.380
  22839805.951   -14151163.53649 -11001806.29046  22839805.692    22839813.759
  22588203.018   -11943213.28149  -9286954.70447  22588202.023    22588207.890
  22155244.272     8465409.57349   6603768.09146  22155243.524    22155251.842
  20514225.650   -16480040.74549 -12547403.21648  20514225.207    20514230.293
 04  7 15 18 28 30.0000000  0  7G22G11G 3G25G19G15G14
  22278995.562     8483621.19249   6615905.30447  22278995.412    22279000.057
  22564523.465   -14872039.28049 -11565084.45746  22564523.166    22564529.221
  24312203.263    12568434.63649   9806660.15045  24312202.662    24312212.887
  22822317.644   -14243065.08049 -11073417.80346  22822317.369    22822325.396
  22598662.557   -11888248.17849  -9244124.79347  22598661.592    22598667.499
  22173538.010     8561543.78649   6678677.79546  22173537.279    22173545.625
  20521154.636   -16443628.86449 -12519030.32548  20521154.181    20521159.283
 04  7 15 18 29  0.0000000  0  7G22G11G 3G25G19G15G14
  22290599.699     8544600.94849   6663421.98447  22290599.469    22290604.129
  22549538.782   -14950784.47049 -11626444.28746  22549538.420    22549544.454
  24329666.161    12660202.11549   9878167.17045  24329665.613    24329675.771
  22804870.965   -14334747.84349 -11144858.83546  22804870.706    22804878.679
  22609204.328   -11832851.10049  -9200958.26647  22609203.345    22609209.226
  22191891.686     8657992.48449   6753832.56546  22191890.933    22191899.243
  20528163.554   -16406796.82849 -12490330.03248  20528163.069    20528168.175
 04  7 15 18 29 30.0000000  0  7G22G11G 3G25G19G15G14
  22302231.488     8605726.32849   6711052.13947  22302231.276    22302235.984
  22534613.989   -15029214.54049 -11687558.55546  22534613.662    22534619.645
  24347131.808    12751984.91849   9949686.13645  24347131.391    24347141.482
  22787466.556   -14426208.50149 -11216126.81046  22787466.296    22787474.163
  22619827.714   -11777024.32249  -9157456.91146  22619826.740    22619832.766
  22210304.851     8754753.87849   6829231.00246  22210304.086    22210312.384
  20535252.080   -16369546.31049 -12461303.65448  20535251.611    20535256.739
 04  7 15 18 30  0.0000000  0  7G22G11G 3G25G19G15G14
  22313890.957     8666997.54249   6758795.90647  22313890.785    22313895.522
  22519749.576   -15107327.19249 -11748425.48846  22519749.252    22519755.306
  24364600.090    12843780.79749  10021215.28345  24364599.639    24364609.746
  22770104.897   -14517443.96949 -11287219.30946  22770104.665    22770112.528
  22630532.490   -11720770.18649  -9113622.55746  22630531.519    22630537.618
  22228777.192     8851826.31549   6904871.79546  22228776.378    22228784.701
  20542419.928   -16331878.93049 -12431952.45048  20542419.459    20542424.600
 04  7 15 18 30 30.0000000  0  7G22G11G 3G25G19G15G14
  22325578.200     8728414.07749   6806652.92547  22325577.994    22325582.706
  22504946.046   -15185120.30149 -11809043.43546  22504945.690    22504951.725
  24382070.293    12935586.47549  10092752.06445  24382069.724    24382079.818
  22752786.648   -14608451.85249 -11358134.46546  22752786.354    22752794.299
  22641318.106   -11664091.42349  -9069457.32846  22641317.112    22641323.255
  22247308.268     8949207.68849   6980753.31846  22247307.479    22247315.802
  20549666.753   -16293796.73249 -12402278.01448  20549666.252    20549671.430
 04  7 15 18 31  0.0000000  0  7G22G11G 3G25G19G15G14
  22337293.025     8789975.77349   6854623.05247  22337292.824    22337297.530
  22490203.717   -15262591.57149 -11869410.59346  22490203.356    22490209.434
  24399541.810    13027399.08049  10164294.24545  24399541.289    24399551.314
  22735512.152   -14699229.56749 -11428870.28246  22735511.893    22735519.828
  22652184.033   -11606990.69049  -9024963.28146  22652183.040    22652189.133
  22265897.843     9046896.19749   7056874.16246  22265897.050    22265905.346
  20556992.110   -16255301.73349 -12372281.91848  20556991.631    20556996.790
 04  7 15 18 31 30.0000000  0  7G22G11G 3G25G19G15G14
  22349035.455     8851682.52649   6902706.20647  22349035.215    22349039.982
  22475523.102   -15339738.49149 -11929525.01846  22475522.760    22475528.766
  24417014.139    13119216.16249  10235839.90545  24417013.583    24417023.734
  22718282.081   -14789773.91649 -11499424.25046  22718281.781    22718289.732
  22663129.809   -11549470.50949  -8980142.39346  22663128.812    22663134.924
  22284545.476     9144890.06449   7133232.95946  22284544.701    22284553.055
  20564395.774   -16216395.45549 -12341965.34248  20564395.285    20564400.410
 04  7 15 18 32  0.0000000  0  7G22G11G 3G25G19G15G14
  22360805.440     8913533.97249   6950902.11247  22360805.197    22360809.981
  22460904.656   -15416559.02349 -11989385.12646  22460904.300    22460910.253
  24434486.642    13211034.55049  10307386.56745  24434486.137    24434496.422
  22701096.753   -14880082.42749 -11569794.45646  22701096.548    22701104.429
  22674154.916   -11491533.55349  -8934996.75246  22674153.900    22674160.010
  22303250.865     9243187.19749   7209828.05246  22303250.071    22303258.493
  20571877.248   -16177080.09949 -12311330.01148  20571876.736    20571881.881
 04  7 15 18 32 30.0000000  0  7G22G11G 3G25G19G15G14
  22372602.941     8975530.50749   6999211.05747  22372602.729    22372607.529
  22446348.768   -15493050.51449 -12048988.84046  22446348.426    22446354.349
  24451958.930    13302851.98049  10378932.46445  24451958.491    24451968.849
  22683957.081   -14970151.92049 -11639978.41146  22683956.824    22683964.722
  22685258.920   -11433181.83249  -8889527.92046  22685257.932    22685263.983
  22322013.707     9341786.17349   7286658.33746  22322012.882    22322021.351
  20579436.316   -16137356.92349 -12280376.89948  20579435.833    20579440.948
 04  7 15 18 33  0.0000000  0  7G22G11G 3G25G19G15G14
  22384428.089     9037671.75749   7047632.78147  22384427.843    22384432.656
  22431855.896   -15569210.46349 -12108334.19746  22431855.569    22431861.565
  24469430.541    13394665.79449  10450475.55345  24469430.136    24469440.450
  22666863.347   -15059979.76849 -11709974.06946  22666863.087    22666870.926
  22696441.250   -11374418.19449  -8843738.10546  22696440.212    22696446.368
  22340833.544     9440685.07449   7363722.33546  22340832.783    22340841.285
  20587072.575   -16097228.05549 -12249107.66448  20587072.087    20587077.185
 04  7 15 18 33 30.0000000  0  7G22G11G 3G25G19G15G14
  22396280.647     9099957.38449   7096166.98547  22396280.427    22396285.239
  22417426.575   -15645036.95249 -12167419.72646  22417426.229    22417432.223
  24486901.000    13486472.95749  10522013.48745  24486900.601    24486910.926
  22649816.060   -15149563.45449 -11779779.46446  22649815.769    22649823.681
  22707701.478   -11315245.32949  -8797629.41246  22707700.486    22707706.597
  22359710.027     9539881.70549   7441018.32946  22359709.375    22359717.831
  20594785.668   -16056695.57249 -12217523.92748  20594785.167    20594790.269
 04  7 15 18 34  0.0000000  0  7G22G11G 3G25G19G15G14
  22408160.722     9162386.88349   7144813.31147  22408160.464    22408165.232
  22403061.040   -15720528.22549 -12226244.05346  22403060.654    22403066.647
  24504369.592    13578270.43149  10593543.87245  24504369.158    24504379.468
  22632815.714   -15238900.48849 -11849392.66746  22632815.458    22632823.316
  22719038.985   -11255666.35549  -8751204.28146  22719037.997    22719044.106
  22378642.888     9639373.98149   7518544.69046  22378642.178    22378650.640
  20602575.125   -16015761.77149 -12185627.47748  20602574.624    20602579.722
 04  7 15 18 34 30.0000000  0  7G22G11G 3G25G19G15G14
  22420068.104     9224960.73849   7193572.10747  22420067.859    22420072.645
  22388759.701   -15795681.57449 -12284805.03946  22388759.325    22388765.346
  24521835.726    13670055.73949  10665064.75345  24521835.386    24521845.716
  22615863.018   -15327987.53049 -11918811.05446  22615862.734    22615870.617
  22730453.412   -11195683.44449  -8704464.37246  22730452.445    22730458.533
  22397631.682     9739160.34349   7596300.21946  22397630.992    22397639.491
  20610440.641   -15974428.17749 -12153419.49748  20610440.139    20610445.236
 04  7 15 18 35  0.0000000  0  7G22G11G 3G25G19G15G14
  22432002.976     9287678.69349   7242443.20547  22432002.718    22432007.472
  22374523.120   -15870494.90249 -12343101.09446  22374522.770    22374528.783
  24539299.324    13761826.52349  10736574.33145  24539299.016    24539309.214
  22598958.383   -15416821.86449 -11988032.53346  22598958.047    22598965.962
  22741944.192   -11135299.17849  -8657411.74746  22741943.280    22741949.293
  22416676.048     9839238.78949   7674283.34346  22416675.368    22416683.880
  20618381.879   -15932696.60549 -12120901.40348  20618381.392    20618386.481
 04  7 15 18 35 30.0000000  0  7G22G11G 3G25G19G15G14
  22443965.160     9350540.37749   7291426.29347  22443964.916    22443969.694
  22360351.769   -15944965.66849 -12401130.21246  22360351.421    22360357.396
  24556759.385    13853579.55749  10808070.06145  24556759.079    24556769.302
  22582102.310   -15505400.70049 -12057054.90546  22582101.947    22582109.921
  22753510.900   -11074516.46349  -8610048.62446  22753509.913    22753515.914
  22435775.636     9939607.18649   7752492.39946  22435774.906    22435783.367
  20626398.472   -15890569.30049 -12088074.94448  20626397.972    20626403.062
 04  7 15 18 36  0.0000000  0  7G22G11G 3G25G19G15G14
  22455954.732     9413545.67449   7340521.29947  22455954.506    22455959.254
  22346245.891   -16019091.97949 -12458890.91646  22346245.546    22346251.538
  24574215.675    13945312.14849  10879549.87045  24574215.314    24574225.588
  22565295.211   -15593721.72849 -12125876.40446  22565294.962    22565302.920
  22765152.747   -11013338.17649  -8562377.27646  22765151.753    22765157.793
  22454929.956    10040263.60649   7830925.88446  22454929.206    22454937.723
  20634490.008   -15848048.00549 -12054941.48548  20634489.510    20634494.625
 04  7 15 18 36 30.0000000  0  7G22G11G 3G25G19G15G14
  22467971.518     9476694.22749   7389727.91247  22467971.307    22467976.034
  22332206.082   -16092871.44949 -12516381.36946  22332205.736    22332211.678
  24591667.481    14037021.95849  10951011.93945  24591667.123    24591677.415
  22548537.937   -15681781.90349 -12194494.63746  22548537.682    22548545.552
  22776869.441   -10951766.56649  -8514399.44446  22776868.452    22776874.519
  22474138.800    10141206.31149   7909582.44246  22474138.048    22474146.577
  20642656.203   -15805134.42349 -12021502.34648  20642655.707    20642660.828
 04  7 15 18 37  0.0000000  0  7G22G11G 3G25G19G15G14
  22480015.736     9539986.56349   7439046.58147  22480015.509    22480020.220
  22318232.848   -16166301.31749 -12573599.40446  22318232.499    22318238.354
  24609114.578    14128706.69849  11022454.47145  24609114.134    24609124.438
  22531830.874   -15769578.30249 -12262907.32946  22531830.569    22531838.359
  22788660.533   -10889804.05949  -8466117.00546  22788659.510    22788665.638
  22493401.778    10242433.57449   7988460.74546  22493401.042    22493409.595
  20650896.734   -15761830.33849 -11987758.91648  20650896.232    20650901.340
 04  7 15 18 37 30.0000000  0  7G22G11G 3G25G19G15G14
  22492087.128     9603422.08649   7488476.80947  22492086.912    22492091.646
  22304326.449   -16239379.74749 -12630543.58846  22304326.076    22304331.897
  24626556.118    14220363.02949  11093874.86045  24626555.740    24626566.296
  22515174.382   -15857108.52049 -12331112.60746  22515174.069    22515181.830
  22800525.346   -10827454.15149  -8417532.69746  22800524.345    22800530.472
  22512718.478    10343943.07549   8067558.97346  22512717.750    22512726.233
  20659211.061   -15718138.35649 -11953713.22948  20659210.546    20659215.671
 04  7 15 18 38  0.0000000  0  7G22G11G 3G25G19G15G14
  22504185.765     9667000.51149   7538018.39947  22504185.527    22504190.246
  22290487.325   -16312104.74749 -12687212.37946  22290486.967    22290492.707
  24643991.714    14311987.97749  11165270.75745  24643991.529    24644002.184
  22498569.079   -15944370.04249 -12399108.51046  22498568.785    22498576.469
  22812463.391   -10764719.54249  -8368648.62346  22812462.430    22812468.539
  22532088.445    10445732.71649   8146875.48146  22532087.730    22532096.187
  20667598.846   -15674060.30749 -11919366.71648  20667598.339    20667603.439
 04  7 15 18 38 30.0000000  0  7G22G11G 3G25G19G15G14
  22516311.552     9730721.56049   7587671.12147  22516311.302    22516315.970
  22276715.851   -16384474.44049 -12743604.29946  22276715.491    22276721.203
  24661420.967    14403578.70049  11236639.99545  24661420.934    24661431.308
  22482015.325   -16031360.33749 -12466893.07046  22482015.025    22482022.652
  22824474.139   -10701602.91249  -8319466.87646  22824473.166    22824479.251
  22551511.305    10547800.21049   8226408.50246  22551510.604    22551519.073
  20676059.681   -15629598.41049 -11884721.09148  20676059.162    20676064.260
 04  7 15 18 39  0.0000000  0  7G22G11G 3G25G19G15G14
  22528464.373     9794585.42449   7637435.12847  22528464.159    22528468.859
  22263012.497   -16456485.92849 -12799717.09246  22263012.088    22263017.864
  24678843.337    14495133.21949  11307980.99645  24678843.142    24678853.748
  22465513.750   -16118076.12449 -12534463.73246  22465513.499    22465521.065
  22836557.164   -10638106.43349  -8269989.14646  22836556.211    22836562.310
  22570986.838    10650144.12649   8306156.92346  22570986.082    22570994.540
  20684593.297   -15584753.90649 -11849777.34248  20684592.794    20684597.902
 04  7 15 18 39 30.0000000  0  7G22G11G 3G25G19G15G14
  22540644.406     9858592.21849   7687310.50247  22540644.217    22540648.987
  22249377.694   -16528136.80649 -12855548.90146  22249377.347    22249383.120
  24696258.419    14586648.60049  11379291.55245  24696258.145    24696268.767
  22449064.959   -16204514.66249 -12601818.35546  22449064.716    22449072.236
  22848711.914   -10574233.23049  -8220217.86246  22848710.956    22848717.029
  22590514.560    10752762.47149   8386119.18146  22590513.803    22590522.297
  20693199.341   -15539528.94349 -11814537.12548  20693198.856    20693203.966
 04  7 15 18 40  0.0000000  0  7G22G11G 3G25G19G15G14
  22552851.583     9922741.29549   7737296.75447  22552851.406    22552856.203
  22235811.881   -16599425.47749 -12911098.47546  22235811.538    22235817.276
  24713665.518    14678122.06449  11450569.41645  24713665.125    24713675.773
  22432669.455   -16290673.41249 -12668954.96146  22432669.237    22432676.694
  22860937.782   -10509986.06149  -8170155.17746  22860936.843    22860942.857
  22610094.066    10855653.03849   8466293.56046  22610093.298    22610101.770
  20701877.361   -15493925.70649 -11779002.14748  20701876.859    20701881.998
 04  7 15 18 40 30.0000000  0  7G22G11G 3G25G19G15G14
  22565085.986     9987032.99649   7787394.14047  22565085.776    22565090.585
  22222315.471   -16670349.04149 -12966363.54046  22222315.122    22222320.945
  24731064.038    14769551.40149  11521812.90945  24731063.601    24731074.273
  22416327.728   -16376549.51149 -12735871.31046  22416327.480    22416334.969
  22873234.346   -10445367.43549  -8119803.04146  22873233.390    22873239.351
  22629725.104    10958814.21549   8546678.79746  22629724.318    22629732.799
  20710627.054   -15447945.80949 -11743173.66748  20710626.542    20710631.699
 04  7 15 18 41  0.0000000  0  7G22G11G 3G25G19G15G14
  22577347.325    10051466.66849   7837602.13547  22577347.118    22577351.971
  22208888.864   -16740906.08149 -13021343.01347  22208888.576    22208894.388
  24748453.735    14860933.43849  11593019.53845  24748453.232    24748463.860
  22400040.141   -16462140.67549 -12802565.63746  22400039.915    22400047.418
  22885600.917   -10380380.77849  -8069164.13446  22885599.979    22885605.972
  22649407.066    11062243.41849   8627272.89846  22649406.263    22649414.819
  20719447.940   -15401591.70149 -11707053.59748  20719447.455    20719452.630
 04  7 15 18 41 30.0000000  0  7G22G11G 3G25G19G15G14
  22589635.687    10116042.25849   7887920.73947  22589635.490    22589640.383
  22195532.546   -16811094.08049 -13076034.91447  22195532.213    22195538.002
  24765833.788    14952265.75149  11664187.44445  24765833.350    24765844.072
  22383807.364   -16547444.14649 -12869035.79246  22383807.153    22383814.593
  22898037.097   -10315028.68849  -8018240.47046  22898036.129    22898042.055
  22669139.568    11165938.64649   8708074.27346  22669138.872    22669147.461
  20728339.690   -15354865.23349 -11670643.37848  20728339.209    20728344.401
 04  7 15 18 42  0.0000000  0  7G22G11G 3G25G19G15G14
  22601951.154    10180760.28549   7938350.32447  22601950.975    22601955.871
  22182246.859   -16880910.50349 -13130437.27947  22182246.550    22182252.331
  24783203.916    15043545.87149  11735314.67145  24783203.465    24783214.212
  22367629.960   -16632456.62749 -12935279.20246  22367629.752    22367637.168
  22910542.261   -10249313.59049  -7967033.94046  22910541.293    22910547.317
  22688922.557    11269898.27649   8789081.69046  22688921.836    22688930.384
  20737302.032   -15307767.79949 -11633944.09148  20737301.575    20737306.762
 04  7 15 18 42 30.0000000  0  7G22G11G 3G25G19G15G14
  22614293.724    10245620.35549   7988890.58247  22614293.510    22614298.377
  22169032.311   -16950353.20849 -13184548.44047  22169032.008    22169037.793
  24800563.634    15134770.99849  11806399.05245  24800563.107    24800574.000
  22351508.418   -16717175.56749 -13001293.87846  22351508.193    22351515.625
  22923115.917   -10183238.28349  -7915546.74346  22923114.978    22923121.093
  22708755.554    11374120.62749   8870293.82146  22708754.816    22708763.347
  20746334.583   -15260301.64949 -11596957.49548  20746334.092    20746339.279
 04  7 15 18 43  0.0000000  0  7G22G11G 3G25G19G15G14
  22626663.156    10310621.91349   8039541.11447  22626662.957    22626667.768
  22155889.225   -17019420.65449 -13238367.19347  22155888.917    22155894.704
  24817912.373    15225938.52149  11877438.51145  24817911.717    24817922.762
  22335443.215   -16801599.03849 -13067078.32046  22335442.915    22335450.237
  22935757.670   -10116806.20249  -7863781.52046  22935756.676    22935762.631
  22728638.016    11478602.85249   8951708.44346  22728637.182    22728645.758
  20755436.788   -15212469.24549 -11559685.50748  20755436.300    20755441.477
 04  7 15 18 43 30.0000000  0  7G22G11G 3G25G19G15G14
  22639059.568    10375765.36949   8090302.20747  22639059.395    22639064.195
  22142818.149   -17088109.67649 -13291891.06647  22142817.836    22142823.626
  24835249.686    15317046.17049  11948431.31245  24835249.114    24835259.970
  22319434.739   -16885723.76449 -13132629.97746  22319434.448    22319441.737
  22948466.783   -10050019.41749  -7811739.91046  22948465.728    22948471.762
  22748569.534    11583343.35949   9033324.31646  22748568.704    22748577.295
  20764608.441   -15164271.83149 -11522129.09448  20764607.971    20764613.145
 04  7 15 18 44  0.0000000  0  6G22G11G25G19G15G14
  22651483.189    10441051.64649   8141174.57747  22651482.975    22651487.798
  22129819.592   -17156417.44849 -13345117.86347  22129819.265    22129824.997
  22303483.798   -16969545.89049 -13197945.84046  22303483.500    22303490.812
  22961242.841    -9982880.22649  -7759423.70546  22961241.863    22961248.033
  22768550.031    11688341.21049   9115140.73546  22768549.231    22768557.790
  20773849.327   -15115710.77949 -11484289.33048  20773848.834    20773854.018
 04  7 15 18 44 30.0000000  0  6G22G11G25G19G15G14
  22663935.302    10506487.71449   8192163.68247  22663935.114    22663939.922
  22116895.418   -17224334.40749 -13398040.13247  22116895.092    22116900.786
  22287592.351   -17053055.46849 -13263018.16646  22287592.091    22287599.400
  22974087.027    -9915383.90049  -7706829.22246  22974085.962    22974092.195
  22788580.459    11793601.74849   9197161.83746  22788579.664    22788588.277
  20783160.422   -15066780.63149 -11446161.95848  20783159.938    20783165.114
 04  7 15 18 45  0.0000000  0  6G22G11G25G19G15G14
  22676413.479    10572060.79249   8243259.53547  22676413.276    22676418.138
  22104043.652   -17291871.20449 -13450666.16347  22104043.279    22104048.971
  22271758.467   -17136262.74849 -13327854.93046  22271758.223    22271765.493
  22986996.110    -9847546.06649  -7653968.61946  22986995.084    22987001.348
  22808658.035    11899109.97949   9279375.94846  22808657.275    22808665.967
  20792538.927   -15017496.28849 -11407758.58848  20792538.425    20792543.623
 04  7 15 18 45 30.0000000  0  6G22G11G25G19G15G14
  22688918.112    10637773.03149   8294463.82747  22688917.899    22688922.809
  22091264.945   -17359023.55949 -13502992.63347  22091264.616    22091270.263
  22255982.972   -17219163.18749 -13392452.60446  22255982.684    22255989.966
  22999970.021    -9779367.47249  -7600842.49646  22999969.033    22999975.426
  22828782.821    12004866.14949   9361783.26546  22828782.014    22828790.793
  20801984.914   -14967857.27449 -11369078.85348  20801984.426    20801989.645
 04  7 15 18 46  0.0000000  0  6G22G11G25G19G15G14
  22701449.439    10703625.39849   8345777.31047  22701449.223    22701454.127
  22078559.981   -17425788.27849 -13555017.05647  22078559.642    22078565.214
  22240266.638   -17301752.82249 -13456808.09047  22240266.344    22240273.651
  23013008.580    -9710849.85949  -7547452.21146  23013007.546    23013013.922
  22848954.572    12110869.29849   9444383.01846  22848953.798    22848962.606
  20811498.198   -14917864.72449 -11330123.63448  20811497.710    20811502.944
 04  7 15 18 46 30.0000000  0  6G22G11G25G19G15G14
  22714007.464    10769617.79149   8397199.91246  22714007.260    22714012.094
  22065929.237   -17492162.92549 -13606737.52147  22065928.895    22065934.496
  22224609.967   -17384029.07949 -13520919.39147  22224609.673    22224616.953
  23026110.982    -9641996.22649  -7493800.08946  23026109.976    23026116.364
  22869172.916    12217117.25549   9527173.54446  22869172.152    22869181.012
  20821078.449   -14867520.33349 -11290894.25248  20821077.938    20821083.219
 04  7 15 18 47  0.0000000  0  6G22G11G25G19G15G14
  22726592.228    10835750.98049   8448732.21946  22726591.978    22726596.824
  22053373.343   -17558144.36549 -13658151.58547  22053372.998    22053378.659
  22209013.599   -17465988.15049 -13584783.52947  22209013.310    22209020.570
  23039277.037    -9572808.36849  -7439887.53446  23039276.061    23039282.409
  22889437.621    12323608.87249   9610153.92046  22889436.882    22889445.844
  20830725.376   -14816825.23849 -11251391.59648  20830724.899    20830730.203
 04  7 15 18 47 30.0000000  0  6G22G11G25G19G15G14
  22739203.654    10902024.16449   8500373.60946  22739203.367    22739208.238
  22040892.540   -17623731.37449 -13709258.31147  22040892.208    22040897.795
  22193477.907   -17547628.15349 -13648399.03947  22193477.635    22193484.937
  23052506.024    -9503289.86549  -7385717.33146  23052505.013    23052511.308
  22909748.122    12430341.45449   9693322.05946  22909747.412    22909756.547
  20840438.463   -14765782.40549 -11211617.97448  20840438.025    20840443.319
 04  7 15 18 48  0.0000000  0  6G22G11G25G19G15G14
  22751841.825    10968438.41749   8552124.93646  22751841.617    22751846.477
  22028487.425   -17688920.57049 -13760055.04947  22028487.076    22028492.649
  22178003.733   -17628945.49349 -13711763.12847  22178003.418    22178010.739
  23065797.552    -9433442.61549  -7331290.98346  23065796.571    23065802.909
  22930104.371    12537313.92249   9776677.13446  22930103.680    22930112.858
  20850217.731   -14714392.40749 -11171573.83248  20850217.245    20850222.539
 04  7 15 18 48 30.0000000  0  6G22G11G25G19G15G14
  22764506.888    11034993.37149   8603985.89846  22764506.690    22764511.557
  22016158.314   -17753710.19449 -13810540.43347  22016157.981    22016163.501
  22162591.317   -17709938.03349 -13774874.12247  22162590.978    22162598.341
  23079151.222    -9363269.73249  -7276610.86746  23079150.186    23079156.439
  22950505.908    12644523.90949   9860217.27346  22950505.135    22950514.352
  20860062.545   -14662657.69449 -11131261.08048  20860062.040    20860067.345
 04  7 15 18 49  0.0000000  0  6G22G11G25G19G15G14
  22777198.491    11101688.09049   8655955.77046  22777198.274    22777203.178
  22003905.546   -17818098.77749 -13860713.31647  22003905.203    22003910.787
  22147241.117   -17790603.57649 -13837730.32447  22147240.794    22147248.099
  23092565.938    -9292774.87849  -7221679.88246  23092564.879    23092571.138
  22970952.129    12751968.71949   9943940.40246  22970951.321    22970960.509
  20869972.405   -14610580.98249 -11090681.84048  20869971.899    20869977.236
 04  7 15 18 49 30.0000000  0  6G22G11G25G19G15G14
  22789916.824    11168523.68449   8708035.39746  22789916.649    22789921.657
  21991729.741   -17882083.12449 -13910571.21247  21991729.353    21991734.878
  22131953.765   -17870938.56849 -13900328.95447  22131953.497    22131960.745
  23106041.455    -9221959.99349  -7166499.50846  23106040.511    23106046.818
  22991442.709    12859647.33949  10027845.70746  22991441.916    22991451.177
  20879947.204   -14558163.07249 -11049836.72848  20879946.694    20879952.053
 04  7 15 18 50  0.0000000  0  6G22G11G25G19G15G14
  22802661.907    11235499.60749   8760224.37946  22802661.736    22802666.799
  21979631.151   -17945661.47249 -13960112.75047  21979630.808    21979636.254
  22116729.739   -17950940.96949 -13962668.42247  22116729.477    22116736.726
  23119577.424    -9150828.35249  -7111072.33046  23119576.430    23119582.787
  23011977.307    12967557.07549  10111931.13246  23011976.581    23011985.795
  20889986.410   -14505406.54949 -11008727.76248  20889985.914    20889991.246
 04  7 15 18 50 30.0000000  0  6G22G11G25G19G15G14
  22815433.618    11302615.36749   8812522.32146  22815433.464    22815438.572
  21967610.131   -18008832.26549 -14009336.71147  21967609.800    21967615.229
  22101569.483   -18030608.39149 -14024746.86747  22101569.222    22101576.438
  23133173.071    -9079383.21949  -7055400.85046  23133172.048    23133178.411
  23032555.514    13075695.61449  10196194.82746  23032554.734    23032563.955
  20900089.662   -14452313.83649 -10967356.83248  20900089.139    20900094.469
 04  7 15 18 51  0.0000000  0  6G22G11G25G19G15G14
  22828232.064    11369871.25349   8864929.45646  22828231.884    22828236.979
  21955667.164   -18071592.95249 -14058241.10847  21955666.808    21955672.232
  22086473.567   -18109937.92749 -14086562.02647  22086473.263    22086480.485
  23146827.765    -9007627.08849  -6999487.04746  23146826.845    23146833.207
  23053176.856    13184061.14149  10280635.39746  23053176.079    23053185.330
  20910256.608   -14398886.30849 -10925725.00348  20910256.091    20910261.389
 04  7 15 18 51 30.0000000  0  6G22G11G25G19G15G14
  22841057.098    11437267.03149   8917445.59846  22841056.905    22841061.944
  21943802.555   -18133941.45349 -14106824.31547  21943802.252    21943807.684
  22071442.190   -18188927.38449 -14148112.18047  22071441.949    22071449.214
  23160541.096    -8935563.39749  -6943333.58346  23160540.181    23160546.547
  23073840.930    13292651.54949  10365251.18846  23073840.113    23073849.522
  20920486.873   -14345126.23249 -10883834.04448  20920486.339    20920491.615
 04  7 15 18 52  0.0000000  0  6G22G11G25G19G15G14
  22853908.677    11504802.27849   8970070.40646  22853908.478    22853913.488
  21932016.812   -18195876.05549 -14155085.01947  21932016.491    21932021.889
  22056476.119   -18267574.29849 -14209395.42847  22056475.860    22056483.085
  23174312.483    -8863195.11949  -6886942.78946  23174311.568    23174317.915
  23094547.395    13401464.39949  10450040.31046  23094546.628    23094556.035
  20930779.978   -14291035.70249 -10841685.58948  20930779.423    20930784.723
 04  7 15 18 52 30.0000000  0  6G22G11G25G19G15G14
  22866786.841    11572476.93949   9022803.84846  22866786.613    22866791.612
  21920310.190   -18257394.62749 -14203021.52447  21920309.875    21920315.297
  22041575.771   -18345876.31249 -14270409.92147  22041575.455    22041582.674
  23188141.209    -8790525.20149  -6830316.94946  23188140.225    23188146.650
  23115295.822    13510497.64649  10535001.18046  23115295.044    23115304.431
  20941135.437   -14236617.00949 -10799281.42447  20941134.924    20941140.259
 04  7 15 18 53  0.0000000  0  6G22G11G25G19G15G14
  22879691.543    11640291.50749   9075646.32046  22879691.359    22879696.346
  21908683.174   -18318494.89949 -14250632.08847  21908682.864    21908688.304
  22026741.596   -18423830.31849 -14331153.23947  22026741.284    22026748.507
  23202026.825    -8717556.22849  -6773458.08246  23202025.861    23202032.237
  23136085.869    13619749.68049  10620132.53346  23136085.102    23136094.430
  20951553.123   -14181871.52649 -10756622.62047  20951552.632    20951557.965
 04  7 15 18 53 30.0000000  0  6G22G11G25G19G15G14
  22892622.748    11708245.37149   9128597.32246  22892622.576    22892627.567
  21897136.171   -18379174.80049 -14297915.09247  21897135.828    21897141.275
  22011974.019   -18501434.13749 -14391623.68947  22011973.748    22011980.932
  23215968.797    -8644291.52449  -6716368.75946  23215967.789    23215973.992
  23156916.978    13729217.70249  10705432.19846  23156916.220    23156925.554
  20962032.609   -14126801.76949 -10713711.13147  20962032.097    20962037.426
 04  7 15 18 54  0.0000000  0  6G22G11G25G19G15G14
  22905580.532    11776338.38649   9181656.76646  22905580.297    22905585.330
  21885669.395   -18439432.77449 -14344869.32747  21885669.057    21885674.506
  21997273.522   -18578685.41849 -14451819.43647  21997273.255    21997280.405
  23229966.340    -8570734.05449  -6659051.32946  23229965.329    23229971.648
  23177788.868    13838899.65549  10790898.55646  23177788.091    23177797.416
  20972573.396   -14071409.59749 -10670548.41047  20972572.870    20972578.245
 04  7 15 18 54 30.0000000  0  6G22G11G25G19G15G14
  22918564.824    11844571.21449   9234825.13946  22918564.607    22918569.625
  21874283.496   -18499265.82049 -14391492.44247  21874283.179    21874288.661
  21982640.753   -18655580.84449 -14511737.89247  21982640.505    21982647.600
  23244019.060    -8496886.32949  -6601507.71346  23244018.141    23244024.501
  23198701.194    13948794.02249  10876530.41146  23198700.353    23198709.726
  20983175.290   -14015696.38249 -10627135.52547  20983174.790    20983180.165
 04  7 15 18 55  0.0000000  0  6G22G11G25G19G15G14
  22931575.656    11912943.26749   9288102.01146  22931575.401    22931580.396
  21862978.725   -18558672.42649 -14437783.28247  21862978.425    21862983.849
  21968076.023   -18732118.76549 -14571377.77547  21968075.778    21968082.815
  23258126.589    -8422751.74749  -6543740.56446  23258125.654    23258131.873
  23219653.342    14058898.26649  10962325.82946  23219652.579    23219662.070
  20993837.761   -13959664.72149 -10583474.50347  20993837.229    20993842.614
 04  7 15 18 55 30.0000000  0  6G22G11G25G19G15G14
  22944612.826    11981454.34049   9341487.19846  22944612.625    22944617.619
  21851755.490   -18617650.58149 -14483740.25847  21851755.185    21851760.566
  21953579.899   -18808296.35249 -14630736.89047  21953579.653    21953586.606
  23272287.994    -8348333.45749  -6485752.37546  23272287.011    23272293.315
  23240645.057    14169210.15149  11048283.03146  23240644.297    23240653.801
  21004560.478   -13903316.74349 -10539566.99647  21004559.936    21004565.268
 04  7 15 18 56  0.0000000  0  6G22G11G25G19G15G14
  22957676.626    12050104.96149   9394981.12246  22957676.401    22957681.424
  21840614.234   -18676198.00449 -14529361.59247  21840613.918    21840619.384
  21939152.956   -18884110.63149 -14689812.91247  21939152.661    21939159.505
  23286502.901    -8273633.70149  -6427544.86546  23286501.840    23286508.245
  23261676.018    14279728.02049  11134400.75345  23261675.257    23261684.687
  21015343.092   -13846653.73349 -10495414.01047  21015342.551    21015347.907
 04  7 15 18 56 30.0000000  0  6G22G11G25G19G15G14
  22970766.947    12118894.49449   9448583.30146  22970766.689    22970771.715
  21829555.295   -18734312.87149 -14574645.87447  21829554.964    21829560.451
  21924795.360   -18959559.79649 -14748604.41347  21924795.100    21924801.931
  23300770.568    -8198656.16249  -6369120.88846  23300769.562    23300776.103
  23282745.650    14390449.11749  11220676.82945  23282744.951    23282754.293
  21026185.201   -13789678.25949 -10451017.54547  21026184.655    21026190.016
 04  7 15 18 57  0.0000000  0  6G22G11G25G19G15G14
  22983883.527    12187821.91749   9502292.91546  22983883.199    22983888.248
  21818578.897   -18791994.10749 -14619592.27347  21818578.572    21818584.040
  21910507.479   -19034642.63749 -14807110.46947  21910507.271    21910514.132
  23315090.588    -8123404.79149  -6310483.54346  23315089.490    23315096.016
  23303853.354    14501370.31249  11307108.81045  23303852.649    23303862.127
  21037086.111   -13732393.49949 -10406380.08147  21037085.569    21037090.924
 04  7 15 18 57 30.0000000  0  7G22G11G25G20G19G15G14
  22997025.638    12256883.90549   9556107.40046  22997025.311    22997030.360
  21807684.737   -18849243.10349 -14664201.85147  21807684.414    21807689.895
  21896289.363   -19109359.32749 -14865331.22447  21896289.154    21896295.970
  24703738.744    -4897206.94649  -3778087.15845  24703737.599    24703747.084
  23329461.361    -8047885.71949  -6251637.61346  23329460.281    23329466.978
  23324998.147    14612486.37849  11393692.64845  23324997.420    23325006.940
  21048044.967   -13674804.42049 -10361505.48547  21048044.462    21048049.777
 04  7 15 18 58  0.0000000  0  7G22G11G25G20G19G15G14
  23010193.184    12326079.57149   9610026.04246  23010192.865    23010197.951
  21796873.073   -18906058.75349 -14708473.75447  21796872.749    21796878.302
  21882141.187   -19183708.65649 -14923265.71447  21882140.929    21882147.778
  24686993.639    -4985202.55349  -3846655.06745  24686992.701    24687002.053
  23343882.411    -7972103.10449  -6192586.30446  23343881.307    23343888.015
  23346179.393    14723794.38649  11480426.04745  23346178.767    23346188.272
  21059061.161   -13616913.92749 -10316396.01947  21059060.676    21059065.945
 04  7 15 18 58 30.0000000  0  8G22G11G25G20G 1G19G15G14
  23023387.381    12395415.75049   9664054.16846  23023387.130    23023392.275
  21786145.585   -18962432.16449 -14752401.06447  21786145.226    21786150.695
  21868064.601   -19257681.21449 -14980906.61847  21868064.364    21868071.249
  24670248.675    -5073197.84049  -3915222.69745  24670247.753    24670257.011
  24563546.483    -5210161.63249  -4044744.70545  24563546.022    24563556.979
  23358354.288    -7896052.76749  -6133326.38946  23358353.269    23358359.930
  23367398.015    14835298.96449  11567312.62945  23367397.417    23367407.009
  21070135.720   -13558716.93749 -10271047.72547  21070135.209    21070140.473
 04  7 15 18 59  0.0000000  0  8G22G11G25G20G 1G19G15G14
  23036607.908    12464890.20049   9718190.04046  23036607.738    23036612.951
  21775502.194   -19018363.80749 -14795984.14447  21775501.814    21775507.206
  21854059.834   -19331276.59849 -15038253.62747  21854059.590    21854066.510
  24653503.438    -5161194.58249  -3983791.53045  24653502.546    24653511.832
  24545285.049    -5306124.92549  -4119521.19945  24545284.694    24545295.688
  23372876.119    -7819739.88349  -6073861.88446  23372875.126    23372881.856
  23388653.331    14946995.75649  11654348.96045  23388652.653    23388662.262
  21081267.741   -13500217.70149 -10225463.91947  21081267.222    21081272.497
 04  7 15 18 59 30.0000000  0  8G22G11G25G20G 1G19G15G14
  23049855.557    12534506.57549   9772436.51046  23049855.327    23049860.579
  21764944.036   -19073847.31149 -14839218.01547  21764943.683    21764949.069
  21840127.947   -19404488.78649 -15095302.03747  21840127.724    21840134.652
  24636758.500    -5249188.39649  -4052358.08245  24636757.747    24636767.020
  24527053.375    -5401933.00349  -4194176.73145  24527053.033    24527063.889
  23387448.188    -7743163.45749  -6014192.02546  23387447.207    23387453.984
  23409945.547    15058886.64949  11741536.56945  23409944.863    23409954.539
  21092457.647   -13441414.30049 -10179643.09347  21092457.136    21092462.397
 04  7 15 19  0  0.0000000  0  8G22G11G25G20G 1G19G15G14
  23063129.893    12604263.23549   9826792.29646  23063129.618    23063134.839
  21754471.170   -19128882.57749 -14882102.60847  21754470.813    21754476.212
  21826269.175   -19477316.91949 -15152051.18847  21826268.958    21826275.888
  24620013.916    -5337180.60649  -4120923.35545  24620013.289    24620022.470
  24508851.250    -5497586.62549  -4268711.94945  24508850.857    24508861.443
  23402069.605    -7666328.74449  -5954320.90446  23402068.505    23402075.253
  23431273.961    15170967.57349  11828872.22345  23431273.227    23431282.961
  21103704.741   -13382310.63049 -10133588.29947  21103704.250    21103709.507
 04  7 15 19  0 30.0000000  0  8G22G11G25G20G 1G19G15G14
  23076430.608    12674158.83249   9881256.33246  23076430.299    23076435.564
  21744083.688   -19183469.13249 -14924637.56647  21744083.335    21744088.669
  21812483.637   -19549760.14449 -15208500.40747  21812483.432    21812490.344
  24603269.798    -5425171.69149  -4189487.76745  24603269.161    24603278.211
  24490678.181    -5593085.65449  -4343126.65645  24490677.607    24490688.486
  23416739.257    -7589239.77849  -5894251.66646  23416738.179    23416744.884
  23452637.910    15283235.08849  11916353.29345  23452637.077    23452646.852
  21115008.401   -13322909.74649 -10087301.90447  21115007.894    21115013.107
 04  7 15 19  1  0.0000000  0  8G22G11G25G20G 1G19G15G14
  23089757.728    12744192.81949   9935828.20146  23089757.384    23089762.734
  21733781.935   -19237605.39349 -14966821.64647  21733781.556    21733786.855
  21798771.771   -19621816.40049 -15264648.08547  21798771.535    21798778.491
  24586526.025    -5513161.62249  -4258051.28845  24586525.312    24586534.181
  24472534.813    -5688429.52449  -4417420.49545  24472534.067    24472545.126
  23431456.569    -7511899.84849  -5833986.87046  23431455.530    23431462.258
  23474036.743    15395686.63549  12003977.75345  23474035.953    23474045.720
  21126368.088   -13263214.32149 -10040786.00247  21126367.560    21126372.752
 04  7 15 19  1 30.0000000  0  8G22G11G25G20G 1G19G15G14
  23103111.145    12814365.22849   9990507.95546  23103110.839    23103116.133
  21723566.214   -19291289.26149 -15008653.20247  21723565.828    21723571.160
  21785134.015   -19693483.12249 -15320492.23647  21785133.776    21785140.716
  24569782.457    -5601150.00049  -4326613.60245  24569781.555    24569790.359
  24454421.047    -5783617.01349  -4491592.47345  24454420.377    24454431.330
  23446221.096    -7434312.10349  -5773528.98246  23446219.970    23446226.814
  23495470.191    15508320.21349  12091744.05045  23495469.495    23495479.378
  21137783.552   -13203225.96549  -9994041.83947  21137783.017    21137788.213
 04  7 15 19  2  0.0000000  0  8G22G11G25G20G 1G19G15G14
  23116490.782    12884675.50649  10045295.11246  23116490.467    23116495.850
  21713436.867   -19344519.30549 -15050131.13747  21713436.481    21713441.817
  21771570.726   -19764758.48849 -15376031.42847  21771570.466    21771577.389
  24553039.007    -5689136.61949  -4395174.51845  24553038.205    24553047.112
  24436337.470    -5878647.37849  -4565642.05745  24436336.855    24436347.385
  23461032.068    -7356480.16349  -5712880.80046  23461030.996    23461037.873
  23516937.843    15621133.26649  12179650.20245  23516937.173    23516947.046
  21149254.225   -13142947.12949  -9947071.32947  21149253.716    21149258.906
 04  7 15 19  2 30.0000000  0  8G22G11G25G20G 1G19G15G14
  23129896.588    12955123.71449  10100189.74846  23129896.316    23129901.757
  21703394.212   -19397293.67249 -15091254.01147  21703393.833    21703399.111
  21758082.410   -19835639.99849 -15431263.72347  21758082.123    21758089.049
  24536296.163    -5777120.75149  -4463733.50745  24536295.276    24536304.293
  24418283.824    -5973519.50149  -4639568.32245  24418283.216    24418293.748
  23475889.045    -7278406.68749  -5652044.41146  23475887.991    23475894.747
  23538439.309    15734123.53949  12267694.44345  23538438.658    23538448.537
  21160779.888   -13082379.53749  -9899875.81347  21160779.367    21160784.549
 04  7 15 19  3  0.0000000  0  9G22G11G25G20G 1G19G23G15G14
  23143328.316    13025707.68449  10155190.18046  23143328.037    23143333.563
  21693438.228   -19449612.36549 -15132021.80147  21693437.885    21693443.128
  21744669.068   -19906127.52449 -15486189.01547  21744668.769    21744675.697
  24519553.485    -5865104.21749  -4532291.96145  24519552.687    24519561.573
  24400259.974    -6068234.31849  -4713372.00145  24400259.362    24400269.972
  23490790.960    -7200096.89749  -5591023.87746  23490789.924    23490796.704
  24755580.969    -3886701.31249  -3017701.10145  24755580.469    24755587.673
  23559973.774    15847286.83949  12355873.52145  23559973.090    23559982.953
  21172359.617   -13021527.67149  -9852458.79047  21172359.081    21172364.298
 04  7 15 19  3 30.0000000  0  9G22G11G25G20G 1G19G23G15G14
  23156786.261    13096429.15249  10210297.74546  23156785.951    23156791.448
  21683569.656   -19501471.94149 -15172431.83447  21683569.317    21683574.585
  21731331.463   -19976216.83449 -15540803.99947  21731331.163    21731338.080
  24502811.552    -5953084.36949  -4600847.82545  24502810.727    24502819.509
  24382266.889    -6162788.91649  -4787050.86445  24382266.309    24382276.830
  23505737.583    -7121552.14549  -5529820.24746  23505736.686    23505743.320
  24736704.422    -3985898.13649  -3094997.24445  24736703.877    24736711.059
  23581540.852    15960622.71549  12444187.05345  23581540.249    23581550.077
  21183993.404   -12960391.55349  -9804820.26847  21183992.877    21183998.107
 04  7 15 19  4  0.0000000  0  9G22G11G25G20G 1G19G23G15G14
  23170270.417    13167288.63949  10265512.85646  23170270.036    23170275.671
  21673788.956   -19552869.94649 -15212482.21147  21673788.608    21673793.841
  21718070.255   -20045904.81749 -15595106.27247  21718069.963    21718076.849
  24486070.442    -6041060.17849  -4669400.34745  24486069.587    24486078.145
  24364304.330    -6257181.59749  -4860603.47345  24364303.655    24364314.416
  23520728.603    -7042774.71349  -5468435.32346  23520727.649    23520734.352
  24717851.653    -4084968.70949  -3172195.00745  24717851.099    24717858.442
  23603140.654    16074129.85549  12532634.04445  23603139.976    23603149.859
  21195681.058   -12898972.38249  -9756961.19347  21195680.546    21195685.835
 04  7 15 19  4 30.0000000  0  9G22G11G25G20G 1G19G23G15G14
  23183780.689    13238285.65449  10320835.14346  23183780.403    23183786.044
  21664096.356   -19603804.84549 -15252171.71947  21664095.998    21664101.244
  21704885.649   -20115189.98649 -15649094.66747  21704885.381    21704892.208
  24469330.095    -6129031.64249  -4737949.44345  24469329.146    24469337.748
  24346372.817    -6351411.98849  -4934029.67845  24346372.227    24346382.753
  23535763.049    -6963768.20349  -5406871.91846  23535762.031    23535768.892
  24699023.178    -4183912.59249  -3249294.05245  24699022.672    24699030.095
  23624772.639    16187805.21349  12621212.10545  23624771.860    23624781.684
  21207422.096   -12837272.71749  -9708883.54747  21207421.607    21207426.913
 04  7 15 19  5  0.0000000  0  9G22G11G25G20G 1G19G23G15G14
  23197317.206    13309420.41349  10376264.74946  23197316.951    23197322.601
  21654492.235   -19654274.67149 -15291498.83247  21654491.887    21654497.129
  21691778.249   -20184069.54649 -15702766.99847  21691777.995    21691784.830
  24452590.473    -6216997.84849  -4806494.43445  24452589.545    24452598.248
  24328472.425    -6445478.55949  -5007328.19145  24328471.850    24328482.364
  23550840.572    -6884535.59649  -5345132.29746  23550839.513    23550846.350
  24680219.192    -4282728.34949  -3326293.29645  24680218.650    24680225.977
  23646436.228    16301646.99749  12709919.86845  23646435.463    23646445.243
  21219216.192   -12775294.28449  -9660588.67947  21219215.713    21219221.046
 04  7 15 19  5 30.0000000  0  9G22G11G25G20G 1G19G23G15G14
  23210879.835    13380692.36149  10431801.25946  23210879.552    23210885.243
  21644976.895   -19704277.85349 -15330462.32347  21644976.565    21644981.805
  21678748.372   -20252541.68549 -15756121.85247  21678748.115    21678754.970
  24435851.899    -6304958.44649  -4875035.08445  24435851.033    24435859.821
  24310603.666    -6539380.50749  -5080498.45145  24310602.939    24310613.427
  23565960.516    -6805079.94349  -5283218.89946  23565959.446    23565966.381
  24661439.548    -4381415.23849  -3403192.09245  24661439.220    24661446.482
  23668130.902    16415652.77249  12798755.40645  23668130.154    23668139.981
  21231062.907   -12713039.13249  -9612078.19147  21231062.461    21231067.804
 04  7 15 19  6  0.0000000  0  9G22G11G25G20G 1G19G23G15G14
  23224468.562    13452101.12449  10487444.38046  23224468.275    23224473.938
  21635550.656   -19753813.06049 -15369061.15947  21635550.310    21635555.575
  21665796.387   -20320604.69249 -15809157.90247  21665796.122    21665802.976
  24419114.441    -6392913.25749  -4943571.21345  24419113.589    24419122.445
  24292766.095    -6633117.22449  -5153539.94845  24292765.519    24292775.849
  23581122.342    -6725404.82749  -5221134.47646  23581121.249    23581128.164
  24642684.988    -4479972.46349  -3479989.88445  24642684.445    24642691.622
  23689856.379    16529820.02549  12887716.77345  23689855.614    23689865.460
  21242961.904   -12650509.62449  -9563353.91847  21242961.434    21242966.824
 04  7 15 19  6 30.0000000  0  9G22G11G25G20G 1G19G23G15G14
  23238083.306    13523646.77149  10543194.15746  23238083.069    23238088.647
  21626213.874   -19802878.23549 -15407293.74447  21626213.524    21626218.743
  21652922.701   -20388256.19249 -15861873.30047  21652922.424    21652929.228
  24402378.318    -6480861.77849  -5012102.44045  24402377.605    24402386.474
  24274960.130    -6726687.70549  -5226451.88445  24274959.635    24274969.828
  23596325.207    -6645513.11349  -5158881.29946  23596324.144    23596331.143
  24623955.022    -4578398.98949  -3556685.79745  24623954.521    24623961.663
  23711612.151    16644146.31949  12976802.06445  23711611.283    23711621.074
  21254912.721   -12587707.69449  -9514417.36547  21254912.260    21254917.624
 04  7 15 19  7  0.0000000  0  9G22G11G25G20G 1G19G23G15G14
  23251724.020    13595328.83249  10599050.23746  23251723.727    23251729.309
  21616966.784   -19851471.76549 -15445158.81147  21616966.426    21616971.635
  21640127.616   -20455494.30249 -15914266.58147  21640127.352    21640134.154
  24385643.645    -6568803.66749  -5080628.49645  24385642.901    24385651.563
  24257186.052    -6820091.11649  -5299233.65045  24257185.580    24257195.753
  23611568.724    -6565408.32949  -5096462.07246  23611567.691    23611574.668
  24605250.208    -4676694.14149  -3633279.30645  24605249.601    24605256.570
  23733397.512    16758629.22649  13066009.39645  23733396.682    23733406.523
  21266914.909   -12524635.78049  -9465270.44347  21266914.432    21266919.785
 04  7 15 19  7 30.0000000  0  9G22G11G25G20G 1G19G23G15G14
  23265390.756    13667147.82149  10655013.01546  23265390.526    23265396.049
  21607809.784   -19899591.69149 -15482654.83547  21607809.465    21607814.724
  21627411.815   -20522316.08949 -15966335.44447  21627411.575    21627418.351
  24368910.274    -6656737.86949  -5149148.57345  24368909.455    24368917.997
  24239443.954    -6913325.90449  -5371884.04145  24239443.463    24239453.569
  23626852.387    -6485093.03749  -5033878.81946  23626851.311    23626858.221
  24586570.322    -4774855.92449  -3709768.92745  24586569.792    24586576.839
  23755212.245    16873267.04349  13155337.42745  23755211.599    23755221.545
  21278968.253   -12461295.26949  -9415914.21547  21278967.767    21278973.109
 04  7 15 19  8  0.0000000  0  9G22G11G25G20G 1G19G23G15G14
  23279083.519    13739103.21549  10711082.07246  23279083.306    23279088.819
  21598743.287   -19947236.41749 -15519780.57647  21598742.961    21598748.255
  21614775.625   -20588719.71449 -16018078.47647  21614775.362    21614782.094
  24352178.331    -6744663.95349  -5217662.32745  24352177.678    24352186.199
  24221734.064    -7006391.42949  -5444402.53745  24221733.643    24221743.613
  23642175.345    -6404570.41549  -4971134.01846  23642174.343    23642181.247
  24567916.293    -4872883.91949  -3786154.25545  24567915.696    24567922.838
  23777056.177    16988057.31949  13244784.23745  23777055.557    23777065.564
  21291072.243   -12397688.41349  -9366350.45147  21291071.758    21291077.103
 04  7 15 19  8 30.0000000  0  9G22G11G25G20G 1G19G23G15G14
  23292802.255    13811195.30249  10767257.66346  23292802.088    23292807.518
  21589767.689   -19994403.53649 -15556534.15347  21589767.325    21589772.617
  21602219.525   -20654702.38049 -16069493.48947  21602219.285    21602225.936
  24335448.284    -6832581.03349  -5286169.09845  24335447.610    24335455.945
  24204056.595    -7099286.22749  -5516787.98545  24204056.121    24204066.373
  23657537.308    -6323843.50449  -4908230.01546  23657536.229    23657543.232
  24549287.749    -4970776.69349  -3862434.21545  24549287.033    24549294.368
  23798928.767    17102998.42149  13334348.59145  23798928.214    23798938.225
  21303226.631   -12333816.67149  -9316580.28047  21303226.153    21303231.490
 04  7 15 19  9  0.0000000  0  9G22G11G25G20G 1G19G23G15G14
  23306546.972    13883423.77549  10823539.51246  23306546.783    23306552.270
  21580883.104   -20041092.07649 -15592914.80847  21580882.766    21580888.081
  21589743.835   -20720262.68949 -16120579.39347  21589743.571    21589750.177
  24318719.995    -6920488.82349  -5354668.60845  24318719.331    24318727.460
  24186411.735    -7192009.60749  -5589039.88645  24186411.186    24186421.538
  23672937.350    -6242915.78349  -4845169.57346  23672936.317    23672943.349
  24530684.887    -5068533.49949  -3938608.29845  24530684.320    24530691.494
  23820829.648    17218087.68849  13424028.38945  23820829.034    23820839.098
  21315431.078   -12269682.24949  -9266605.42547  21315430.555    21315435.873
 04  7 15 19  9 30.0000000  0  9G22G11G25G20G 1G19G23G15G14
  23320317.676    13955788.55349  10879927.56646  23320317.430    23320322.965
  21572089.960   -20087300.47249 -15628921.33347  21572089.613    21572094.905
  21577348.920   -20785398.53149 -16171334.54447  21577348.632    21577355.192
  24301993.601    -7008386.87149  -5423160.52445  24301992.830    24302000.904
  24168799.800    -7284560.68149  -5661157.52045  24168799.219    24168809.570
  23688375.136    -6161790.04349  -4781954.81846  23688374.060    23688381.188
  24512108.606    -5166152.97449  -4014675.37645  24512107.971    24512114.972
  23842758.122    17333322.76149  13513821.81445  23842757.502    23842767.688
  21327685.040   -12205287.15849  -9216427.45047  21327684.531    21327689.868
 04  7 15 19 10  0.0000000  0  9G22G11G25G20G 1G19G23G15G14
  23334114.090    14028288.98949  10936421.34946  23334113.829    23334119.371
  21563388.406   -20133027.28449 -15664552.59347  21563388.057    21563393.377
  21565035.054   -20850108.13349 -16221757.56847  21565034.787    21565041.276
  24285268.924    -7096274.78349  -5491644.54245  24285268.179    24285276.102
  24151220.878    -7376938.71649  -5733140.31845  24151220.229    24151230.576
  23703849.953    -6080469.68749  -4718588.42646  23703848.827    23703856.028
  24493558.240    -5263634.86649  -4090635.12345  24493557.753    24493564.718
  23864714.081    17448700.98849  13603726.78545  23864713.362    23864723.490
  21339988.164   -12140633.95649  -9166048.35547  21339987.634    21339992.996
 04  7 15 19 10 30.0000000  0  9G22G11G25G20G 1G19G23G15G14
  23347936.431    14100925.32149  10993021.00746  23347936.160    23347941.756
  21554778.908   -20178270.43049 -15699806.97047  21554778.577    21554783.832
  21552802.730   -20914388.92349 -16271846.44747  21552802.465    21552808.960
  24268546.324    -7184151.78549  -5560120.06245  24268545.625    24268553.506
  24133675.029    -7469142.48849  -5804987.28945  24133674.235    24133684.773
  23719361.218    -5998957.64249  -4655072.64946  23719360.118    23719367.272
  24475034.607    -5360977.54849  -4166486.48445  24475034.106    24475041.170
  23886696.672    17564220.53849  13693741.88345  23886695.964    23886706.128
  21352340.122   -12075724.08749  -9115469.25347  21352339.573    21352344.969
 04  7 15 19 11  0.0000000  0  9G22G11G25G20G 1G19G23G15G14
  23361784.627    14173697.82149  11049726.78246  23361784.363    23361789.882
  21546261.811   -20223028.15649 -15734683.09747  21546261.444    21546266.698
  21540652.522   -20978238.63249 -16321599.42147  21540652.257    21540658.747
  24251826.083    -7272016.93949  -5628586.32345  24251825.222    24251833.380
  24116162.492    -7561170.87049  -5876697.66645  24116161.868    24116172.163
  23734908.343    -5917256.89149  -4591409.82246  23734907.305    23734914.445
  24456537.476    -5458180.08049  -4242228.65245  24456536.902    24456543.928
  23908705.982    17679879.53949  13783865.61945  23908705.297    23908715.515
  21364740.516   -12010559.45849  -9064691.64247  21364739.988    21364745.386
 04  7 15 19 11 30.0000000  0  9G22G11G25G20G 1G19G23G15G14
  23375658.575    14246605.79549  11106538.12346  23375658.348    23375663.937
  21537837.329   -20267298.98349 -15769179.82047  21537836.966    21537842.220
  21528584.639   -21041655.71849 -16371015.28747  21528584.331    21528590.817
  24235108.037    -7359869.94749  -5697043.13645  24235107.234    24235115.491
  24098683.599    -7653023.13949  -5948270.80345  24098682.959    24098693.078
  23750490.867    -5835370.79149  -4527602.56646  23750489.828    23750496.959
  24438067.078    -5555241.66849  -4317860.93445  24438066.519    24438073.702
  23930741.468    17795675.31249  13874095.95145  23930740.653    23930750.942
  21377189.013   -11945142.08849  -9013717.08947  21377188.520    21377193.944
 04  7 15 19 12  0.0000000  0  9G22G11G25G20G 1G19G23G15G14
  23389558.384    14319649.23549  11163455.01246  23389558.046    23389563.700
  21529505.806   -20311081.31349 -15803295.90847  21529505.474    21529510.671
  21516599.527   -21104637.65549 -16420092.08047  21516599.219    21516605.715
  24218392.420    -7447710.15049  -5765489.94845  24218391.746    24218399.922
  24081238.155    -7744698.44149  -6019705.92845  24081237.576    24081247.992
  23766108.094    -5753302.37449  -4463653.27346  23766107.016    23766114.218
  24419623.975    -5652161.18249  -4393382.51645  24419623.417    24419630.522
  23952802.324    17911605.55149  13964431.03845  23952801.550    23952811.873
  21389685.282   -11879473.95849  -8962547.13947  21389684.769    21389690.204
 04  7 15 19 12 30.0000000  0  9G22G11G25G20G 1G19G23G15G14
  23403483.839    14392828.29749  11220477.55046  23403483.536    23403489.325
  21521267.526   -20354373.66749 -15837030.18947  21521267.177    21521272.388
  21504697.498   -21167182.84449 -16468828.54247  21504697.208    21504703.727
  24201679.552    -7535537.05249  -5833926.41145  24201678.866    24201686.869
  24063826.909    -7836195.71549  -6091002.41545  24063826.329    24063836.481
  23781759.384    -5671054.68549  -4399564.26046  23781758.302    23781765.511
  24401207.868    -5748937.66949  -4468792.67645  24401207.246    24401214.376
  23974888.334    18027667.80049  14054869.00645  23974887.500    23974897.969
  21402228.874   -11813557.10749  -8911183.37947  21402228.366    21402233.794
 04  7 15 19 13  0.0000000  0  9G22G11G25G20G 1G19G23G15G14
  23417435.117    14466142.48549  11277605.40246  23417434.787    23417440.600
  21513122.790   -20397174.47349 -15870381.44447  21513122.455    21513127.689
  21492878.970   -21229289.37049 -16517223.19647  21492878.690    21492885.215
  24184969.285    -7623349.93949  -5902351.96045  24184968.585    24184976.762
  24046449.478    -7927514.08249  -6162159.50445  24046448.840    24046458.963
  23797444.062    -5588631.07049  -4335338.16446  23797443.033    23797450.282
  24382819.382    -5845570.27949  -4544090.71645  24382818.736    24382825.804
  23996998.994    18143859.84649  14145408.11445  23996998.323    23997008.672
  21414819.415   -11747393.62249  -8859627.43947  21414818.899    21414824.307
 04  7 15 19 13 30.0000000  0  9G22G11G25G20G 1G19G23G15G14
  23431412.133    14539591.88149  11334838.59846  23431411.801    23431417.638
  21505071.873   -20439482.10249 -15903348.41047  21505071.549    21505076.825
  21481144.403   -21290954.76349 -16565274.10247  21481144.114    21481150.646
  24168261.777    -7711148.15549  -5970766.07145  24168261.071    24168269.381
  24029106.209    -8018652.44849  -6233176.27745  24029105.756    24029115.927
  23813161.840    -5506034.37849  -4270977.23346  23813160.732    23813168.084
  24364458.139    -5942057.89249  -4619275.76145  24364457.578    24364464.863
  24019134.173    18260179.91849  14236046.99845  24019133.449    24019143.787
  21427456.521   -11680985.27249  -8807880.69047  21427456.001    21427461.447
 04  7 15 19 14  0.0000000  0  9G22G11G25G20G 1G19G23G15G14
  23445414.817    14613176.48949  11392177.15846  23445414.497    23445420.423
  21497115.161   -20481294.95149 -15935929.83047  21497114.807    21497120.084
  21469494.160   -21352176.96549 -16612979.66947  21469493.879    21469500.359
  24151557.182    -7798930.91349  -6039168.13945  24151556.476    24151564.853
  24011797.667    -8109609.95949  -6304052.15645  24011797.229    24011807.154
  23828911.912    -5423267.71049  -4206483.83646  23828910.808    23828918.132
  24346124.871    -6038399.34049  -4694346.91045  24346124.339    24346131.693
  24041293.137    18376625.56349  14326783.72145  24041292.409    24041302.690
  21440139.825   -11614333.71649  -8755944.43547  21440139.370    21440144.841
 04  7 15 19 14 30.0000000  0  9G22G11G25G20G 1G19G23G15G14
  23459443.201    14686896.13449  11449620.95546  23459442.905    23459448.890
  21489252.928   -20522611.12249 -15968124.23747  21489252.600    21489257.858
  21457928.652   -21412953.97449 -16660338.33947  21457928.365    21457934.809
  24134855.588    -7886697.56349  -6107557.64445  24134854.769    24134863.347
  23994523.550    -8200385.67749  -6374786.36445  23994523.087    23994532.943
  23844693.748    -5340334.20949  -4141860.44046  23844692.633    23844699.837
  24327819.746    -6134593.58749  -4769303.39945  24327819.171    24327826.269
  24063475.710    18493194.62849  14417616.62545  24063475.063    24063485.362
  21452869.091   -11547441.01549  -8703820.27447  21452868.638    21452874.114
 04  7 15 19 15  0.0000000  0  9G22G11G25G20G 1G19G23G15G14
  23473497.280    14760750.45349  11507169.67746  23473496.986    23473503.020
  21481485.469   -20563429.39449 -15999930.66447  21481485.137    21481490.375
  21446448.169   -21473284.18749 -16707348.84647  21446447.873    21446454.341
  24118157.252    -7974447.69049  -6175934.28945  24118156.458    24118164.977
  23977284.073    -8290978.90449  -6445378.36745  23977283.612    23977293.532
  23860506.571    -5257237.27549  -4077109.67946  23860505.545    23860512.849
  24309542.680    -6230639.96849  -4844144.58245  24309542.144    24309549.147
  24085681.127    18609884.42549  14508543.59545  24085680.370    24085690.785
  21465643.886   -11480309.26049  -8651509.83547  21465643.404    21465648.870
 04  7 15 19 15 30.0000000  0  9G22G11G25G20G 1G19G23G15G14
  23487577.028    14834739.67749  11564823.53346  23487576.709    23487582.749
  21473813.019   -20603748.34449 -16031348.01247  21473812.659    21473817.890
  21435053.047   -21533165.60849 -16754009.64747  21435052.772    21435059.290
  24101462.231    -8062180.28949  -6244297.27645  24101461.406    24101469.920
  23960079.659    -8381388.36849  -6515827.17945  23960079.222    23960089.121
  23876350.160    -5173979.42849  -4012233.54546  23876349.117    23876356.503
  24291293.902    -6326537.27149  -4918869.65445  24291293.288    24291300.383
  24107909.294    18726692.92449  14599563.05045  24107908.471    24107918.867
  21478463.838   -11412940.30349  -8599014.56347  21478463.309    21478468.765
